| time (UTC) | temp F | wind direction | speed knots | gust knots | rain 1hr in | rain 24hr in | rain mn in | humidity % | barometer mb |
| 20260906204757 | 92 | 188 | 13.0 | 18.2 | 0.00 | 0.16 | 0.16 | 42 | 1015.4 |
| 20260906204651 | 92 | 167 | 11.3 | 18.2 | 0.00 | 0.16 | 0.16 | 42 | 1015.4 |
| 20260906204529 | 92 | 144 | 11.3 | 18.2 | 0.00 | 0.16 | 0.16 | 42 | 1015.5 |
| 20260906204446 | 92 | 151 | 13.0 | 18.2 | 0.00 | 0.16 | 0.16 | 42 | 1015.5 |
| 20260906204359 | 92 | 177 | 14.8 | 18.2 | 0.00 | 0.16 | 0.16 | 41 | 1015.5 |
| 20260906204251 | 92 | 150 | 14.8 | 18.2 | 0.00 | 0.16 | 0.16 | 42 | 1015.5 |
| 20260906204127 | 91 | 162 | 13.9 | 18.2 | 0.00 | 0.16 | 0.16 | 43 | 1015.4 |
| 20260906204021 | 91 | 172 | 13.0 | 20.9 | 0.00 | 0.16 | 0.16 | 45 | 1015.5 |
| 20260906203916 | 91 | 155 | 13.0 | 21.7 | 0.00 | 0.16 | 0.16 | 45 | 1015.5 |
| 20260906203833 | 91 | 136 | 13.0 | 21.7 | 0.00 | 0.16 | 0.16 | 45 | 1015.5 |
| 20260906203725 | 91 | 155 | 13.0 | 21.7 | 0.00 | 0.16 | 0.16 | 45 | 1015.5 |
| 20260906203645 | 91 | 157 | 13.9 | 22.6 | 0.00 | 0.16 | 0.16 | 45 | 1015.5 |
| 20260906203604 | 91 | 154 | 13.9 | 22.6 | 0.00 | 0.16 | 0.16 | 44 | 1015.5 |
| 20260906203457 | 90 | 151 | 12.2 | 23.5 | 0.00 | 0.16 | 0.16 | 46 | 1015.5 |
| 20260906203352 | 90 | 135 | 13.0 | 23.5 | 0.00 | 0.16 | 0.16 | 45 | 1015.5 |
| 20260906203245 | 90 | 133 | 14.8 | 23.5 | 0.00 | 0.16 | 0.16 | 45 | 1015.5 |
| 20260906203137 | 90 | 148 | 15.6 | 23.5 | 0.00 | 0.16 | 0.16 | 45 | 1015.7 |
| 20260906203055 | 90 | 152 | 15.6 | 23.5 | 0.00 | 0.16 | 0.16 | 45 | 1015.6 |
| 20260906202928 | 90 | 150 | 16.5 | 23.5 | 0.00 | 0.16 | 0.16 | 45 | 1015.6 |
| 20260906202824 | 90 | 168 | 15.6 | 23.5 | 0.00 | 0.16 | 0.16 | 44 | 1015.7 |
| 20260906202718 | 90 | 148 | 16.5 | 23.5 | 0.00 | 0.16 | 0.16 | 45 | 1015.7 |
| 20260906202619 | 90 | 144 | 15.6 | 23.5 | 0.00 | 0.16 | 0.16 | 44 | 1015.7 |
| 20260906202534 | 90 | 145 | 15.6 | 24.3 | 0.00 | 0.16 | 0.16 | 45 | 1015.7 |
| 20260906202450 | 90 | 138 | 14.8 | 24.3 | 0.00 | 0.16 | 0.16 | 45 | 1015.8 |
| 20260906202323 | 91 | 130 | 15.6 | 24.3 | 0.00 | 0.16 | 0.16 | 44 | 1015.8 |
| 20260906202216 | 91 | 160 | 14.8 | 24.3 | 0.00 | 0.16 | 0.16 | 45 | 1015.8 |
| 20260906202130 | 91 | 147 | 13.9 | 24.3 | 0.00 | 0.16 | 0.16 | 46 | 1015.8 |
| 20260906202025 | 90 | 144 | 14.8 | 24.3 | 0.00 | 0.16 | 0.16 | 46 | 1015.8 |
| 20260906201938 | 90 | 186 | 15.6 | 24.3 | 0.00 | 0.16 | 0.16 | 45 | 1015.8 |
| 20260906201834 | 91 | 144 | 14.8 | 24.3 | 0.00 | 0.16 | 0.16 | 45 | 1015.8 |
| 20260906201728 | 91 | 157 | 14.8 | 24.3 | 0.00 | 0.16 | 0.16 | 45 | 1015.8 |
| 20260906201627 | 91 | 151 | 15.6 | 24.3 | 0.00 | 0.16 | 0.16 | 45 | 1015.9 |
| 20260906201542 | 91 | 145 | 13.9 | 24.3 | 0.00 | 0.16 | 0.16 | 45 | 1015.9 |
| 20260906201437 | 91 | 132 | 12.2 | 21.7 | 0.00 | 0.16 | 0.16 | 45 | 1015.9 |
| 20260906201329 | 91 | 180 | 12.2 | 21.7 | 0.00 | 0.16 | 0.16 | 45 | 1015.9 |
| 20260906201223 | 91 | 160 | 14.8 | 21.7 | 0.00 | 0.16 | 0.16 | 46 | 1015.9 |
| 20260906201120 | 91 | 170 | 13.9 | 22.6 | 0.00 | 0.16 | 0.16 | 46 | 1015.9 |
| 20260906201018 | 91 | 128 | 13.0 | 22.6 | 0.00 | 0.16 | 0.16 | 46 | 1015.9 |
| 20260906200932 | 91 | 163 | 13.0 | 22.6 | 0.00 | 0.16 | 0.16 | 46 | 1015.9 |
| 20260906200824 | 91 | 176 | 14.8 | 22.6 | 0.00 | 0.16 | 0.16 | 46 | 1015.9 |
| 20260906200721 | 91 | 174 | 13.9 | 22.6 | 0.00 | 0.16 | 0.16 | 45 | 1015.9 |
| 20260906200618 | 91 | 149 | 13.0 | 22.6 | 0.00 | 0.16 | 0.16 | 46 | 1015.9 |
| 20260906200533 | 91 | 175 | 13.0 | 23.5 | 0.00 | 0.16 | 0.16 | 45 | 1015.9 |
| 20260906200432 | 91 | 167 | 14.8 | 23.5 | 0.00 | 0.16 | 0.16 | 45 | 1015.9 |
| 20260906200326 | 91 | 168 | 15.6 | 23.5 | 0.00 | 0.16 | 0.16 | 45 | 1015.9 |
| 20260906200222 | 91 | 167 | 14.8 | 23.5 | 0.00 | 0.16 | 0.16 | 45 | 1015.9 |
| 20260906200119 | 91 | 151 | 13.9 | 23.5 | 0.00 | 0.16 | 0.16 | 46 | 1015.9 |
| 20260906200033 | 91 | 170 | 13.9 | 23.5 | 0.00 | 0.16 | 0.16 | 46 | 1015.9 |
| 20260906195929 | 90 | 154 | 13.0 | 23.5 | 0.00 | 0.16 | 0.16 | 46 | 1015.8 |
| 20260906195846 | 90 | 181 | 13.9 | 23.5 | 0.00 | 0.16 | 0.16 | 46 | 1015.8 |
| 20260906195800 | 90 | 170 | 15.6 | 23.5 | 0.00 | 0.16 | 0.16 | 46 | 1015.9 |
| 20260906195655 | 90 | 163 | 15.6 | 23.5 | 0.00 | 0.16 | 0.16 | 46 | 1015.9 |
| 20260906195529 | 90 | 167 | 16.5 | 21.7 | 0.00 | 0.16 | 0.16 | 45 | 1015.9 |
| 20260906195423 | 91 | 163 | 17.4 | 21.7 | 0.00 | 0.16 | 0.16 | 46 | 1016.0 |
| 20260906195336 | 91 | 197 | 16.5 | 21.7 | 0.00 | 0.16 | 0.16 | 46 | 1016.0 |
| 20260906195231 | 91 | 184 | 14.8 | 20.9 | 0.00 | 0.16 | 0.16 | 45 | 1016.0 |
| 20260906195124 | 91 | 169 | 13.9 | 20.9 | 0.00 | 0.16 | 0.16 | 45 | 1016.0 |
| 20260906195039 | 90 | 159 | 13.9 | 20.9 | 0.00 | 0.16 | 0.16 | 46 | 1016.0 |
| 20260906194931 | 90 | 165 | 14.8 | 20.9 | 0.00 | 0.16 | 0.16 | 44 | 1016.1 |
| 20260906194829 | 90 | 180 | 15.6 | 20.9 | 0.00 | 0.16 | 0.16 | 44 | 1016.1 |
| 20260906194721 | 91 | 165 | 15.6 | 20.9 | 0.00 | 0.16 | 0.16 | 45 | 1016.1 |
| 20260906194615 | 91 | 190 | 13.9 | 20.9 | 0.00 | 0.16 | 0.16 | 45 | 1016.1 |
| 20260906194533 | 91 | 179 | 13.0 | 20.9 | 0.00 | 0.16 | 0.16 | 46 | 1016.1 |
| 20260906194427 | 91 | 169 | 13.0 | 20.9 | 0.00 | 0.16 | 0.16 | 45 | 1016.2 |
| 20260906194323 | 91 | 169 | 14.8 | 20.9 | 0.00 | 0.16 | 0.16 | 45 | 1016.2 |
| 20260906194217 | 91 | 196 | 13.9 | 20.9 | 0.00 | 0.16 | 0.16 | 45 | 1016.2 |
| 20260906194134 | 91 | 160 | 12.2 | 20.9 | 0.00 | 0.16 | 0.16 | 46 | 1016.2 |
| 20260906194056 | 91 | 132 | 12.2 | 20.9 | 0.00 | 0.16 | 0.16 | 47 | 1016.2 |
| 20260906193947 | 90 | 165 | 13.9 | 20.9 | 0.00 | 0.16 | 0.16 | 45 | 1016.3 |
| 20260906193818 | 90 | 167 | 13.9 | 20.9 | 0.00 | 0.16 | 0.16 | 46 | 1016.3 |
| 20260906193731 | 90 | 170 | 13.0 | 20.9 | 0.00 | 0.16 | 0.16 | 46 | 1016.3 |
| 20260906193625 | 90 | 176 | 12.2 | 20.9 | 0.00 | 0.16 | 0.16 | 47 | 1016.4 |
| 20260906193546 | 90 | 153 | 13.0 | 20.9 | 0.00 | 0.16 | 0.16 | 46 | 1016.4 |
| 20260906193442 | 90 | 170 | 13.9 | 20.9 | 0.00 | 0.16 | 0.16 | 46 | 1016.3 |
| 20260906193357 | 90 | 155 | 13.9 | 20.9 | 0.00 | 0.16 | 0.16 | 46 | 1016.4 |
| 20260906193250 | 90 | 173 | 13.9 | 20.9 | 0.00 | 0.16 | 0.16 | 46 | 1016.4 |
| 20260906193122 | 90 | 192 | 14.8 | 20.9 | 0.00 | 0.16 | 0.16 | 46 | 1016.4 |
| 20260906193024 | 90 | 167 | 15.6 | 20.9 | 0.00 | 0.16 | 0.16 | 46 | 1016.4 |
| 20260906192920 | 90 | 171 | 16.5 | 21.7 | 0.00 | 0.16 | 0.16 | 45 | 1016.4 |
| 20260906192834 | 90 | 181 | 15.6 | 21.7 | 0.00 | 0.16 | 0.16 | 45 | 1016.4 |
| 20260906192728 | 90 | 151 | 13.9 | 21.7 | 0.00 | 0.16 | 0.16 | 46 | 1016.5 |
| 20260906192623 | 90 | 165 | 13.9 | 21.7 | 0.00 | 0.16 | 0.16 | 47 | 1016.5 |
| 20260906192538 | 90 | 153 | 14.8 | 21.7 | 0.00 | 0.16 | 0.16 | 46 | 1016.5 |
| 20260906192430 | 90 | 175 | 14.8 | 21.7 | 0.00 | 0.16 | 0.16 | 46 | 1016.5 |
| 20260906192327 | 90 | 165 | 14.8 | 21.7 | 0.00 | 0.16 | 0.16 | 46 | 1016.6 |
| 20260906192225 | 90 | 169 | 14.8 | 21.7 | 0.00 | 0.16 | 0.16 | 45 | 1016.5 |
| 20260906192138 | 90 | 177 | 13.9 | 21.7 | 0.00 | 0.16 | 0.16 | 46 | 1016.4 |
| 20260906192034 | 90 | 161 | 13.9 | 20.9 | 0.00 | 0.16 | 0.16 | 46 | 1016.5 |
| 20260906191949 | 90 | 164 | 13.9 | 20.9 | 0.00 | 0.16 | 0.16 | 46 | 1016.5 |
| 20260906191828 | 90 | 167 | 14.8 | 20.9 | 0.00 | 0.16 | 0.16 | 46 | 1016.5 |
| 20260906191721 | 90 | 182 | 14.8 | 20.9 | 0.00 | 0.16 | 0.16 | 46 | 1016.5 |
| 20260906191636 | 89 | 157 | 13.0 | 20.9 | 0.00 | 0.16 | 0.16 | 47 | 1016.5 |
| 20260906191550 | 89 | 189 | 13.9 | 20.9 | 0.00 | 0.16 | 0.16 | 46 | 1016.5 |
| 20260906191422 | 89 | 179 | 13.9 | 20.9 | 0.00 | 0.16 | 0.16 | 46 | 1016.6 |
| 20260906191336 | 89 | 186 | 13.9 | 20.9 | 0.00 | 0.16 | 0.16 | 47 | 1016.5 |
| 20260906191253 | 89 | 188 | 13.0 | 20.9 | 0.00 | 0.16 | 0.16 | 46 | 1016.5 |
| 20260906191146 | 89 | 167 | 13.9 | 20.9 | 0.00 | 0.16 | 0.16 | 47 | 1016.6 |
| 20260906191043 | 89 | 165 | 14.8 | 20.9 | 0.00 | 0.16 | 0.16 | 46 | 1016.6 |
| 20260906190935 | 89 | 176 | 14.8 | 20.9 | 0.00 | 0.16 | 0.16 | 47 | 1016.6 |
| 20260906190831 | 89 | 157 | 14.8 | 20.9 | 0.00 | 0.16 | 0.16 | 47 | 1016.6 |
| 20260906190725 | 89 | 175 | 13.9 | 20.9 | 0.00 | 0.16 | 0.16 | 48 | 1016.6 |
| 20260906190621 | 89 | 173 | 13.9 | 20.9 | 0.00 | 0.16 | 0.16 | 48 | 1016.6 |
| 20260906190540 | 89 | 168 | 14.8 | 20.0 | 0.00 | 0.16 | 0.16 | 47 | 1016.7 |
| 20260906190432 | 89 | 167 | 14.8 | 20.0 | 0.00 | 0.16 | 0.16 | 48 | 1016.7 |
| 20260906190349 | 88 | 173 | 14.8 | 20.0 | 0.00 | 0.16 | 0.16 | 47 | 1016.7 |
| 20260906190229 | 88 | 157 | 13.0 | 20.0 | 0.00 | 0.16 | 0.16 | 48 | 1016.7 |
| 20260906190126 | 89 | 167 | 13.0 | 20.0 | 0.00 | 0.16 | 0.16 | 48 | 1016.7 |
| 20260906190020 | 88 | 159 | 13.9 | 20.0 | 0.00 | 0.16 | 0.16 | 50 | 1016.8 |
| 20260906185936 | 88 | 153 | 13.9 | 20.0 | 0.00 | 0.16 | 0.16 | 50 | 1016.8 |
| 20260906185831 | 88 | 172 | 13.0 | 19.1 | 0.00 | 0.16 | 0.16 | 50 | 1016.8 |
| 20260906185724 | 88 | 151 | 13.0 | 20.0 | 0.00 | 0.16 | 0.16 | 50 | 1016.8 |
| 20260906185622 | 88 | 157 | 13.0 | 20.0 | 0.00 | 0.16 | 0.16 | 50 | 1016.9 |
| 20260906185520 | 88 | 169 | 13.0 | 20.0 | 0.00 | 0.16 | 0.16 | 50 | 1016.8 |
| 20260906185433 | 88 | 161 | 13.9 | 20.0 | 0.00 | 0.16 | 0.16 | 52 | 1016.8 |
| 20260906185325 | 88 | 151 | 13.0 | 20.0 | 0.00 | 0.16 | 0.16 | 52 | 1016.9 |
| 20260906185223 | 88 | 178 | 13.9 | 20.0 | 0.00 | 0.16 | 0.16 | 53 | 1016.9 |
| 20260906185117 | 88 | 167 | 13.9 | 20.0 | 0.00 | 0.16 | 0.16 | 51 | 1016.8 |
| 20260906185036 | 88 | 169 | 13.9 | 20.0 | 0.00 | 0.16 | 0.16 | 52 | 1016.8 |
| 20260906184928 | 88 | 154 | 14.8 | 20.0 | 0.00 | 0.16 | 0.16 | 51 | 1016.8 |
| 20260906184825 | 88 | 155 | 13.9 | 20.0 | 0.00 | 0.16 | 0.16 | 52 | 1016.9 |
| 20260906184739 | 88 | 153 | 13.0 | 16.5 | 0.00 | 0.16 | 0.16 | 52 | 1016.8 |
| 20260906184652 | 88 | 181 | 12.2 | 16.5 | 0.00 | 0.16 | 0.16 | 53 | 1016.9 |
| 20260906184546 | 88 | 143 | 11.3 | 16.5 | 0.00 | 0.16 | 0.16 | 53 | 1016.9 |
| 20260906184438 | 87 | 148 | 11.3 | 18.2 | 0.00 | 0.16 | 0.16 | 53 | 1016.9 |
| 20260906184330 | 87 | 176 | 13.0 | 18.2 | 0.00 | 0.16 | 0.16 | 53 | 1016.9 |
| 20260906184248 | 87 | 128 | 11.3 | 18.2 | 0.00 | 0.16 | 0.16 | 53 | 1016.9 |
| 20260906184123 | 87 | 146 | 11.3 | 18.2 | 0.00 | 0.16 | 0.16 | 55 | 1016.9 |
| 20260906184022 | 87 | 164 | 12.2 | 18.2 | 0.00 | 0.16 | 0.16 | 54 | 1017.0 |
| 20260906183917 | 87 | 169 | 12.2 | 18.2 | 0.00 | 0.16 | 0.16 | 53 | 1017.0 |
| 20260906183833 | 87 | 152 | 11.3 | 18.2 | 0.00 | 0.16 | 0.16 | 54 | 1017.0 |
| 20260906183748 | 87 | 188 | 11.3 | 18.2 | 0.00 | 0.16 | 0.16 | 55 | 1017.1 |
| 20260906183620 | 87 | 165 | 13.0 | 18.2 | 0.00 | 0.16 | 0.16 | 54 | 1017.0 |
| 20260906183537 | 87 | 149 | 13.9 | 18.2 | 0.00 | 0.16 | 0.16 | 54 | 1017.0 |
| 20260906183429 | 87 | 173 | 13.0 | 18.2 | 0.00 | 0.16 | 0.16 | 54 | 1017.0 |
| 20260906183325 | 86 | 159 | 13.0 | 20.0 | 0.00 | 0.16 | 0.16 | 53 | 1017.0 |
| 20260906183226 | 86 | 175 | 12.2 | 20.0 | 0.00 | 0.16 | 0.16 | 55 | 1017.0 |
| 20260906183121 | 86 | 175 | 13.0 | 20.0 | 0.00 | 0.16 | 0.16 | 55 | 1017.0 |
| 20260906183036 | 86 | 158 | 13.9 | 20.0 | 0.00 | 0.16 | 0.16 | 54 | 1017.1 |
| 20260906182929 | 86 | 127 | 13.0 | 20.0 | 0.00 | 0.16 | 0.16 | 54 | 1017.0 |
| 20260906182826 | 86 | 160 | 12.2 | 20.0 | 0.00 | 0.16 | 0.16 | 55 | 1017.0 |
| 20260906182743 | 86 | 138 | 13.0 | 20.0 | 0.00 | 0.16 | 0.16 | 54 | 1017.0 |
| 20260906182659 | 86 | 146 | 13.0 | 20.0 | 0.00 | 0.16 | 0.16 | 55 | 1017.0 |
| 20260906182553 | 86 | 161 | 14.8 | 20.0 | 0.00 | 0.16 | 0.16 | 55 | 1017.1 |
| 20260906182424 | 86 | 144 | 13.0 | 20.0 | 0.00 | 0.16 | 0.16 | 56 | 1017.1 |
| 20260906182318 | 86 | 165 | 11.3 | 18.2 | 0.00 | 0.16 | 0.16 | 55 | 1017.1 |
| 20260906182216 | 86 | 144 | 12.2 | 18.2 | 0.00 | 0.16 | 0.16 | 56 | 1017.1 |
| 20260906182129 | 86 | 143 | 11.3 | 18.2 | 0.00 | 0.16 | 0.16 | 56 | 1017.1 |
| 20260906182044 | 86 | 173 | 10.4 | 18.2 | 0.00 | 0.16 | 0.16 | 56 | 1017.1 |
| 20260906181939 | 86 | 171 | 11.3 | 18.2 | 0.00 | 0.16 | 0.16 | 56 | 1017.1 |
| 20260906181831 | 86 | 169 | 12.2 | 18.2 | 0.00 | 0.16 | 0.16 | 55 | 1017.1 |
| 20260906181725 | 86 | 157 | 13.9 | 18.2 | 0.00 | 0.16 | 0.16 | 55 | 1017.2 |
| 20260906181619 | 86 | 178 | 13.9 | 18.2 | 0.00 | 0.16 | 0.16 | 55 | 1017.2 |
| 20260906181535 | 86 | 166 | 13.9 | 18.2 | 0.00 | 0.16 | 0.16 | 55 | 1017.2 |
| 20260906181430 | 86 | 185 | 12.2 | 18.2 | 0.00 | 0.16 | 0.16 | 56 | 1017.2 |
| 20260906181329 | 85 | 170 | 13.0 | 18.2 | 0.00 | 0.16 | 0.16 | 55 | 1017.3 |
| 20260906181227 | 85 | 142 | 13.9 | 18.2 | 0.00 | 0.16 | 0.16 | 55 | 1017.3 |
| 20260906181124 | 86 | 132 | 13.9 | 18.2 | 0.00 | 0.16 | 0.16 | 56 | 1017.3 |
| 20260906181040 | 86 | 157 | 13.0 | 18.2 | 0.00 | 0.16 | 0.16 | 57 | 1017.3 |
| 20260906180953 | 86 | 134 | 12.2 | 18.2 | 0.00 | 0.16 | 0.16 | 57 | 1017.3 |
| 20260906180846 | 86 | 149 | 11.3 | 18.2 | 0.00 | 0.16 | 0.16 | 58 | 1017.3 |
| 20260906180739 | 85 | 154 | 11.3 | 18.2 | 0.00 | 0.16 | 0.16 | 58 | 1017.3 |
| 20260906180652 | 85 | 142 | 10.4 | 18.2 | 0.00 | 0.16 | 0.16 | 58 | 1017.3 |
| 20260906180526 | 85 | 157 | 11.3 | 18.2 | 0.00 | 0.16 | 0.16 | 58 | 1017.4 |
| 20260906180426 | 85 | 157 | 12.2 | 18.2 | 0.00 | 0.16 | 0.16 | 57 | 1017.4 |
| 20260906180340 | 85 | 140 | 13.0 | 18.2 | 0.00 | 0.16 | 0.16 | 56 | 1017.4 |
| 20260906180233 | 86 | 146 | 13.0 | 18.2 | 0.00 | 0.16 | 0.16 | 56 | 1017.4 |
| 20260906180126 | 86 | 145 | 11.3 | 17.4 | 0.00 | 0.16 | 0.16 | 57 | 1017.4 |
| 20260906180020 | 86 | 164 | 11.3 | 17.4 | 0.00 | 0.16 | 0.16 | 57 | 1017.5 |
| 20260906175934 | 86 | 162 | 12.2 | 17.4 | 0.00 | 0.16 | 0.16 | 57 | 1017.4 |
| 20260906175827 | 86 | 145 | 12.2 | 17.4 | 0.00 | 0.16 | 0.16 | 57 | 1017.4 |
| 20260906175722 | 85 | 144 | 11.3 | 17.4 | 0.00 | 0.16 | 0.16 | 56 | 1017.4 |
| 20260906175635 | 85 | 170 | 12.2 | 17.4 | 0.00 | 0.16 | 0.16 | 57 | 1017.4 |
| 20260906175517 | 85 | 150 | 13.9 | 17.4 | 0.00 | 0.16 | 0.16 | 56 | 1017.5 |
| 20260906175429 | 85 | 144 | 13.9 | 17.4 | 0.00 | 0.16 | 0.16 | 56 | 1017.5 |
| 20260906175325 | 85 | 153 | 12.2 | 17.4 | 0.00 | 0.16 | 0.16 | 57 | 1017.6 |
| 20260906175239 | 85 | 142 | 12.2 | 17.4 | 0.00 | 0.16 | 0.16 | 57 | 1017.6 |
| 20260906175153 | 85 | 162 | 11.3 | 17.4 | 0.00 | 0.16 | 0.16 | 58 | 1017.5 |
| 20260906175025 | 85 | 163 | 12.2 | 17.4 | 0.00 | 0.16 | 0.16 | 57 | 1017.6 |
| 20260906174937 | 85 | 144 | 11.3 | 17.4 | 0.00 | 0.16 | 0.16 | 57 | 1017.6 |
| 20260906174829 | 85 | 166 | 11.3 | 17.4 | 0.00 | 0.16 | 0.16 | 56 | 1017.6 |
| 20260906174721 | 85 | 148 | 11.3 | 17.4 | 0.00 | 0.16 | 0.16 | 57 | 1017.6 |
| 20260906174634 | 85 | 171 | 12.2 | 17.4 | 0.00 | 0.16 | 0.16 | 57 | 1017.6 |
| 20260906174548 | 85 | 148 | 13.0 | 17.4 | 0.00 | 0.16 | 0.16 | 56 | 1017.6 |
| 20260906174427 | 85 | 152 | 12.2 | 17.4 | 0.00 | 0.16 | 0.16 | 56 | 1017.6 |
| 20260906174324 | 85 | 159 | 11.3 | 17.4 | 0.00 | 0.16 | 0.16 | 59 | 1017.6 |
| 20260906174238 | 85 | 153 | 12.2 | 17.4 | 0.00 | 0.16 | 0.16 | 59 | 1017.6 |
| 20260906174154 | 84 | 148 | 13.0 | 17.4 | 0.00 | 0.16 | 0.16 | 58 | 1017.6 |
| 20260906174029 | 84 | 136 | 12.2 | 17.4 | 0.00 | 0.16 | 0.16 | 58 | 1017.6 |
| 20260906173944 | 84 | 134 | 12.2 | 17.4 | 0.00 | 0.16 | 0.16 | 59 | 1017.6 |
| 20260906173856 | 84 | 174 | 10.4 | 16.5 | 0.00 | 0.16 | 0.16 | 58 | 1017.6 |
| 20260906173729 | 84 | 147 | 10.4 | 16.5 | 0.00 | 0.16 | 0.16 | 58 | 1017.6 |
| 20260906173646 | 84 | 139 | 11.3 | 16.5 | 0.00 | 0.16 | 0.16 | 58 | 1017.6 |
| 20260906173539 | 84 | 168 | 12.2 | 16.5 | 0.00 | 0.16 | 0.16 | 57 | 1017.7 |
| 20260906173430 | 84 | 148 | 11.3 | 16.5 | 0.00 | 0.16 | 0.16 | 58 | 1017.7 |
| 20260906173327 | 84 | 150 | 10.4 | 16.5 | 0.00 | 0.16 | 0.16 | 60 | 1017.7 |
| 20260906173221 | 84 | 157 | 10.4 | 16.5 | 0.00 | 0.16 | 0.16 | 60 | 1017.7 |
| 20260906173141 | 84 | 141 | 11.3 | 16.5 | 0.00 | 0.16 | 0.16 | 60 | 1017.7 |
| 20260906173035 | 84 | 158 | 12.2 | 16.5 | 0.00 | 0.16 | 0.16 | 60 | 1017.8 |
| 20260906172927 | 84 | 152 | 12.2 | 16.5 | 0.00 | 0.16 | 0.16 | 61 | 1017.7 |
| 20260906172823 | 84 | 133 | 12.2 | 16.5 | 0.00 | 0.16 | 0.16 | 60 | 1017.8 |
| 20260906172717 | 83 | 153 | 11.3 | 16.5 | 0.00 | 0.16 | 0.16 | 61 | 1017.9 |
| 20260906172631 | 83 | 149 | 11.3 | 16.5 | 0.00 | 0.16 | 0.16 | 61 | 1017.9 |
| 20260906172555 | 83 | 146 | 10.4 | 15.6 | 0.00 | 0.16 | 0.16 | 61 | 1017.9 |
| 20260906172510 | 83 | 163 | 10.4 | 13.9 | 0.00 | 0.16 | 0.16 | 61 | 1017.9 |
| 20260906172340 | 83 | 94 | 10.4 | 13.9 | 0.00 | 0.16 | 0.16 | 62 | 1017.9 |
| 20260906172254 | 83 | 150 | 10.4 | 13.9 | 0.00 | 0.16 | 0.16 | 61 | 1017.9 |
| 20260906172125 | 83 | 141 | 10.4 | 13.9 | 0.00 | 0.16 | 0.16 | 61 | 1017.9 |
| 20260906172020 | 83 | 151 | 11.3 | 13.9 | 0.00 | 0.16 | 0.16 | 61 | 1018.0 |
| 20260906171934 | 83 | 153 | 10.4 | 13.9 | 0.00 | 0.16 | 0.16 | 62 | 1017.9 |
| 20260906171827 | 83 | 136 | 9.6 | 13.0 | 0.00 | 0.16 | 0.16 | 62 | 1018.0 |
| 20260906171721 | 82 | 165 | 8.7 | 13.0 | 0.00 | 0.16 | 0.16 | 62 | 1017.9 |
| 20260906171635 | 82 | 144 | 9.6 | 13.0 | 0.00 | 0.16 | 0.16 | 62 | 1017.9 |
| 20260906171532 | 82 | 150 | 8.7 | 13.0 | 0.00 | 0.16 | 0.16 | 63 | 1018.0 |
| 20260906171426 | 82 | 142 | 8.7 | 14.8 | 0.00 | 0.16 | 0.16 | 64 | 1018.0 |
| 20260906171342 | 82 | 136 | 9.6 | 14.8 | 0.00 | 0.16 | 0.16 | 64 | 1018.0 |
| 20260906171214 | 82 | 150 | 9.6 | 14.8 | 0.00 | 0.16 | 0.16 | 63 | 1018.0 |
| 20260906171130 | 82 | 156 | 9.6 | 14.8 | 0.00 | 0.16 | 0.16 | 64 | 1018.0 |
| 20260906171027 | 82 | 148 | 9.6 | 14.8 | 0.00 | 0.16 | 0.16 | 63 | 1018.0 |
| 20260906170941 | 82 | 141 | 9.6 | 14.8 | 0.00 | 0.16 | 0.16 | 63 | 1018.0 |
| 20260906170833 | 82 | 150 | 8.7 | 14.8 | 0.00 | 0.16 | 0.16 | 63 | 1018.0 |
| 20260906170729 | 82 | 149 | 9.6 | 14.8 | 0.00 | 0.16 | 0.16 | 63 | 1018.0 |
| 20260906170626 | 82 | 141 | 10.4 | 14.8 | 0.00 | 0.16 | 0.16 | 63 | 1018.1 |
| 20260906170524 | 82 | 155 | 11.3 | 13.9 | 0.00 | 0.16 | 0.16 | 62 | 1017.7 |
| 20260906170434 | 82 | 143 | 10.4 | 14.8 | 0.00 | 0.16 | 0.16 | 63 | 1018.0 |
| 20260906170348 | 82 | 167 | 10.4 | 14.8 | 0.00 | 0.16 | 0.16 | 63 | 1018.0 |
| 20260906170224 | 82 | 168 | 9.6 | 15.6 | 0.00 | 0.16 | 0.16 | 63 | 1018.1 |
| 20260906170138 | 82 | 131 | 9.6 | 16.5 | 0.00 | 0.16 | 0.16 | 63 | 1018.0 |
| 20260906170015 | 81 | 165 | 9.6 | 16.5 | 0.00 | 0.16 | 0.16 | 63 | 1018.1 |
| 20260906165930 | 81 | 140 | 10.4 | 16.5 | 0.00 | 0.16 | 0.16 | 63 | 1018.1 |
| 20260906165843 | 81 | 151 | 9.6 | 16.5 | 0.00 | 0.16 | 0.16 | 62 | 1018.1 |
| 20260906165756 | 81 | 149 | 8.7 | 16.5 | 0.00 | 0.16 | 0.16 | 64 | 1018.1 |
| 20260906165633 | 81 | 146 | 9.6 | 16.5 | 0.00 | 0.16 | 0.16 | 62 | 1018.0 |
| 20260906165528 | 81 | 160 | 12.2 | 16.5 | 0.00 | 0.16 | 0.16 | 62 | 1018.0 |
| 20260906165422 | 81 | 153 | 12.2 | 16.5 | 0.00 | 0.16 | 0.16 | 62 | 1018.1 |
| 20260906165316 | 81 | 146 | 12.2 | 16.5 | 0.00 | 0.16 | 0.16 | 62 | 1018.1 |
| 20260906165234 | 82 | 144 | 12.2 | 16.5 | 0.00 | 0.16 | 0.16 | 62 | 1018.1 |
| 20260906165128 | 82 | 146 | 10.4 | 14.8 | 0.00 | 0.16 | 0.16 | 62 | 1018.1 |
| 20260906165023 | 82 | 140 | 9.6 | 14.8 | 0.00 | 0.16 | 0.16 | 63 | 1018.1 |
| 20260906164923 | 82 | 148 | 9.6 | 16.5 | 0.00 | 0.16 | 0.16 | 62 | 1018.2 |
| 20260906164817 | 82 | 135 | 10.4 | 16.5 | 0.00 | 0.16 | 0.16 | 63 | 1018.1 |
| 20260906164734 | 82 | 148 | 9.6 | 16.5 | 0.00 | 0.16 | 0.16 | 63 | 1018.1 |
| 20260906164627 | 82 | 123 | 9.6 | 17.4 | 0.00 | 0.16 | 0.16 | 63 | 1018.1 |
| 20260906164523 | 82 | 153 | 10.4 | 17.4 | 0.00 | 0.16 | 0.16 | 63 | 1018.2 |
| 20260906164435 | 82 | 153 | 10.4 | 17.4 | 0.00 | 0.16 | 0.16 | 63 | 1018.1 |
| 20260906164328 | 82 | 124 | 10.4 | 17.4 | 0.00 | 0.16 | 0.16 | 63 | 1018.2 |
| 20260906164221 | 81 | 152 | 11.3 | 20.0 | 0.00 | 0.16 | 0.16 | 63 | 1018.2 |
| 20260906164142 | 81 | 140 | 12.2 | 20.0 | 0.00 | 0.16 | 0.16 | 63 | 1018.1 |
| 20260906164036 | 81 | 150 | 12.2 | 20.0 | 0.00 | 0.16 | 0.16 | 64 | 1018.1 |
| 20260906163928 | 81 | 156 | 11.3 | 20.0 | 0.00 | 0.16 | 0.16 | 64 | 1018.2 |
| 20260906163825 | 81 | 148 | 12.2 | 20.0 | 0.00 | 0.16 | 0.16 | 64 | 1018.2 |
| 20260906163719 | 81 | 140 | 12.2 | 20.0 | 0.00 | 0.16 | 0.16 | 65 | 1018.2 |
| 20260906163616 | 81 | 161 | 11.3 | 20.0 | 0.00 | 0.16 | 0.16 | 65 | 1018.1 |
| 20260906163531 | 80 | 138 | 11.3 | 20.0 | 0.00 | 0.16 | 0.16 | 65 | 1018.1 |
| 20260906163430 | 80 | 136 | 11.3 | 20.0 | 0.00 | 0.16 | 0.16 | 65 | 1018.1 |
| 20260906163348 | 80 | 143 | 13.0 | 20.0 | 0.00 | 0.16 | 0.16 | 64 | 1018.1 |
| 20260906163223 | 80 | 138 | 13.9 | 20.0 | 0.00 | 0.16 | 0.16 | 64 | 1018.1 |
| 20260906163138 | 80 | 146 | 13.9 | 19.1 | 0.00 | 0.16 | 0.16 | 64 | 1018.0 |
| 20260906163058 | 80 | 139 | 13.0 | 17.4 | 0.00 | 0.16 | 0.16 | 65 | 1018.0 |
| 20260906162950 | 80 | 145 | 13.0 | 17.4 | 0.00 | 0.16 | 0.16 | 65 | 1018.0 |
| 20260906162826 | 80 | 149 | 13.0 | 17.4 | 0.00 | 0.16 | 0.16 | 65 | 1018.0 |
| 20260906162723 | 80 | 155 | 12.2 | 17.4 | 0.00 | 0.16 | 0.16 | 65 | 1018.0 |
| 20260906162642 | 80 | 138 | 13.0 | 17.4 | 0.00 | 0.16 | 0.16 | 66 | 1018.0 |
| 20260906162559 | 80 | 134 | 13.0 | 17.4 | 0.00 | 0.16 | 0.16 | 66 | 1018.0 |
| 20260906162431 | 80 | 138 | 10.4 | 16.5 | 0.00 | 0.16 | 0.16 | 68 | 1017.9 |
| 20260906162327 | 80 | 165 | 11.3 | 16.5 | 0.00 | 0.16 | 0.16 | 67 | 1018.0 |
| 20260906162221 | 80 | 136 | 12.2 | 16.5 | 0.00 | 0.16 | 0.16 | 66 | 1018.0 |
| 20260906162117 | 80 | 126 | 11.3 | 16.5 | 0.00 | 0.16 | 0.16 | 67 | 1018.0 |
| 20260906162033 | 80 | 148 | 11.3 | 16.5 | 0.00 | 0.16 | 0.16 | 67 | 1018.0 |
| 20260906161945 | 80 | 153 | 11.3 | 16.5 | 0.00 | 0.16 | 0.16 | 67 | 1018.0 |
| 20260906161821 | 80 | 161 | 11.3 | 16.5 | 0.00 | 0.16 | 0.16 | 68 | 1018.0 |
| 20260906161715 | 80 | 162 | 11.3 | 16.5 | 0.00 | 0.16 | 0.16 | 67 | 1018.0 |
| 20260906161632 | 80 | 175 | 11.3 | 16.5 | 0.00 | 0.16 | 0.16 | 67 | 1018.0 |
| 20260906161532 | 80 | 155 | 10.4 | 16.5 | 0.00 | 0.16 | 0.16 | 67 | 1018.0 |
| 20260906161423 | 80 | 163 | 9.6 | 16.5 | 0.00 | 0.16 | 0.16 | 67 | 1018.0 |
| 20260906161317 | 80 | 158 | 9.6 | 16.5 | 0.00 | 0.16 | 0.16 | 68 | 1018.0 |
| 20260906161231 | 80 | 153 | 10.4 | 16.5 | 0.00 | 0.16 | 0.16 | 67 | 1018.0 |
| 20260906161125 | 80 | 143 | 11.3 | 16.5 | 0.00 | 0.16 | 0.16 | 66 | 1018.0 |
| 20260906161044 | 80 | 150 | 11.3 | 16.5 | 0.00 | 0.16 | 0.16 | 67 | 1018.0 |
| 20260906160936 | 80 | 139 | 11.3 | 16.5 | 0.00 | 0.16 | 0.16 | 67 | 1018.0 |
| 20260906160850 | 80 | 155 | 10.4 | 16.5 | 0.00 | 0.16 | 0.16 | 66 | 1018.0 |
| 20260906160722 | 80 | 143 | 9.6 | 15.6 | 0.00 | 0.16 | 0.16 | 67 | 1018.0 |
| 20260906160637 | 80 | 157 | 10.4 | 15.6 | 0.00 | 0.16 | 0.16 | 66 | 1018.0 |
| 20260906160534 | 81 | 175 | 10.4 | 15.6 | 0.00 | 0.16 | 0.16 | 66 | 1018.0 |
| 20260906160435 | 81 | 143 | 9.6 | 14.8 | 0.00 | 0.16 | 0.16 | 67 | 1017.9 |
| 20260906160329 | 81 | 191 | 10.4 | 14.8 | 0.00 | 0.16 | 0.16 | 67 | 1018.0 |
| 20260906160222 | 80 | 167 | 11.3 | 14.8 | 0.00 | 0.16 | 0.16 | 66 | 1018.0 |
| 20260906160119 | 80 | 167 | 11.3 | 15.6 | 0.00 | 0.16 | 0.16 | 66 | 1018.0 |
| 20260906160017 | 80 | 194 | 11.3 | 15.6 | 0.00 | 0.16 | 0.16 | 67 | 1017.9 |
| 20260906155929 | 80 | 148 | 11.3 | 15.6 | 0.00 | 0.16 | 0.16 | 67 | 1018.1 |
| 20260906155825 | 80 | 167 | 11.3 | 15.6 | 0.00 | 0.16 | 0.16 | 67 | 1018.0 |
| 20260906155739 | 80 | 168 | 11.3 | 15.6 | 0.00 | 0.16 | 0.16 | 67 | 1018.0 |
| 20260906155635 | 80 | 174 | 11.3 | 15.6 | 0.00 | 0.16 | 0.16 | 66 | 1018.0 |
| 20260906155530 | 80 | 167 | 11.3 | 15.6 | 0.00 | 0.16 | 0.16 | 67 | 1018.0 |
| 20260906155425 | 80 | 142 | 10.4 | 15.6 | 0.00 | 0.16 | 0.16 | 68 | 1018.0 |
| 20260906155318 | 80 | 184 | 10.4 | 15.6 | 0.00 | 0.16 | 0.16 | 68 | 1018.0 |
| 20260906155232 | 80 | 161 | 10.4 | 15.6 | 0.00 | 0.16 | 0.16 | 69 | 1018.1 |
| 20260906155127 | 80 | 183 | 9.6 | 14.8 | 0.00 | 0.16 | 0.16 | 69 | 1018.0 |
| 20260906155025 | 79 | 162 | 9.6 | 16.5 | 0.00 | 0.16 | 0.16 | 69 | 1018.0 |
| 20260906154918 | 79 | 175 | 9.6 | 16.5 | 0.00 | 0.16 | 0.16 | 69 | 1018.0 |
| 20260906154836 | 79 | 163 | 9.6 | 16.5 | 0.00 | 0.16 | 0.16 | 69 | 1018.0 |
| 20260906154727 | 79 | 168 | 9.6 | 16.5 | 0.00 | 0.16 | 0.16 | 70 | 1018.0 |
| 20260906154620 | 79 | 163 | 9.6 | 16.5 | 0.00 | 0.16 | 0.16 | 69 | 1018.0 |
| 20260906154534 | 79 | 163 | 10.4 | 16.5 | 0.00 | 0.16 | 0.16 | 69 | 1018.0 |
| 20260906154426 | 79 | 155 | 10.4 | 16.5 | 0.00 | 0.16 | 0.16 | 69 | 1018.0 |
| 20260906154320 | 79 | 167 | 10.4 | 16.5 | 0.00 | 0.16 | 0.16 | 69 | 1018.0 |
| 20260906154217 | 79 | 159 | 10.4 | 16.5 | 0.00 | 0.16 | 0.16 | 69 | 1017.9 |
| 20260906154130 | 79 | 169 | 11.3 | 16.5 | 0.00 | 0.16 | 0.16 | 69 | 1017.9 |
| 20260906154028 | 78 | 171 | 11.3 | 16.5 | 0.00 | 0.16 | 0.16 | 69 | 1017.9 |
| 20260906153947 | 78 | 181 | 10.4 | 13.9 | 0.00 | 0.16 | 0.16 | 70 | 1017.9 |
| 20260906153839 | 78 | 156 | 9.6 | 13.0 | 0.00 | 0.16 | 0.16 | 71 | 1017.9 |
| 20260906153755 | 78 | 180 | 9.6 | 13.0 | 0.00 | 0.16 | 0.16 | 71 | 1017.9 |
| 20260906153628 | 78 | 196 | 9.6 | 13.0 | 0.00 | 0.16 | 0.16 | 70 | 1017.9 |
| 20260906153526 | 78 | 165 | 8.7 | 13.0 | 0.00 | 0.16 | 0.16 | 71 | 1017.9 |
| 20260906153419 | 78 | 167 | 8.7 | 13.0 | 0.00 | 0.16 | 0.16 | 71 | 1017.9 |
| 20260906153336 | 78 | 152 | 8.7 | 13.0 | 0.00 | 0.16 | 0.16 | 71 | 1017.9 |
| 20260906153233 | 78 | 159 | 7.8 | 13.0 | 0.00 | 0.16 | 0.16 | 72 | 1017.9 |
| 20260906153129 | 78 | 165 | 7.8 | 13.0 | 0.00 | 0.16 | 0.16 | 73 | 1017.9 |
| 20260906153029 | 78 | 150 | 8.7 | 13.0 | 0.00 | 0.16 | 0.16 | 72 | 1017.9 |
| 20260906152942 | 78 | 163 | 9.6 | 13.0 | 0.00 | 0.16 | 0.16 | 72 | 1017.9 |
| 20260906152834 | 78 | 167 | 9.6 | 13.0 | 0.00 | 0.16 | 0.16 | 72 | 1017.9 |
| 20260906152727 | 77 | 170 | 9.6 | 13.0 | 0.00 | 0.16 | 0.16 | 73 | 1017.9 |
| 20260906152620 | 77 | 182 | 10.4 | 13.0 | 0.00 | 0.16 | 0.16 | 73 | 1017.9 |
| 20260906152534 | 77 | 161 | 9.6 | 13.0 | 0.00 | 0.16 | 0.16 | 73 | 1017.9 |
| 20260906152427 | 77 | 171 | 8.7 | 12.2 | 0.00 | 0.16 | 0.16 | 73 | 1017.9 |
| 20260906152324 | 77 | 152 | 8.7 | 12.2 | 0.00 | 0.16 | 0.16 | 73 | 1017.9 |
| 20260906152222 | 77 | 161 | 8.7 | 13.0 | 0.00 | 0.16 | 0.16 | 73 | 1017.9 |
| 20260906152139 | 77 | 169 | 8.7 | 13.0 | 0.00 | 0.16 | 0.16 | 73 | 1017.9 |
| 20260906152033 | 77 | 163 | 8.7 | 13.0 | 0.00 | 0.16 | 0.16 | 74 | 1017.9 |
| 20260906151929 | 77 | 175 | 8.7 | 13.0 | 0.00 | 0.16 | 0.16 | 73 | 1017.9 |
| 20260906151843 | 77 | 155 | 9.6 | 13.0 | 0.00 | 0.16 | 0.16 | 73 | 1017.9 |
| 20260906151736 | 77 | 171 | 8.7 | 13.0 | 0.00 | 0.16 | 0.16 | 73 | 1017.9 |
| 20260906151650 | 77 | 186 | 9.6 | 13.0 | 0.00 | 0.16 | 0.16 | 74 | 1017.9 |
| 20260906151545 | 77 | 167 | 9.6 | 13.0 | 0.00 | 0.16 | 0.16 | 74 | 1017.9 |
| 20260906151437 | 77 | 169 | 9.6 | 13.0 | 0.00 | 0.16 | 0.16 | 74 | 1017.9 |
| 20260906151330 | 76 | 183 | 9.6 | 13.0 | 0.00 | 0.16 | 0.16 | 74 | 1017.8 |
| 20260906151231 | 76 | 172 | 8.7 | 12.2 | 0.00 | 0.16 | 0.16 | 75 | 1017.9 |
| 20260906151125 | 76 | 173 | 8.7 | 12.2 | 0.00 | 0.16 | 0.16 | 75 | 1017.8 |
| 20260906151040 | 76 | 164 | 7.8 | 12.2 | 0.00 | 0.16 | 0.16 | 75 | 1017.8 |
| 20260906150955 | 76 | 155 | 7.0 | 12.2 | 0.00 | 0.16 | 0.16 | 75 | 1017.9 |
| 20260906150828 | 76 | 148 | 7.8 | 12.2 | 0.00 | 0.16 | 0.16 | 76 | 1017.9 |
| 20260906150726 | 76 | 171 | 8.7 | 12.2 | 0.00 | 0.16 | 0.16 | 75 | 1017.8 |
| 20260906150643 | 76 | 172 | 7.8 | 12.2 | 0.00 | 0.16 | 0.16 | 75 | 1017.8 |
| 20260906150536 | 76 | 170 | 7.0 | 12.2 | 0.00 | 0.16 | 0.16 | 76 | 1017.9 |
| 20260906150428 | 76 | 153 | 7.0 | 10.4 | 0.00 | 0.16 | 0.16 | 76 | 1017.9 |
| 20260906150321 | 76 | 171 | 6.1 | 10.4 | 0.00 | 0.16 | 0.16 | 77 | 1017.8 |
| 20260906150219 | 76 | 159 | 6.1 | 10.4 | 0.00 | 0.16 | 0.16 | 77 | 1017.7 |
| 20260906150133 | 76 | 153 | 7.0 | 10.4 | 0.00 | 0.16 | 0.16 | 77 | 1017.7 |
| 20260906150025 | 76 | 156 | 7.8 | 10.4 | 0.00 | 0.16 | 0.16 | 77 | 1017.7 |
| 20260906145937 | 76 | 184 | 7.0 | 10.4 | 0.00 | 0.16 | 0.16 | 78 | 1017.7 |
| 20260906145833 | 76 | 176 | 6.1 | 9.6 | 0.00 | 0.16 | 0.16 | 79 | 1017.7 |
| 20260906145726 | 76 | 163 | 6.1 | 9.6 | 0.00 | 0.16 | 0.16 | 79 | 1017.7 |
| 20260906145619 | 75 | 188 | 7.0 | 9.6 | 0.00 | 0.16 | 0.16 | 79 | 1017.7 |
| 20260906145534 | 75 | 186 | 7.0 | 9.6 | 0.00 | 0.16 | 0.16 | 79 | 1017.7 |
| 20260906145428 | 75 | 189 | 7.0 | 9.6 | 0.00 | 0.16 | 0.16 | 79 | 1017.8 |
| 20260906145329 | 75 | 164 | 7.0 | 9.6 | 0.00 | 0.16 | 0.16 | 80 | 1017.7 |
| 20260906145242 | 75 | 162 | 7.0 | 9.6 | 0.00 | 0.16 | 0.16 | 80 | 1017.7 |
| 20260906145118 | 75 | 162 | 7.0 | 9.6 | 0.00 | 0.16 | 0.16 | 80 | 1017.7 |
| 20260906145034 | 75 | 180 | 7.0 | 9.6 | 0.00 | 0.16 | 0.16 | 80 | 1017.8 |
| 20260906144928 | 75 | 196 | 7.8 | 9.6 | 0.00 | 0.16 | 0.16 | 80 | 1017.8 |
| 20260906144825 | 74 | 185 | 7.8 | 9.6 | 0.00 | 0.16 | 0.16 | 80 | 1017.8 |
| 20260906144739 | 74 | 182 | 7.8 | 9.6 | 0.00 | 0.16 | 0.16 | 80 | 1017.8 |
| 20260906144653 | 74 | 187 | 7.8 | 9.6 | 0.00 | 0.16 | 0.16 | 80 | 1017.8 |
| 20260906144530 | 74 | 182 | 7.0 | 9.6 | 0.00 | 0.16 | 0.16 | 81 | 1017.9 |
| 20260906144429 | 74 | 188 | 7.0 | 8.7 | 0.00 | 0.16 | 0.16 | 81 | 1017.9 |
| 20260906144326 | 74 | 184 | 7.0 | 8.7 | 0.00 | 0.16 | 0.16 | 81 | 1017.8 |
| 20260906144240 | 74 | 184 | 7.0 | 8.7 | 0.00 | 0.16 | 0.16 | 81 | 1017.8 |
| 20260906144116 | 74 | 185 | 7.0 | 8.7 | 0.00 | 0.16 | 0.16 | 81 | 1017.8 |
| 20260906144031 | 74 | 189 | 7.0 | 8.7 | 0.00 | 0.16 | 0.16 | 81 | 1017.7 |
| 20260906143925 | 74 | 200 | 7.0 | 9.6 | 0.00 | 0.16 | 0.16 | 81 | 1017.7 |
| 20260906143817 | 74 | 183 | 7.0 | 9.6 | 0.00 | 0.16 | 0.16 | 81 | 1017.7 |
| 20260906143730 | 74 | 215 | 7.0 | 9.6 | 0.00 | 0.16 | 0.16 | 81 | 1017.7 |
| 20260906143648 | 74 | 186 | 7.0 | 9.6 | 0.00 | 0.16 | 0.16 | 81 | 1017.7 |
| 20260906143544 | 74 | 190 | 7.0 | 9.6 | 0.00 | 0.16 | 0.16 | 81 | 1017.7 |
| 20260906143439 | 74 | 205 | 7.0 | 9.6 | 0.00 | 0.16 | 0.16 | 81 | 1017.7 |
| 20260906143335 | 74 | 194 | 7.0 | 9.6 | 0.00 | 0.16 | 0.16 | 81 | 1017.6 |
| 20260906143228 | 74 | 179 | 7.8 | 9.6 | 0.00 | 0.16 | 0.16 | 81 | 1017.7 |
| 20260906143124 | 74 | 196 | 7.8 | 9.6 | 0.00 | 0.16 | 0.16 | 81 | 1017.6 |
| 20260906143019 | 74 | 179 | 7.8 | 9.6 | 0.00 | 0.16 | 0.16 | 81 | 1017.6 |
| 20260906142932 | 74 | 180 | 7.8 | 9.6 | 0.00 | 0.16 | 0.16 | 81 | 1017.6 |
| 20260906142847 | 74 | 177 | 7.0 | 9.6 | 0.00 | 0.16 | 0.16 | 81 | 1017.6 |
| 20260906142723 | 74 | 191 | 7.0 | 9.6 | 0.00 | 0.16 | 0.16 | 82 | 1017.6 |
| 20260906142636 | 74 | 188 | 7.0 | 9.6 | 0.00 | 0.16 | 0.16 | 82 | 1017.6 |
| 20260906142532 | 73 | 190 | 7.8 | 9.6 | 0.00 | 0.16 | 0.16 | 82 | 1017.6 |
| 20260906142425 | 73 | 188 | 7.0 | 9.6 | 0.00 | 0.16 | 0.16 | 82 | 1017.6 |
| 20260906142319 | 73 | 188 | 7.0 | 9.6 | 0.00 | 0.16 | 0.16 | 82 | 1017.6 |
| 20260906142219 | 73 | 190 | 7.0 | 9.6 | 0.00 | 0.16 | 0.16 | 82 | 1017.6 |
| 20260906142133 | 73 | 186 | 7.0 | 9.6 | 0.00 | 0.16 | 0.16 | 82 | 1017.6 |
| 20260906142028 | 73 | 167 | 7.0 | 9.6 | 0.00 | 0.16 | 0.16 | 82 | 1017.6 |
| 20260906141923 | 73 | 180 | 7.0 | 9.6 | 0.00 | 0.16 | 0.16 | 83 | 1017.5 |
| 20260906141824 | 73 | 173 | 7.0 | 8.7 | 0.00 | 0.16 | 0.16 | 82 | 1017.5 |
| 20260906141738 | 73 | 188 | 7.0 | 8.7 | 0.00 | 0.16 | 0.16 | 82 | 1017.5 |
| 20260906141633 | 73 | 196 | 7.0 | 8.7 | 0.00 | 0.16 | 0.16 | 83 | 1017.5 |
| 20260906141529 | 73 | 194 | 6.1 | 8.7 | 0.00 | 0.16 | 0.16 | 83 | 1017.5 |
| 20260906141422 | 73 | 200 | 6.1 | 8.7 | 0.00 | 0.16 | 0.16 | 83 | 1017.4 |
| 20260906141338 | 73 | 197 | 7.0 | 8.7 | 0.00 | 0.16 | 0.16 | 83 | 1017.4 |
| 20260906141231 | 73 | 199 | 7.0 | 8.7 | 0.00 | 0.16 | 0.16 | 82 | 1017.4 |
| 20260906141145 | 73 | 200 | 7.0 | 7.8 | 0.00 | 0.16 | 0.16 | 82 | 1017.4 |
| 20260906141022 | 73 | 190 | 7.0 | 7.8 | 0.00 | 0.16 | 0.16 | 82 | 1017.4 |
| 20260906140923 | 73 | 184 | 7.0 | 8.7 | 0.00 | 0.16 | 0.16 | 82 | 1017.4 |
| 20260906140837 | 73 | 183 | 6.1 | 7.8 | 0.00 | 0.16 | 0.16 | 82 | 1017.4 |
| 20260906140731 | 73 | 200 | 6.1 | 7.8 | 0.00 | 0.16 | 0.16 | 82 | 1017.4 |
| 20260906140627 | 73 | 203 | 6.1 | 7.8 | 0.00 | 0.16 | 0.16 | 82 | 1017.4 |
| 20260906140525 | 73 | 183 | 6.1 | 7.8 | 0.00 | 0.16 | 0.16 | 82 | 1017.4 |
| 20260906140420 | 73 | 185 | 7.0 | 7.8 | 0.00 | 0.16 | 0.16 | 82 | 1017.4 |
| 20260906140337 | 73 | 192 | 6.1 | 7.8 | 0.00 | 0.16 | 0.16 | 82 | 1017.4 |
| 20260906140232 | 73 | 189 | 6.1 | 8.7 | 0.00 | 0.16 | 0.16 | 82 | 1017.4 |
| 20260906140148 | 73 | 188 | 6.1 | 8.7 | 0.00 | 0.16 | 0.16 | 82 | 1017.4 |
| 20260906140024 | 73 | 178 | 6.1 | 8.7 | 0.00 | 0.16 | 0.16 | 82 | 1017.4 |
| 20260906135922 | 73 | 173 | 6.1 | 8.7 | 0.00 | 0.16 | 0.16 | 82 | 1017.4 |
| 20260906135816 | 73 | 209 | 6.1 | 8.7 | 0.00 | 0.16 | 0.16 | 82 | 1017.4 |
| 20260906135732 | 73 | 186 | 6.1 | 8.7 | 0.00 | 0.16 | 0.16 | 82 | 1017.4 |
| 20260906135627 | 72 | 184 | 6.1 | 8.7 | 0.00 | 0.16 | 0.16 | 82 | 1017.4 |
| 20260906135524 | 72 | 182 | 6.1 | 8.7 | 0.00 | 0.16 | 0.16 | 82 | 1017.4 |
| 20260906135418 | 72 | 174 | 6.1 | 8.7 | 0.00 | 0.16 | 0.16 | 82 | 1017.4 |
| 20260906135334 | 72 | 181 | 6.1 | 8.7 | 0.00 | 0.16 | 0.16 | 82 | 1017.3 |
| 20260906135232 | 72 | 191 | 6.1 | 8.7 | 0.00 | 0.16 | 0.16 | 82 | 1017.3 |
| 20260906135127 | 72 | 169 | 6.1 | 8.7 | 0.00 | 0.16 | 0.16 | 82 | 1017.3 |
| 20260906135020 | 72 | 175 | 6.1 | 8.7 | 0.00 | 0.16 | 0.16 | 82 | 1017.3 |
| 20260906134933 | 72 | 178 | 6.1 | 8.7 | 0.00 | 0.16 | 0.16 | 82 | 1017.4 |
| 20260906134826 | 72 | 181 | 6.1 | 8.7 | 0.00 | 0.16 | 0.16 | 82 | 1017.3 |
| 20260906134720 | 72 | 173 | 7.0 | 8.7 | 0.00 | 0.16 | 0.16 | 82 | 1017.3 |
| 20260906134617 | 72 | 157 | 7.0 | 8.7 | 0.00 | 0.16 | 0.16 | 82 | 1017.4 |
| 20260906134533 | 72 | 175 | 7.0 | 8.7 | 0.00 | 0.16 | 0.16 | 82 | 1017.4 |
| 20260906134430 | 72 | 175 | 7.0 | 8.7 | 0.00 | 0.16 | 0.16 | 82 | 1017.3 |
| 20260906134327 | 72 | 164 | 6.1 | 8.7 | 0.00 | 0.16 | 0.16 | 82 | 1017.3 |
| 20260906134241 | 72 | 166 | 7.0 | 8.7 | 0.00 | 0.16 | 0.16 | 82 | 1017.3 |
| 20260906134135 | 72 | 174 | 6.1 | 8.7 | 0.00 | 0.16 | 0.16 | 82 | 1017.3 |
| 20260906134029 | 72 | 183 | 6.1 | 8.7 | 0.00 | 0.16 | 0.16 | 82 | 1017.3 |
| 20260906133923 | 72 | 186 | 6.1 | 9.6 | 0.00 | 0.16 | 0.16 | 82 | 1017.3 |
| 20260906133816 | 72 | 188 | 6.1 | 9.6 | 0.00 | 0.16 | 0.16 | 82 | 1017.3 |
| 20260906133730 | 72 | 167 | 6.1 | 9.6 | 0.00 | 0.16 | 0.16 | 82 | 1017.3 |
| 20260906133631 | 72 | 169 | 7.0 | 9.6 | 0.00 | 0.16 | 0.16 | 82 | 1017.3 |
| 20260906133525 | 72 | 173 | 7.0 | 9.6 | 0.00 | 0.16 | 0.16 | 82 | 1017.3 |
| 20260906133417 | 72 | 175 | 7.0 | 9.6 | 0.00 | 0.16 | 0.16 | 81 | 1017.3 |
| 20260906133331 | 72 | 171 | 7.0 | 9.6 | 0.00 | 0.16 | 0.16 | 82 | 1017.3 |
| 20260906133225 | 72 | 179 | 7.0 | 9.6 | 0.00 | 0.16 | 0.16 | 82 | 1017.3 |
| 20260906133120 | 72 | 172 | 7.0 | 9.6 | 0.00 | 0.16 | 0.16 | 81 | 1017.3 |
| 20260906133017 | 72 | 180 | 7.0 | 11.3 | 0.00 | 0.16 | 0.16 | 82 | 1017.2 |
| 20260906132930 | 72 | 182 | 7.0 | 11.3 | 0.00 | 0.16 | 0.16 | 82 | 1017.3 |
| 20260906132843 | 72 | 214 | 7.0 | 11.3 | 0.00 | 0.16 | 0.16 | 82 | 1017.2 |
| 20260906132736 | 72 | 192 | 7.0 | 11.3 | 0.00 | 0.16 | 0.16 | 81 | 1017.2 |
| 20260906132635 | 72 | 178 | 7.0 | 11.3 | 0.00 | 0.16 | 0.16 | 81 | 1017.2 |
| 20260906132529 | 72 | 179 | 7.0 | 11.3 | 0.00 | 0.16 | 0.16 | 81 | 1017.2 |
| 20260906132423 | 72 | 180 | 7.8 | 11.3 | 0.00 | 0.16 | 0.16 | 81 | 1017.3 |
| 20260906132340 | 72 | 169 | 7.8 | 11.3 | 0.00 | 0.16 | 0.16 | 81 | 1017.3 |
| 20260906132254 | 72 | 178 | 7.8 | 12.2 | 0.00 | 0.16 | 0.16 | 81 | 1017.2 |
| 20260906132150 | 72 | 186 | 7.8 | 12.2 | 0.00 | 0.16 | 0.16 | 81 | 1017.2 |
| 20260906132044 | 72 | 180 | 7.8 | 12.2 | 0.00 | 0.16 | 0.16 | 81 | 1017.1 |
| 20260906131957 | 72 | 182 | 7.8 | 12.2 | 0.00 | 0.16 | 0.16 | 81 | 1017.1 |
| 20260906131828 | 72 | 182 | 7.8 | 12.2 | 0.00 | 0.16 | 0.16 | 81 | 1017.1 |
| 20260906131725 | 72 | 188 | 7.0 | 12.2 | 0.00 | 0.16 | 0.16 | 81 | 1017.1 |
| 20260906131627 | 72 | 173 | 7.8 | 12.2 | 0.00 | 0.16 | 0.16 | 81 | 1017.0 |
| 20260906131521 | 72 | 180 | 8.7 | 12.2 | 0.00 | 0.16 | 0.16 | 81 | 1017.0 |
| 20260906131435 | 72 | 184 | 8.7 | 12.2 | 0.00 | 0.16 | 0.16 | 81 | 1017.0 |
| 20260906131349 | 72 | 188 | 7.8 | 12.2 | 0.00 | 0.16 | 0.16 | 81 | 1017.0 |
| 20260906131219 | 72 | 178 | 7.0 | 10.4 | 0.00 | 0.16 | 0.16 | 81 | 1017.0 |
| 20260906131112 | 72 | 178 | 7.0 | 11.3 | 0.00 | 0.16 | 0.16 | 81 | 1017.0 |
| 20260906131031 | 72 | 171 | 7.8 | 11.3 | 0.00 | 0.16 | 0.16 | 81 | 1017.0 |
| 20260906130931 | 72 | 177 | 7.8 | 11.3 | 0.00 | 0.16 | 0.16 | 81 | 1016.9 |
| 20260906130828 | 72 | 184 | 7.8 | 11.3 | 0.00 | 0.16 | 0.16 | 81 | 1017.0 |
| 20260906130725 | 72 | 184 | 7.8 | 13.0 | 0.00 | 0.16 | 0.16 | 81 | 1016.9 |
| 20260906130619 | 72 | 178 | 7.8 | 13.0 | 0.00 | 0.16 | 0.16 | 81 | 1016.9 |
| 20260906130514 | 72 | 184 | 8.7 | 13.9 | 0.00 | 0.16 | 0.16 | 81 | 1016.9 |
| 20260906130430 | 72 | 182 | 7.8 | 13.9 | 0.00 | 0.16 | 0.16 | 81 | 1016.9 |
| 20260906130327 | 72 | 182 | 7.8 | 13.9 | 0.01 | 0.16 | 0.16 | 80 | 1016.9 |
| 20260906130246 | 72 | 178 | 7.8 | 13.9 | 0.01 | 0.16 | 0.16 | 80 | 1016.9 |
| 20260906130139 | 72 | 189 | 8.7 | 13.9 | 0.02 | 0.16 | 0.16 | 80 | 1016.9 |
| 20260906130035 | 72 | 179 | 8.7 | 13.9 | 0.03 | 0.16 | 0.16 | 80 | 1016.9 |
| 20260906125932 | 72 | 186 | 9.6 | 13.9 | 0.03 | 0.16 | 0.16 | 80 | 1016.8 |
| 20260906125850 | 72 | 183 | 9.6 | 13.9 | 0.04 | 0.16 | 0.16 | 81 | 1016.9 |
| 20260906125725 | 72 | 186 | 11.3 | 13.9 | 0.05 | 0.16 | 0.16 | 81 | 1016.8 |
| 20260906125639 | 72 | 175 | 10.4 | 13.9 | 0.06 | 0.16 | 0.16 | 81 | 1016.8 |
| 20260906125557 | 72 | 170 | 10.4 | 13.9 | 0.06 | 0.16 | 0.16 | 81 | 1016.8 |
| 20260906125432 | 72 | 161 | 10.4 | 13.9 | 0.07 | 0.16 | 0.16 | 81 | 1016.8 |
| 20260906125325 | 72 | 184 | 10.4 | 13.9 | 0.07 | 0.16 | 0.16 | 81 | 1016.7 |
| 20260906125219 | 72 | 165 | 11.3 | 13.9 | 0.07 | 0.16 | 0.16 | 82 | 1016.7 |
| 20260906125133 | 72 | 180 | 11.3 | 14.8 | 0.08 | 0.16 | 0.16 | 82 | 1016.7 |
| 20260906125034 | 72 | 194 | 10.4 | 14.8 | 0.08 | 0.16 | 0.16 | 82 | 1016.7 |
| 20260906124926 | 72 | 197 | 9.6 | 14.8 | 0.08 | 0.16 | 0.16 | 82 | 1016.7 |
| 20260906124820 | 72 | 173 | 9.6 | 16.5 | 0.09 | 0.16 | 0.16 | 82 | 1016.7 |
| 20260906124733 | 72 | 179 | 9.6 | 16.5 | 0.09 | 0.16 | 0.16 | 82 | 1016.6 |
| 20260906124626 | 72 | 186 | 10.4 | 16.5 | 0.09 | 0.16 | 0.16 | 82 | 1016.6 |
| 20260906124541 | 72 | 173 | 11.3 | 16.5 | 0.09 | 0.16 | 0.16 | 82 | 1016.6 |
| 20260906124433 | 72 | 188 | 11.3 | 16.5 | 0.09 | 0.16 | 0.16 | 83 | 1016.6 |
| 20260906124325 | 72 | 190 | 12.2 | 16.5 | 0.09 | 0.16 | 0.16 | 83 | 1016.6 |
| 20260906124219 | 71 | 184 | 12.2 | 16.5 | 0.09 | 0.16 | 0.16 | 83 | 1016.6 |
| 20260906124117 | 71 | 172 | 12.2 | 17.4 | 0.09 | 0.16 | 0.16 | 83 | 1016.5 |
| 20260906124035 | 71 | 188 | 12.2 | 17.4 | 0.09 | 0.16 | 0.16 | 83 | 1016.5 |
| 20260906123928 | 71 | 184 | 12.2 | 17.4 | 0.09 | 0.16 | 0.16 | 83 | 1016.5 |
| 20260906123822 | 71 | 186 | 13.0 | 17.4 | 0.09 | 0.16 | 0.16 | 83 | 1016.4 |
| 20260906123720 | 71 | 197 | 13.9 | 17.4 | 0.09 | 0.16 | 0.16 | 83 | 1016.4 |
| 20260906123634 | 71 | 182 | 13.9 | 17.4 | 0.09 | 0.16 | 0.16 | 84 | 1016.4 |
| 20260906123529 | 71 | 186 | 14.8 | 17.4 | 0.09 | 0.16 | 0.16 | 84 | 1016.4 |
| 20260906123426 | 71 | 184 | 14.8 | 17.4 | 0.09 | 0.16 | 0.16 | 84 | 1016.3 |
| 20260906123343 | 71 | 187 | 14.8 | 17.4 | 0.09 | 0.16 | 0.16 | 84 | 1016.3 |
| 20260906123216 | 71 | 200 | 14.8 | 17.4 | 0.09 | 0.16 | 0.16 | 84 | 1016.3 |
| 20260906123131 | 71 | 189 | 13.9 | 17.4 | 0.09 | 0.16 | 0.16 | 84 | 1016.3 |
| 20260906123028 | 71 | 191 | 13.9 | 17.4 | 0.09 | 0.16 | 0.16 | 84 | 1016.3 |
| 20260906122944 | 71 | 195 | 13.9 | 17.4 | 0.09 | 0.16 | 0.16 | 84 | 1016.2 |
| 20260906122836 | 71 | 182 | 13.9 | 17.4 | 0.09 | 0.16 | 0.16 | 84 | 1016.2 |
| 20260906122753 | 71 | 198 | 14.8 | 17.4 | 0.09 | 0.16 | 0.16 | 84 | 1016.2 |
| 20260906122645 | 71 | 192 | 14.8 | 18.2 | 0.09 | 0.16 | 0.16 | 84 | 1016.2 |
| 20260906122538 | 71 | 183 | 14.8 | 20.0 | 0.09 | 0.16 | 0.16 | 84 | 1016.1 |
| 20260906122451 | 71 | 184 | 14.8 | 20.0 | 0.09 | 0.16 | 0.16 | 84 | 1016.1 |
| 20260906122327 | 71 | 196 | 15.6 | 20.0 | 0.09 | 0.16 | 0.16 | 84 | 1016.1 |
| 20260906122241 | 71 | 168 | 15.6 | 20.0 | 0.09 | 0.16 | 0.16 | 84 | 1016.1 |
| 20260906122137 | 71 | 187 | 14.8 | 22.6 | 0.09 | 0.16 | 0.16 | 84 | 1016.1 |
| 20260906122030 | 71 | 186 | 15.6 | 22.6 | 0.09 | 0.16 | 0.16 | 84 | 1016.0 |
| 20260906121951 | 71 | 179 | 15.6 | 22.6 | 0.09 | 0.16 | 0.16 | 84 | 1016.0 |
| 20260906121846 | 71 | 169 | 15.6 | 22.6 | 0.09 | 0.16 | 0.16 | 84 | 1016.1 |
| 20260906121738 | 71 | 180 | 16.5 | 23.5 | 0.09 | 0.16 | 0.16 | 84 | 1016.0 |
| 20260906121654 | 71 | 189 | 16.5 | 23.5 | 0.09 | 0.16 | 0.16 | 84 | 1015.9 |
| 20260906121529 | 71 | 200 | 16.5 | 26.1 | 0.09 | 0.16 | 0.16 | 84 | 1016.0 |
| 20260906121421 | 71 | 178 | 17.4 | 26.1 | 0.09 | 0.16 | 0.16 | 84 | 1015.9 |
| 20260906121318 | 71 | 181 | 17.4 | 26.1 | 0.09 | 0.16 | 0.16 | 84 | 1015.9 |
| 20260906121231 | 71 | 196 | 18.2 | 26.1 | 0.09 | 0.16 | 0.16 | 84 | 1015.8 |
| 20260906121125 | 71 | 186 | 18.2 | 26.1 | 0.09 | 0.16 | 0.16 | 84 | 1015.8 |
| 20260906121024 | 71 | 191 | 18.2 | 26.1 | 0.09 | 0.16 | 0.16 | 84 | 1015.7 |
| 20260906120920 | 70 | 193 | 19.1 | 26.1 | 0.09 | 0.16 | 0.16 | 84 | 1015.8 |
| 20260906120834 | 70 | 181 | 19.1 | 26.1 | 0.09 | 0.16 | 0.16 | 84 | 1015.7 |
| 20260906120748 | 70 | 193 | 20.0 | 26.1 | 0.09 | 0.16 | 0.16 | 84 | 1015.6 |
| 20260906120642 | 70 | 196 | 20.9 | 26.1 | 0.09 | 0.16 | 0.16 | 84 | 1015.6 |
| 20260906120536 | 70 | 190 | 20.9 | 26.1 | 0.09 | 0.16 | 0.16 | 85 | 1015.5 |
| 20260906120428 | 70 | 184 | 20.9 | 26.1 | 0.08 | 0.15 | 0.15 | 85 | 1015.4 |
| 20260906120325 | 70 | 174 | 20.9 | 24.3 | 0.08 | 0.15 | 0.15 | 85 | 1015.4 |
| 20260906120218 | 70 | 172 | 20.9 | 24.3 | 0.07 | 0.14 | 0.14 | 85 | 1015.5 |
| 20260906120130 | 70 | 194 | 20.9 | 24.3 | 0.07 | 0.14 | 0.14 | 85 | 1015.4 |
| 20260906120050 | 70 | 189 | 21.7 | 24.3 | 0.06 | 0.13 | 0.13 | 85 | 1015.4 |
| 20260906120006 | 70 | 195 | 20.9 | 24.3 | 0.06 | 0.13 | 0.13 | 85 | 1015.5 |
| 20260906115856 | 70 | 198 | 20.0 | 25.2 | 0.05 | 0.12 | 0.12 | 85 | 1015.5 |
| 20260906115749 | 70 | 188 | 19.1 | 24.3 | 0.04 | 0.11 | 0.11 | 85 | 1015.5 |
| 20260906115620 | 70 | 184 | 17.4 | 23.5 | 0.03 | 0.10 | 0.10 | 85 | 1015.6 |
| 20260906115534 | 70 | 196 | 14.8 | 20.9 | 0.03 | 0.10 | 0.10 | 84 | 1015.6 |
| 20260906115427 | 70 | 179 | 12.2 | 19.1 | 0.02 | 0.09 | 0.09 | 84 | 1015.8 |
| 20260906115328 | 70 | 191 | 10.4 | 19.1 | 0.02 | 0.09 | 0.09 | 84 | 1015.7 |
| 20260906115248 | 70 | 159 | 9.6 | 19.1 | 0.02 | 0.09 | 0.09 | 84 | 1015.7 |
| 20260906115140 | 71 | 177 | 8.7 | 15.6 | 0.01 | 0.08 | 0.08 | 83 | 1015.9 |
| 20260906115033 | 71 | 165 | 7.8 | 15.6 | 0.01 | 0.08 | 0.08 | 83 | 1015.9 |
| 20260906114926 | 71 | 179 | 8.7 | 15.6 | 0.01 | 0.08 | 0.08 | 83 | 1016.0 |
| 20260906114840 | 71 | 184 | 8.7 | 15.6 | 0.00 | 0.07 | 0.07 | 82 | 1016.0 |
| 20260906114732 | 71 | 173 | 9.6 | 15.6 | 0.00 | 0.07 | 0.07 | 82 | 1016.0 |
| 20260906114626 | 71 | 200 | 11.3 | 15.6 | 0.00 | 0.07 | 0.07 | 81 | 1016.0 |
| 20260906114525 | 71 | 191 | 12.2 | 15.6 | 0.00 | 0.07 | 0.07 | 81 | 1016.0 |
| 20260906114422 | 71 | 169 | 11.3 | 16.5 | 0.00 | 0.07 | 0.07 | 81 | 1016.0 |
| 20260906114319 | 72 | 193 | 10.4 | 16.5 | 0.00 | 0.07 | 0.07 | 80 | 1016.0 |
| 20260906114213 | 72 | 199 | 9.6 | 16.5 | 0.00 | 0.07 | 0.07 | 80 | 1016.0 |
| 20260906114130 | 72 | 167 | 9.6 | 19.1 | 0.00 | 0.07 | 0.07 | 80 | 1016.0 |
| 20260906114027 | 72 | 171 | 10.4 | 19.1 | 0.00 | 0.07 | 0.07 | 79 | 1016.0 |
| 20260906113921 | 72 | 185 | 11.3 | 19.1 | 0.00 | 0.07 | 0.07 | 79 | 1016.0 |
| 20260906113835 | 72 | 194 | 11.3 | 20.9 | 0.00 | 0.07 | 0.07 | 79 | 1016.0 |
| 20260906113732 | 72 | 188 | 11.3 | 20.9 | 0.00 | 0.07 | 0.07 | 79 | 1016.0 |
| 20260906113625 | 72 | 178 | 12.2 | 20.9 | 0.00 | 0.07 | 0.07 | 79 | 1015.9 |
| 20260906113520 | 72 | 192 | 11.3 | 20.9 | 0.00 | 0.07 | 0.07 | 78 | 1016.0 |
| 20260906113434 | 72 | 175 | 11.3 | 20.9 | 0.00 | 0.07 | 0.07 | 78 | 1016.0 |
| 20260906113329 | 72 | 178 | 12.2 | 20.9 | 0.00 | 0.07 | 0.07 | 78 | 1016.0 |
| 20260906113222 | 72 | 212 | 13.0 | 20.9 | 0.00 | 0.07 | 0.07 | 78 | 1016.0 |
| 20260906113138 | 72 | 184 | 13.9 | 20.9 | 0.00 | 0.07 | 0.07 | 79 | 1016.0 |
| 20260906113057 | 72 | 198 | 14.8 | 20.9 | 0.00 | 0.07 | 0.07 | 79 | 1015.9 |
| 20260906112950 | 72 | 175 | 15.6 | 20.9 | 0.00 | 0.07 | 0.07 | 79 | 1016.0 |
| 20260906112827 | 72 | 161 | 14.8 | 19.1 | 0.00 | 0.07 | 0.07 | 80 | 1015.9 |
| 20260906112720 | 72 | 175 | 14.8 | 19.1 | 0.00 | 0.07 | 0.07 | 80 | 1016.0 |
| 20260906112640 | 72 | 181 | 15.6 | 19.1 | 0.00 | 0.07 | 0.07 | 81 | 1016.0 |
| 20260906112537 | 72 | 161 | 14.8 | 19.1 | 0.00 | 0.07 | 0.07 | 81 | 1016.0 |
| 20260906112432 | 71 | 166 | 14.8 | 19.1 | 0.00 | 0.07 | 0.07 | 82 | 1016.0 |
| 20260906112346 | 71 | 186 | 14.8 | 20.0 | 0.00 | 0.07 | 0.07 | 82 | 1016.0 |
| 20260906112218 | 71 | 179 | 13.9 | 19.1 | 0.00 | 0.07 | 0.07 | 83 | 1016.0 |
| 20260906112132 | 71 | 169 | 13.9 | 19.1 | 0.00 | 0.07 | 0.07 | 83 | 1016.0 |
| 20260906112025 | 71 | 173 | 13.9 | 19.1 | 0.00 | 0.07 | 0.07 | 83 | 1016.0 |
| 20260906111924 | 71 | 169 | 13.0 | 17.4 | 0.00 | 0.07 | 0.07 | 83 | 1016.0 |
| 20260906111820 | 71 | 186 | 13.0 | 17.4 | 0.00 | 0.07 | 0.07 | 83 | 1016.0 |
| 20260906111734 | 71 | 175 | 12.2 | 16.5 | 0.00 | 0.07 | 0.07 | 83 | 1016.0 |
| 20260906111656 | 71 | 187 | 12.2 | 16.5 | 0.00 | 0.07 | 0.07 | 84 | 1016.0 |
| 20260906111613 | 71 | 165 | 13.0 | 16.5 | 0.00 | 0.07 | 0.07 | 84 | 1016.1 |
| 20260906111510 | 71 | 172 | 13.0 | 16.5 | 0.00 | 0.07 | 0.07 | 84 | 1016.1 |
| 20260906111403 | 71 | 163 | 12.2 | 16.5 | 0.00 | 0.07 | 0.07 | 84 | 1016.1 |
| 20260906111255 | 71 | 174 | 12.2 | 16.5 | 0.00 | 0.07 | 0.07 | 84 | 1016.1 |
| 20260906111128 | 71 | 182 | 12.2 | 16.5 | 0.00 | 0.07 | 0.07 | 84 | 1016.0 |
| 20260906111026 | 71 | 200 | 12.2 | 16.5 | 0.00 | 0.07 | 0.07 | 84 | 1016.1 |
| 20260906110939 | 71 | 175 | 13.0 | 16.5 | 0.00 | 0.07 | 0.07 | 84 | 1016.0 |
| 20260906110832 | 71 | 160 | 13.0 | 16.5 | 0.00 | 0.07 | 0.07 | 84 | 1016.1 |
| 20260906110746 | 71 | 173 | 13.0 | 16.5 | 0.00 | 0.07 | 0.07 | 84 | 1016.0 |
| 20260906110618 | 71 | 171 | 12.2 | 16.5 | 0.00 | 0.07 | 0.07 | 84 | 1016.1 |
| 20260906110515 | 71 | 177 | 12.2 | 16.5 | 0.00 | 0.07 | 0.07 | 84 | 1016.0 |
| 20260906110434 | 70 | 161 | 13.0 | 16.5 | 0.00 | 0.07 | 0.07 | 84 | 1016.1 |
| 20260906110327 | 71 | 185 | 13.0 | 16.5 | 0.00 | 0.07 | 0.07 | 84 | 1016.1 |
| 20260906110241 | 71 | 192 | 13.0 | 16.5 | 0.00 | 0.07 | 0.07 | 84 | 1016.0 |
| 20260906110134 | 71 | 184 | 12.2 | 15.6 | 0.00 | 0.07 | 0.07 | 84 | 1016.1 |
| 20260906110029 | 71 | 182 | 12.2 | 14.8 | 0.00 | 0.07 | 0.07 | 84 | 1016.0 |
| 20260906105942 | 71 | 190 | 12.2 | 16.5 | 0.00 | 0.07 | 0.07 | 84 | 1016.0 |
| 20260906105835 | 71 | 180 | 11.3 | 16.5 | 0.00 | 0.07 | 0.07 | 84 | 1016.0 |
| 20260906105729 | 71 | 188 | 11.3 | 16.5 | 0.00 | 0.07 | 0.07 | 84 | 1016.0 |
| 20260906105643 | 71 | 188 | 11.3 | 16.5 | 0.00 | 0.07 | 0.07 | 84 | 1016.0 |
| 20260906105521 | 71 | 180 | 12.2 | 16.5 | 0.00 | 0.07 | 0.07 | 84 | 1016.0 |
| 20260906105434 | 71 | 185 | 12.2 | 16.5 | 0.00 | 0.07 | 0.07 | 84 | 1016.0 |
| 20260906105328 | 71 | 171 | 12.2 | 16.5 | 0.00 | 0.07 | 0.07 | 84 | 1016.1 |
| 20260906105221 | 71 | 186 | 12.2 | 16.5 | 0.00 | 0.07 | 0.07 | 84 | 1016.1 |
| 20260906105118 | 71 | 184 | 11.3 | 16.5 | 0.00 | 0.07 | 0.07 | 84 | 1016.0 |
| 20260906105034 | 71 | 178 | 11.3 | 16.5 | 0.00 | 0.07 | 0.07 | 83 | 1016.0 |
| 20260906104927 | 71 | 175 | 11.3 | 16.5 | 0.00 | 0.07 | 0.07 | 83 | 1016.0 |
| 20260906104823 | 71 | 181 | 12.2 | 16.5 | 0.00 | 0.07 | 0.07 | 83 | 1015.9 |
| 20260906104725 | 71 | 188 | 12.2 | 16.5 | 0.00 | 0.07 | 0.07 | 83 | 1015.9 |
| 20260906104617 | 71 | 179 | 12.2 | 16.5 | 0.00 | 0.07 | 0.07 | 83 | 1015.9 |
| 20260906104531 | 71 | 171 | 12.2 | 16.5 | 0.00 | 0.07 | 0.07 | 83 | 1015.9 |
| 20260906104423 | 71 | 174 | 13.0 | 16.5 | 0.00 | 0.07 | 0.07 | 83 | 1015.9 |
| 20260906104319 | 71 | 192 | 13.0 | 16.5 | 0.00 | 0.07 | 0.07 | 83 | 1015.9 |
| 20260906104216 | 71 | 184 | 13.0 | 16.5 | 0.00 | 0.07 | 0.07 | 83 | 1015.9 |
| 20260906104132 | 71 | 185 | 12.2 | 15.6 | 0.00 | 0.07 | 0.07 | 83 | 1015.9 |
| 20260906104032 | 71 | 193 | 13.0 | 15.6 | 0.00 | 0.07 | 0.07 | 83 | 1016.0 |
| 20260906103927 | 71 | 187 | 13.0 | 14.8 | 0.00 | 0.07 | 0.07 | 83 | 1016.0 |
| 20260906103824 | 71 | 192 | 13.0 | 15.6 | 0.00 | 0.07 | 0.07 | 83 | 1016.0 |
| 20260906103717 | 71 | 188 | 12.2 | 14.8 | 0.00 | 0.07 | 0.07 | 83 | 1015.9 |
| 20260906103630 | 71 | 181 | 12.2 | 14.8 | 0.00 | 0.07 | 0.07 | 83 | 1016.0 |
| 20260906103528 | 71 | 190 | 12.2 | 14.8 | 0.00 | 0.07 | 0.07 | 83 | 1016.0 |
| 20260906103421 | 71 | 193 | 11.3 | 14.8 | 0.00 | 0.07 | 0.07 | 83 | 1016.0 |
| 20260906103338 | 71 | 184 | 11.3 | 14.8 | 0.00 | 0.07 | 0.07 | 83 | 1016.0 |
| 20260906103233 | 71 | 192 | 11.3 | 13.9 | 0.00 | 0.07 | 0.07 | 83 | 1016.0 |
| 20260906103127 | 71 | 188 | 11.3 | 14.8 | 0.00 | 0.07 | 0.07 | 83 | 1016.0 |
| 20260906103026 | 71 | 180 | 11.3 | 14.8 | 0.00 | 0.07 | 0.07 | 82 | 1016.0 |
| 20260906102925 | 71 | 187 | 10.4 | 14.8 | 0.00 | 0.07 | 0.07 | 82 | 1016.0 |
| 20260906102819 | 71 | 186 | 10.4 | 14.8 | 0.00 | 0.07 | 0.07 | 82 | 1016.0 |
| 20260906102733 | 71 | 178 | 10.4 | 14.8 | 0.00 | 0.07 | 0.07 | 82 | 1016.0 |
| 20260906102629 | 71 | 210 | 11.3 | 14.8 | 0.00 | 0.07 | 0.07 | 82 | 1016.0 |
| 20260906102548 | 71 | 180 | 11.3 | 14.8 | 0.00 | 0.07 | 0.07 | 82 | 1016.0 |
| 20260906102438 | 71 | 182 | 11.3 | 14.8 | 0.00 | 0.07 | 0.07 | 82 | 1016.1 |
| 20260906102352 | 71 | 178 | 10.4 | 14.8 | 0.00 | 0.07 | 0.07 | 82 | 1016.1 |
| 20260906102228 | 71 | 193 | 9.6 | 13.9 | 0.00 | 0.07 | 0.07 | 82 | 1016.1 |
| 20260906102126 | 71 | 186 | 9.6 | 13.9 | 0.00 | 0.07 | 0.07 | 82 | 1016.1 |
| 20260906102024 | 71 | 176 | 9.6 | 13.9 | 0.00 | 0.07 | 0.07 | 82 | 1016.1 |
| 20260906101923 | 71 | 168 | 9.6 | 14.8 | 0.00 | 0.07 | 0.07 | 82 | 1016.0 |
| 20260906101838 | 71 | 188 | 10.4 | 14.8 | 0.00 | 0.07 | 0.07 | 82 | 1016.1 |
| 20260906101733 | 71 | 178 | 10.4 | 14.8 | 0.00 | 0.07 | 0.07 | 82 | 1016.1 |
| 20260906101629 | 71 | 160 | 10.4 | 14.8 | 0.00 | 0.07 | 0.07 | 82 | 1016.1 |
| 20260906101531 | 71 | 168 | 10.4 | 14.8 | 0.00 | 0.07 | 0.07 | 82 | 1016.1 |
| 20260906101427 | 71 | 167 | 9.6 | 14.8 | 0.00 | 0.07 | 0.07 | 82 | 1016.1 |
| 20260906101319 | 71 | 166 | 9.6 | 14.8 | 0.00 | 0.07 | 0.07 | 82 | 1016.2 |
| 20260906101233 | 71 | 165 | 9.6 | 14.8 | 0.00 | 0.07 | 0.07 | 82 | 1016.1 |
| 20260906101147 | 71 | 171 | 10.4 | 15.6 | 0.00 | 0.07 | 0.07 | 82 | 1016.2 |
| 20260906101024 | 71 | 180 | 10.4 | 15.6 | 0.00 | 0.07 | 0.07 | 82 | 1016.2 |
| 20260906100917 | 71 | 164 | 10.4 | 17.4 | 0.00 | 0.07 | 0.07 | 82 | 1016.1 |
| 20260906100831 | 71 | 172 | 10.4 | 17.4 | 0.00 | 0.07 | 0.07 | 82 | 1016.1 |
| 20260906100745 | 71 | 190 | 9.6 | 19.1 | 0.00 | 0.07 | 0.07 | 82 | 1016.1 |
| 20260906100638 | 71 | 182 | 9.6 | 19.1 | 0.00 | 0.07 | 0.07 | 82 | 1016.1 |
| 20260906100555 | 71 | 169 | 10.4 | 19.1 | 0.00 | 0.07 | 0.07 | 82 | 1016.1 |
| 20260906100431 | 71 | 174 | 10.4 | 19.1 | 0.00 | 0.07 | 0.07 | 82 | 1016.1 |
| 20260906100326 | 71 | 172 | 10.4 | 19.1 | 0.00 | 0.07 | 0.07 | 82 | 1016.1 |
| 20260906100240 | 71 | 184 | 11.3 | 19.1 | 0.00 | 0.07 | 0.07 | 82 | 1016.1 |
| 20260906100132 | 71 | 175 | 12.2 | 19.1 | 0.00 | 0.07 | 0.07 | 82 | 1016.1 |
| 20260906100027 | 71 | 182 | 12.2 | 19.1 | 0.00 | 0.07 | 0.07 | 81 | 1016.1 |
| 20260906095923 | 71 | 195 | 13.0 | 19.1 | 0.00 | 0.07 | 0.07 | 81 | 1016.1 |
| 20260906095818 | 71 | 170 | 13.9 | 19.1 | 0.00 | 0.07 | 0.07 | 81 | 1016.0 |
| 20260906095731 | 71 | 165 | 14.8 | 19.1 | 0.00 | 0.07 | 0.07 | 81 | 1016.0 |
| 20260906095628 | 71 | 179 | 15.6 | 19.1 | 0.00 | 0.07 | 0.07 | 81 | 1016.0 |
| 20260906095528 | 71 | 201 | 15.6 | 19.1 | 0.00 | 0.07 | 0.07 | 81 | 1016.0 |
| 20260906095421 | 71 | 190 | 14.8 | 19.1 | 0.00 | 0.07 | 0.07 | 81 | 1016.0 |
| 20260906095318 | 71 | 186 | 14.8 | 19.1 | 0.00 | 0.07 | 0.07 | 81 | 1016.0 |
| 20260906095232 | 71 | 199 | 13.9 | 19.1 | 0.00 | 0.07 | 0.07 | 81 | 1016.0 |
| 20260906095146 | 71 | 201 | 13.9 | 19.1 | 0.00 | 0.07 | 0.07 | 81 | 1016.0 |
| 20260906095027 | 71 | 190 | 13.9 | 19.1 | 0.00 | 0.07 | 0.07 | 81 | 1015.9 |
| 20260906094920 | 71 | 190 | 13.9 | 19.1 | 0.01 | 0.07 | 0.07 | 81 | 1016.0 |
| 20260906094820 | 71 | 185 | 14.8 | 19.1 | 0.01 | 0.07 | 0.07 | 81 | 1016.0 |
| 20260906094735 | 71 | 194 | 14.8 | 19.1 | 0.02 | 0.07 | 0.07 | 81 | 1016.0 |
| 20260906094648 | 71 | 192 | 14.8 | 19.1 | 0.03 | 0.07 | 0.07 | 81 | 1015.9 |
| 20260906094525 | 71 | 186 | 14.8 | 19.1 | 0.04 | 0.07 | 0.07 | 81 | 1015.9 |
| 20260906094418 | 71 | 201 | 13.9 | 19.1 | 0.04 | 0.07 | 0.07 | 81 | 1015.8 |
| 20260906094332 | 71 | 198 | 13.9 | 19.1 | 0.05 | 0.07 | 0.07 | 81 | 1015.9 |
| 20260906094224 | 71 | 192 | 13.9 | 18.2 | 0.05 | 0.07 | 0.07 | 81 | 1015.9 |
| 20260906094120 | 71 | 184 | 13.9 | 20.9 | 0.05 | 0.07 | 0.07 | 82 | 1015.9 |
| 20260906094036 | 71 | 189 | 13.9 | 20.9 | 0.05 | 0.07 | 0.07 | 82 | 1015.9 |
| 20260906093951 | 71 | 186 | 14.8 | 20.9 | 0.05 | 0.07 | 0.07 | 82 | 1015.8 |
| 20260906093828 | 71 | 179 | 14.8 | 20.9 | 0.05 | 0.07 | 0.07 | 82 | 1015.8 |
| 20260906093725 | 71 | 167 | 14.8 | 20.9 | 0.05 | 0.07 | 0.07 | 82 | 1015.7 |
| 20260906093639 | 71 | 188 | 14.8 | 20.9 | 0.05 | 0.07 | 0.07 | 82 | 1015.7 |
| 20260906093535 | 71 | 182 | 15.6 | 20.9 | 0.05 | 0.07 | 0.07 | 82 | 1015.7 |
| 20260906093428 | 71 | 160 | 15.6 | 20.9 | 0.05 | 0.07 | 0.07 | 82 | 1015.7 |
| 20260906093321 | 71 | 182 | 15.6 | 20.9 | 0.06 | 0.07 | 0.07 | 82 | 1015.8 |
| 20260906093235 | 71 | 186 | 14.8 | 20.9 | 0.06 | 0.07 | 0.07 | 82 | 1015.8 |
| 20260906093129 | 71 | 196 | 14.8 | 22.6 | 0.06 | 0.07 | 0.07 | 82 | 1015.8 |
| 20260906093026 | 71 | 184 | 13.9 | 22.6 | 0.06 | 0.07 | 0.07 | 81 | 1015.7 |
| 20260906092920 | 71 | 188 | 15.6 | 22.6 | 0.07 | 0.07 | 0.07 | 81 | 1015.7 |
| 20260906092833 | 71 | 185 | 15.6 | 22.6 | 0.07 | 0.07 | 0.07 | 81 | 1015.7 |
| 20260906092727 | 71 | 198 | 16.5 | 22.6 | 0.07 | 0.07 | 0.07 | 81 | 1015.7 |
| 20260906092641 | 71 | 182 | 17.4 | 22.6 | 0.07 | 0.07 | 0.07 | 81 | 1015.7 |
| 20260906092538 | 71 | 197 | 16.5 | 22.6 | 0.07 | 0.07 | 0.07 | 81 | 1015.7 |
| 20260906092453 | 72 | 191 | 17.4 | 22.6 | 0.07 | 0.07 | 0.07 | 81 | 1015.6 |
| 20260906092324 | 72 | 186 | 18.2 | 22.6 | 0.07 | 0.07 | 0.07 | 81 | 1015.7 |
| 20260906092217 | 72 | 180 | 17.4 | 22.6 | 0.07 | 0.07 | 0.07 | 81 | 1015.6 |
| 20260906092133 | 72 | 197 | 16.5 | 21.7 | 0.07 | 0.07 | 0.07 | 81 | 1015.7 |
| 20260906092033 | 72 | 190 | 16.5 | 21.7 | 0.07 | 0.07 | 0.07 | 81 | 1015.8 |
| 20260906091925 | 72 | 192 | 16.5 | 21.7 | 0.07 | 0.07 | 0.07 | 81 | 1015.8 |
| 20260906091839 | 72 | 201 | 16.5 | 21.7 | 0.07 | 0.07 | 0.07 | 81 | 1015.8 |
| 20260906091753 | 72 | 172 | 17.4 | 21.7 | 0.07 | 0.07 | 0.07 | 81 | 1015.8 |
| 20260906091630 | 72 | 186 | 17.4 | 23.5 | 0.07 | 0.07 | 0.07 | 81 | 1015.8 |
| 20260906091528 | 72 | 194 | 16.5 | 24.3 | 0.07 | 0.07 | 0.07 | 81 | 1015.9 |
| 20260906091421 | 72 | 176 | 15.6 | 24.3 | 0.07 | 0.07 | 0.07 | 81 | 1015.8 |
| 20260906091316 | 72 | 189 | 16.5 | 24.3 | 0.07 | 0.07 | 0.07 | 81 | 1015.8 |
| 20260906091233 | 72 | 181 | 17.4 | 24.3 | 0.07 | 0.07 | 0.07 | 81 | 1015.8 |
| 20260906091130 | 72 | 186 | 17.4 | 24.3 | 0.07 | 0.07 | 0.07 | 81 | 1015.9 |
| 20260906091026 | 72 | 190 | 17.4 | 24.3 | 0.07 | 0.07 | 0.07 | 81 | 1015.9 |
| 20260906090922 | 72 | 177 | 18.2 | 24.3 | 0.07 | 0.07 | 0.07 | 80 | 1016.0 |
| 20260906090836 | 72 | 176 | 18.2 | 26.1 | 0.07 | 0.07 | 0.07 | 80 | 1015.9 |
| 20260906090728 | 72 | 184 | 19.1 | 26.1 | 0.07 | 0.07 | 0.07 | 80 | 1015.9 |
| 20260906090622 | 72 | 199 | 19.1 | 26.1 | 0.07 | 0.07 | 0.07 | 80 | 1015.9 |
| 20260906090520 | 72 | 186 | 19.1 | 26.1 | 0.07 | 0.07 | 0.07 | 80 | 1015.9 |
| 20260906090432 | 72 | 192 | 19.1 | 26.1 | 0.07 | 0.07 | 0.07 | 80 | 1015.8 |
| 20260906090331 | 72 | 161 | 18.2 | 26.1 | 0.07 | 0.07 | 0.07 | 80 | 1015.9 |
| 20260906090228 | 72 | 180 | 18.2 | 26.1 | 0.07 | 0.07 | 0.07 | 80 | 1015.8 |
| 20260906090124 | 72 | 183 | 18.2 | 26.1 | 0.07 | 0.07 | 0.07 | 80 | 1015.8 |
| 20260906090019 | 72 | 173 | 19.1 | 26.1 | 0.07 | 0.07 | 0.07 | 80 | 1015.9 |
| 20260906085932 | 72 | 184 | 20.0 | 26.1 | 0.07 | 0.07 | 0.07 | 80 | 1015.8 |
| 20260906085825 | 72 | 194 | 20.0 | 26.1 | 0.07 | 0.07 | 0.07 | 80 | 1015.8 |
| 20260906085719 | 72 | 188 | 19.1 | 23.5 | 0.07 | 0.07 | 0.07 | 80 | 1015.8 |
| 20260906085620 | 72 | 180 | 18.2 | 23.5 | 0.07 | 0.07 | 0.07 | 80 | 1015.7 |
| 20260906085535 | 72 | 179 | 19.1 | 23.5 | 0.07 | 0.07 | 0.07 | 80 | 1015.8 |
| 20260906085427 | 72 | 188 | 19.1 | 23.5 | 0.07 | 0.07 | 0.07 | 80 | 1015.8 |
| 20260906085320 | 72 | 179 | 18.2 | 25.2 | 0.07 | 0.07 | 0.07 | 80 | 1015.8 |
| 20260906085234 | 72 | 184 | 17.4 | 25.2 | 0.07 | 0.07 | 0.07 | 80 | 1015.8 |
| 20260906085130 | 72 | 171 | 16.5 | 24.3 | 0.07 | 0.07 | 0.07 | 80 | 1015.9 |
| 20260906085024 | 72 | 176 | 17.4 | 24.3 | 0.07 | 0.07 | 0.07 | 80 | 1015.9 |
| 20260906084937 | 72 | 172 | 17.4 | 24.3 | 0.06 | 0.06 | 0.06 | 80 | 1015.9 |
| 20260906084830 | 72 | 157 | 18.2 | 24.3 | 0.06 | 0.06 | 0.06 | 80 | 1015.9 |
| 20260906084722 | 72 | 167 | 19.1 | 24.3 | 0.05 | 0.05 | 0.05 | 79 | 1015.9 |
| 20260906084620 | 72 | 175 | 18.2 | 24.3 | 0.04 | 0.04 | 0.04 | 79 | 1015.8 |
| 20260906084538 | 72 | 168 | 18.2 | 24.3 | 0.03 | 0.03 | 0.03 | 79 | 1015.8 |
| 20260906084432 | 72 | 188 | 16.5 | 24.3 | 0.02 | 0.02 | 0.02 | 79 | 1015.8 |
| 20260906084326 | 72 | 175 | 14.8 | 19.1 | 0.02 | 0.02 | 0.02 | 79 | 1015.8 |
| 20260906084240 | 72 | 177 | 13.9 | 19.1 | 0.02 | 0.02 | 0.02 | 79 | 1015.9 |
| 20260906084132 | 72 | 165 | 13.0 | 19.1 | 0.02 | 0.02 | 0.02 | 79 | 1016.0 |
| 20260906084029 | 72 | 169 | 11.3 | 19.1 | 0.02 | 0.02 | 0.02 | 79 | 1016.0 |
| 20260906083944 | 72 | 170 | 10.4 | 19.1 | 0.02 | 0.02 | 0.02 | 79 | 1016.1 |
| 20260906083836 | 72 | 165 | 11.3 | 19.1 | 0.02 | 0.02 | 0.02 | 78 | 1016.0 |
| 20260906083728 | 72 | 124 | 12.2 | 19.1 | 0.02 | 0.02 | 0.02 | 78 | 1016.1 |
| 20260906083645 | 72 | 157 | 12.2 | 19.1 | 0.02 | 0.02 | 0.02 | 78 | 1016.1 |
| 20260906083603 | 72 | 159 | 12.2 | 19.1 | 0.02 | 0.02 | 0.02 | 78 | 1016.1 |
| 20260906083456 | 72 | 167 | 13.9 | 19.1 | 0.01 | 0.01 | 0.01 | 78 | 1016.0 |
| 20260906083329 | 72 | 171 | 13.9 | 19.1 | 0.01 | 0.01 | 0.01 | 78 | 1016.0 |
| 20260906083225 | 73 | 162 | 13.0 | 19.1 | 0.01 | 0.01 | 0.01 | 78 | 1016.0 |
| 20260906083139 | 73 | 174 | 13.0 | 19.1 | 0.01 | 0.01 | 0.01 | 78 | 1016.0 |
| 20260906083035 | 73 | 159 | 13.9 | 19.1 | 0.01 | 0.01 | 0.01 | 77 | 1016.0 |
| 20260906082948 | 73 | 160 | 13.9 | 19.1 | 0.00 | 0.00 | 0.00 | 77 | 1016.0 |
| 20260906082819 | 73 | 158 | 13.0 | 19.1 | 0.00 | 0.00 | 0.00 | 77 | 1016.1 |
| 20260906082732 | 73 | 159 | 12.2 | 19.1 | 0.00 | 0.00 | 0.00 | 77 | 1016.0 |
| 20260906082646 | 73 | 161 | 13.0 | 19.1 | 0.00 | 0.00 | 0.00 | 77 | 1016.1 |
| 20260906082544 | 73 | 175 | 13.9 | 19.1 | 0.00 | 0.00 | 0.00 | 77 | 1016.0 |
| 20260906082423 | 73 | 152 | 14.8 | 19.1 | 0.00 | 0.00 | 0.00 | 76 | 1016.0 |
| 20260906082337 | 73 | 161 | 14.8 | 19.1 | 0.00 | 0.00 | 0.00 | 76 | 1016.0 |
| 20260906082229 | 73 | 165 | 13.9 | 19.1 | 0.00 | 0.00 | 0.00 | 76 | 1015.9 |
| 20260906082142 | 73 | 182 | 13.0 | 19.1 | 0.00 | 0.00 | 0.00 | 76 | 1015.9 |
| 20260906082056 | 73 | 164 | 12.2 | 18.2 | 0.00 | 0.00 | 0.00 | 76 | 1016.0 |
| 20260906081926 | 73 | 166 | 12.2 | 17.4 | 0.00 | 0.00 | 0.00 | 76 | 1016.0 |
| 20260906081841 | 73 | 167 | 12.2 | 17.4 | 0.00 | 0.00 | 0.00 | 75 | 1016.0 |
| 20260906081737 | 73 | 168 | 12.2 | 19.1 | 0.00 | 0.00 | 0.00 | 75 | 1016.0 |
| 20260906081632 | 74 | 169 | 12.2 | 19.1 | 0.00 | 0.00 | 0.00 | 75 | 1016.1 |
| 20260906081534 | 74 | 179 | 13.0 | 19.1 | 0.00 | 0.00 | 0.00 | 75 | 1016.1 |
| 20260906081431 | 74 | 173 | 13.0 | 26.1 | 0.00 | 0.00 | 0.00 | 75 | 1016.1 |
| 20260906081344 | 74 | 180 | 13.0 | 26.1 | 0.00 | 0.00 | 0.00 | 74 | 1016.1 |
| 20260906081217 | 74 | 166 | 13.0 | 26.1 | 0.00 | 0.00 | 0.00 | 74 | 1016.1 |
| 20260906081131 | 74 | 169 | 13.9 | 26.1 | 0.00 | 0.00 | 0.00 | 74 | 1016.1 |
| 20260906081027 | 74 | 142 | 13.9 | 26.1 | 0.00 | 0.00 | 0.00 | 73 | 1016.0 |
| 20260906080918 | 74 | 162 | 13.9 | 26.1 | 0.00 | 0.00 | 0.00 | 73 | 1016.1 |
| 20260906080832 | 74 | 148 | 13.9 | 26.1 | 0.00 | 0.00 | 0.00 | 73 | 1016.1 |
| 20260906080726 | 74 | 170 | 14.8 | 26.1 | 0.00 | 0.00 | 0.00 | 73 | 1016.1 |
| 20260906080621 | 74 | 173 | 17.4 | 26.1 | 0.00 | 0.00 | 0.00 | 73 | 1016.1 |
| 20260906080526 | 74 | 165 | 18.2 | 26.1 | 0.00 | 0.00 | 0.00 | 73 | 1016.0 |
| 20260906080418 | 74 | 184 | 17.4 | 25.2 | 0.00 | 0.00 | 0.00 | 73 | 1016.0 |
| 20260906080335 | 75 | 169 | 19.1 | 25.2 | 0.00 | 0.00 | 0.00 | 72 | 1016.0 |
| 20260906080229 | 75 | 161 | 20.0 | 25.2 | 0.00 | 0.00 | 0.00 | 72 | 1016.0 |
| 20260906080126 | 75 | 176 | 19.1 | 25.2 | 0.00 | 0.00 | 0.00 | 72 | 1015.9 |
| 20260906080044 | 75 | 166 | 18.2 | 25.2 | 0.00 | 0.00 | 0.00 | 72 | 1015.8 |
| 20260906075922 | 75 | 182 | 15.6 | 25.2 | 0.00 | 0.00 | 0.00 | 72 | 1015.9 |
| 20260906075816 | 75 | 167 | 13.9 | 25.2 | 0.00 | 0.00 | 0.00 | 72 | 1016.0 |
| 20260906075717 | 75 | 155 | 13.0 | 25.2 | 0.00 | 0.00 | 0.00 | 72 | 1016.0 |
| 20260906075634 | 75 | 159 | 14.8 | 25.2 | 0.00 | 0.00 | 0.00 | 71 | 1016.1 |
| 20260906075529 | 75 | 174 | 16.5 | 25.2 | 0.00 | 0.00 | 0.00 | 71 | 1016.1 |
| 20260906075428 | 75 | 170 | 16.5 | 25.2 | 0.00 | 0.00 | 0.00 | 71 | 1016.1 |
| 20260906075322 | 75 | 194 | 16.5 | 25.2 | 0.00 | 0.00 | 0.00 | 71 | 1016.1 |
| 20260906075218 | 75 | 170 | 17.4 | 25.2 | 0.00 | 0.00 | 0.00 | 70 | 1016.0 |
| 20260906075131 | 75 | 178 | 17.4 | 25.2 | 0.00 | 0.00 | 0.00 | 70 | 1016.0 |
| 20260906075029 | 75 | 175 | 16.5 | 25.2 | 0.00 | 0.00 | 0.00 | 70 | 1016.1 |
| 20260906074925 | 76 | 176 | 18.2 | 26.1 | 0.00 | 0.00 | 0.00 | 69 | 1016.0 |
| 20260906074824 | 76 | 173 | 20.0 | 26.1 | 0.00 | 0.00 | 0.00 | 69 | 1016.0 |
| 20260906074717 | 76 | 182 | 19.1 | 26.1 | 0.00 | 0.00 | 0.00 | 69 | 1016.0 |
| 20260906074631 | 76 | 175 | 17.4 | 26.1 | 0.00 | 0.00 | 0.00 | 69 | 1015.9 |
| 20260906074525 | 76 | 174 | 14.8 | 26.1 | 0.00 | 0.00 | 0.00 | 69 | 1016.0 |
| 20260906074418 | 76 | 143 | 16.5 | 26.9 | 0.00 | 0.00 | 0.00 | 69 | 1016.1 |
| 20260906074333 | 76 | 189 | 17.4 | 26.9 | 0.00 | 0.00 | 0.00 | 69 | 1016.1 |
| 20260906074227 | 76 | 190 | 18.2 | 26.9 | 0.00 | 0.00 | 0.00 | 68 | 1016.1 |
| 20260906074122 | 76 | 179 | 19.1 | 26.9 | 0.00 | 0.00 | 0.00 | 68 | 1016.0 |
| 20260906074019 | 76 | 183 | 19.1 | 26.9 | 0.00 | 0.00 | 0.00 | 68 | 1016.2 |
| 20260906073937 | 76 | 196 | 19.1 | 26.9 | 0.00 | 0.00 | 0.00 | 68 | 1016.1 |
| 20260906073833 | 76 | 175 | 18.2 | 26.9 | 0.00 | 0.00 | 0.00 | 69 | 1016.1 |
| 20260906073727 | 76 | 171 | 16.5 | 26.9 | 0.00 | 0.00 | 0.00 | 69 | 1015.9 |
| 20260906073624 | 75 | 184 | 18.2 | 26.9 | 0.00 | 0.00 | 0.00 | 69 | 1016.1 |
| 20260906073522 | 75 | 162 | 20.0 | 26.9 | 0.00 | 0.00 | 0.00 | 70 | 1016.0 |
| 20260906073435 | 75 | 165 | 20.0 | 27.8 | 0.00 | 0.00 | 0.00 | 71 | 1015.9 |
| 20260906073328 | 75 | 189 | 18.2 | 26.9 | 0.00 | 0.00 | 0.00 | 72 | 1016.0 |
| 20260906073223 | 75 | 198 | 17.4 | 26.9 | 0.00 | 0.00 | 0.00 | 72 | 1016.1 |
| 20260906073120 | 75 | 183 | 19.1 | 26.9 | 0.00 | 0.00 | 0.00 | 72 | 1016.1 |
| 20260906073035 | 75 | 190 | 20.0 | 26.9 | 0.00 | 0.00 | 0.00 | 71 | 1016.0 |
| 20260906072948 | 75 | 185 | 20.9 | 26.9 | 0.00 | 0.00 | 0.00 | 71 | 1016.1 |
| 20260906072841 | 75 | 196 | 20.9 | 29.5 | 0.00 | 0.00 | 0.00 | 70 | 1016.0 |
| 20260906072733 | 75 | 175 | 20.9 | 29.5 | 0.00 | 0.00 | 0.00 | 70 | 1016.1 |
| 20260906072627 | 76 | 194 | 20.0 | 29.5 | 0.00 | 0.00 | 0.00 | 70 | 1016.1 |
| 20260906072523 | 76 | 210 | 20.0 | 29.5 | 0.00 | 0.00 | 0.00 | 69 | 1016.2 |
| 20260906072416 | 76 | 184 | 20.9 | 29.5 | 0.00 | 0.00 | 0.00 | 69 | 1016.1 |
| 20260906072330 | 76 | 200 | 22.6 | 29.5 | 0.00 | 0.00 | 0.00 | 69 | 1016.2 |
| 20260906072248 | 76 | 183 | 21.7 | 29.5 | 0.00 | 0.00 | 0.00 | 70 | 1016.2 |
| 20260906072205 | 75 | 181 | 21.7 | 29.5 | 0.00 | 0.00 | 0.00 | 70 | 1016.1 |
| 20260906072120 | 75 | 188 | 20.9 | 29.5 | 0.00 | 0.00 | 0.00 | 70 | 1016.1 |
| 20260906072014 | 75 | 202 | 21.7 | 29.5 | 0.00 | 0.00 | 0.00 | 70 | 1016.1 |
| 20260906071906 | 75 | 175 | 20.9 | 29.5 | 0.00 | 0.00 | 0.00 | 70 | 1016.1 |
| 20260906071758 | 75 | 190 | 20.0 | 29.5 | 0.00 | 0.00 | 0.00 | 71 | 1016.2 |
| 20260906071629 | 75 | 190 | 19.1 | 29.5 | 0.00 | 0.00 | 0.00 | 71 | 1016.2 |
| 20260906071527 | 75 | 178 | 18.2 | 29.5 | 0.00 | 0.00 | 0.00 | 71 | 1016.3 |
| 20260906071420 | 75 | 181 | 17.4 | 29.5 | 0.00 | 0.00 | 0.00 | 71 | 1016.2 |
| 20260906071334 | 75 | 183 | 17.4 | 29.5 | 0.00 | 0.00 | 0.00 | 70 | 1016.2 |
| 20260906071226 | 75 | 186 | 18.2 | 29.5 | 0.00 | 0.00 | 0.00 | 70 | 1016.3 |
| 20260906071118 | 76 | 184 | 19.1 | 29.5 | 0.00 | 0.00 | 0.00 | 70 | 1016.2 |
| 20260906071038 | 75 | 190 | 20.0 | 29.5 | 0.00 | 0.00 | 0.00 | 69 | 1016.3 |
| 20260906070930 | 75 | 182 | 20.9 | 29.5 | 0.00 | 0.00 | 0.00 | 70 | 1016.3 |
| 20260906070827 | 75 | 190 | 18.2 | 27.8 | 0.00 | 0.00 | 0.00 | 70 | 1016.4 |
| 20260906070724 | 75 | 197 | 17.4 | 27.8 | 0.00 | 0.00 | 0.00 | 70 | 1016.3 |
| 20260906070617 | 75 | 192 | 19.1 | 27.8 | 0.00 | 0.00 | 0.00 | 70 | 1016.3 |
| 20260906070515 | 75 | 174 | 20.0 | 27.8 | 0.00 | 0.00 | 0.00 | 69 | 1016.3 |
| 20260906070431 | 75 | 179 | 19.1 | 27.8 | 0.00 | 0.00 | 0.00 | 70 | 1016.3 |
| 20260906070327 | 76 | 190 | 18.2 | 27.8 | 0.00 | 0.00 | 0.00 | 69 | 1016.3 |
| 20260906070225 | 76 | 188 | 19.1 | 27.8 | 0.00 | 0.00 | 0.00 | 69 | 1016.4 |
| 20260906070122 | 75 | 182 | 20.0 | 27.8 | 0.00 | 0.00 | 0.00 | 70 | 1016.3 |
| 20260906070036 | 75 | 170 | 20.0 | 27.8 | 0.00 | 0.00 | 0.00 | 70 | 1016.3 |
| 20260906065929 | 75 | 190 | 20.9 | 29.5 | 0.00 | 0.00 | 0.00 | 70 | 1016.4 |
| 20260906065828 | 75 | 181 | 20.0 | 29.5 | 0.00 | 0.00 | 0.00 | 71 | 1016.5 |
| 20260906065725 | 75 | 169 | 20.9 | 29.5 | 0.00 | 0.00 | 0.00 | 70 | 1016.4 |
| 20260906065621 | 75 | 196 | 20.0 | 28.7 | 0.00 | 0.00 | 0.00 | 70 | 1016.5 |
| 20260906065541 | 75 | 181 | 18.2 | 27.8 | 0.00 | 0.00 | 0.00 | 70 | 1016.4 |
| 20260906065454 | 75 | 183 | 18.2 | 27.8 | 0.00 | 0.00 | 0.00 | 70 | 1016.3 |
| 20260906065327 | 75 | 192 | 19.1 | 27.8 | 0.00 | 0.00 | 0.00 | 70 | 1016.4 |
| 20260906065221 | 75 | 192 | 18.2 | 26.9 | 0.00 | 0.00 | 0.00 | 69 | 1016.4 |
| 20260906065115 | 75 | 184 | 19.1 | 26.9 | 0.00 | 0.00 | 0.00 | 69 | 1016.4 |
| 20260906065013 | 75 | 185 | 19.1 | 26.1 | 0.00 | 0.00 | 0.00 | 70 | 1016.5 |
| 20260906064933 | 75 | 192 | 19.1 | 26.1 | 0.00 | 0.00 | 0.00 | 70 | 1016.4 |
| 20260906064826 | 75 | 190 | 20.0 | 26.1 | 0.00 | 0.00 | 0.00 | 70 | 1016.4 |
| 20260906064726 | 75 | 182 | 19.1 | 26.1 | 0.00 | 0.00 | 0.00 | 70 | 1016.4 |
| 20260906064620 | 75 | 208 | 18.2 | 23.5 | 0.00 | 0.00 | 0.00 | 70 | 1016.4 |
| 20260906064533 | 75 | 186 | 18.2 | 23.5 | 0.00 | 0.00 | 0.00 | 70 | 1016.4 |
| 20260906064427 | 75 | 173 | 18.2 | 23.5 | 0.00 | 0.00 | 0.00 | 70 | 1016.4 |
| 20260906064322 | 75 | 171 | 17.4 | 23.5 | 0.00 | 0.00 | 0.00 | 70 | 1016.4 |
| 20260906064235 | 75 | 198 | 17.4 | 22.6 | 0.00 | 0.00 | 0.00 | 70 | 1016.4 |
| 20260906064149 | 75 | 192 | 17.4 | 22.6 | 0.00 | 0.00 | 0.00 | 69 | 1016.4 |
| 20260906064026 | 75 | 187 | 17.4 | 22.6 | 0.00 | 0.00 | 0.00 | 69 | 1016.4 |
| 20260906063922 | 75 | 186 | 16.5 | 22.6 | 0.00 | 0.00 | 0.00 | 68 | 1016.4 |
| 20260906063835 | 75 | 192 | 16.5 | 22.6 | 0.00 | 0.00 | 0.00 | 68 | 1016.4 |
| 20260906063727 | 76 | 188 | 17.4 | 22.6 | 0.00 | 0.00 | 0.00 | 67 | 1016.4 |
| 20260906063621 | 76 | 188 | 18.2 | 26.9 | 0.00 | 0.00 | 0.00 | 66 | 1016.4 |
| 20260906063535 | 76 | 175 | 18.2 | 26.9 | 0.00 | 0.00 | 0.00 | 66 | 1016.4 |
| 20260906063450 | 76 | 197 | 17.4 | 26.9 | 0.00 | 0.00 | 0.00 | 65 | 1016.4 |
| 20260906063323 | 76 | 173 | 16.5 | 26.9 | 0.00 | 0.00 | 0.00 | 65 | 1016.4 |
| 20260906063217 | 76 | 172 | 17.4 | 26.9 | 0.00 | 0.00 | 0.00 | 64 | 1016.4 |
| 20260906063131 | 77 | 185 | 17.4 | 26.9 | 0.00 | 0.00 | 0.00 | 64 | 1016.3 |
| 20260906063028 | 77 | 179 | 18.2 | 26.9 | 0.00 | 0.00 | 0.00 | 63 | 1016.3 |
| 20260906062925 | 77 | 171 | 19.1 | 26.9 | 0.00 | 0.00 | 0.00 | 63 | 1016.3 |
| 20260906062823 | 77 | 186 | 19.1 | 26.9 | 0.00 | 0.00 | 0.00 | 63 | 1016.3 |
| 20260906062722 | 77 | 171 | 19.1 | 24.3 | 0.00 | 0.00 | 0.00 | 62 | 1016.3 |
| 20260906062636 | 77 | 159 | 18.2 | 24.3 | 0.00 | 0.00 | 0.00 | 62 | 1016.4 |
| 20260906062530 | 77 | 194 | 18.2 | 24.3 | 0.00 | 0.00 | 0.00 | 62 | 1016.3 |
| 20260906062446 | 77 | 183 | 17.4 | 24.3 | 0.00 | 0.00 | 0.00 | 61 | 1016.4 |
| 20260906062319 | 77 | 204 | 18.2 | 24.3 | 0.00 | 0.00 | 0.00 | 61 | 1016.5 |
| 20260906062233 | 77 | 182 | 17.4 | 24.3 | 0.00 | 0.00 | 0.00 | 61 | 1016.5 |
| 20260906062146 | 77 | 184 | 16.5 | 24.3 | 0.00 | 0.00 | 0.00 | 61 | 1016.5 |
| 20260906062019 | 77 | 178 | 16.5 | 26.1 | 0.00 | 0.00 | 0.00 | 60 | 1016.4 |
| 20260906061935 | 77 | 188 | 17.4 | 26.1 | 0.00 | 0.00 | 0.00 | 60 | 1016.4 |
| 20260906061828 | 77 | 188 | 17.4 | 26.1 | 0.00 | 0.00 | 0.00 | 60 | 1016.4 |
| 20260906061721 | 77 | 182 | 17.4 | 26.1 | 0.00 | 0.00 | 0.00 | 60 | 1016.3 |
| 20260906061618 | 77 | 190 | 18.2 | 26.1 | 0.00 | 0.00 | 0.00 | 60 | 1016.3 |
| 20260906061516 | 77 | 181 | 18.2 | 26.1 | 0.00 | 0.00 | 0.00 | 60 | 1016.4 |
| 20260906061432 | 77 | 193 | 19.1 | 26.1 | 0.00 | 0.00 | 0.00 | 59 | 1016.3 |
| 20260906061329 | 77 | 200 | 18.2 | 26.1 | 0.00 | 0.00 | 0.00 | 59 | 1016.3 |
| 20260906061227 | 77 | 188 | 18.2 | 26.1 | 0.00 | 0.00 | 0.00 | 60 | 1016.2 |
| 20260906061120 | 76 | 184 | 19.1 | 26.1 | 0.00 | 0.00 | 0.00 | 61 | 1016.2 |
| 20260906061039 | 76 | 175 | 18.2 | 26.1 | 0.00 | 0.00 | 0.00 | 62 | 1016.2 |
| 20260906060952 | 76 | 186 | 17.4 | 25.2 | 0.00 | 0.00 | 0.00 | 63 | 1016.2 |
| 20260906060824 | 76 | 180 | 17.4 | 25.2 | 0.00 | 0.00 | 0.00 | 64 | 1016.1 |
| 20260906060738 | 76 | 178 | 18.2 | 25.2 | 0.00 | 0.00 | 0.00 | 65 | 1016.1 |
| 20260906060634 | 76 | 184 | 18.2 | 25.2 | 0.00 | 0.00 | 0.00 | 66 | 1016.1 |
| 20260906060529 | 76 | 165 | 17.4 | 25.2 | 0.00 | 0.00 | 0.00 | 66 | 1016.2 |
| 20260906060444 | 75 | 189 | 18.2 | 27.8 | 0.00 | 0.00 | 0.00 | 67 | 1016.1 |
| 20260906060324 | 75 | 160 | 18.2 | 27.8 | 0.00 | 0.00 | 0.00 | 67 | 1016.1 |
| 20260906060244 | 75 | 167 | 18.2 | 27.8 | 0.00 | 0.00 | 0.00 | 67 | 1016.1 |
| 20260906060137 | 75 | 170 | 18.2 | 27.8 | 0.00 | 0.00 | 0.00 | 67 | 1016.1 |
| 20260906060034 | 75 | 178 | 17.4 | 27.8 | 0.00 | 0.00 | 0.00 | 67 | 1016.2 |
| 20260906055939 | 76 | 183 | 17.4 | 27.8 | 0.00 | 0.00 | 0.00 | 66 | 1016.1 |
| 20260906055832 | 76 | 171 | 19.1 | 27.8 | 0.00 | 0.00 | 0.00 | 66 | 1016.1 |
| 20260906055748 | 76 | 175 | 19.1 | 27.8 | 0.00 | 0.00 | 0.00 | 66 | 1016.1 |
| 20260906055624 | 76 | 163 | 20.0 | 28.7 | 0.00 | 0.00 | 0.00 | 66 | 1016.1 |
| 20260906055519 | 76 | 172 | 20.0 | 28.7 | 0.00 | 0.00 | 0.00 | 65 | 1016.0 |
| 20260906055432 | 75 | 144 | 20.9 | 28.7 | 0.00 | 0.00 | 0.00 | 65 | 1016.0 |
| 20260906055329 | 75 | 150 | 20.9 | 28.7 | 0.00 | 0.00 | 0.00 | 65 | 1016.0 |
| 20260906055227 | 75 | 164 | 20.9 | 28.7 | 0.00 | 0.00 | 0.00 | 65 | 1016.0 |
| 20260906055120 | 75 | 163 | 20.9 | 28.7 | 0.00 | 0.00 | 0.00 | 65 | 1016.0 |
| 20260906055018 | 75 | 175 | 20.9 | 28.7 | 0.00 | 0.00 | 0.00 | 65 | 1016.1 |
| 20260906054934 | 75 | 159 | 20.0 | 28.7 | 0.00 | 0.00 | 0.00 | 65 | 1016.1 |
| 20260906054828 | 76 | 165 | 20.0 | 28.7 | 0.00 | 0.00 | 0.00 | 66 | 1016.1 |
| 20260906054725 | 76 | 169 | 20.9 | 28.7 | 0.00 | 0.00 | 0.00 | 67 | 1016.1 |
| 20260906054619 | 76 | 167 | 20.0 | 26.9 | 0.00 | 0.00 | 0.00 | 67 | 1016.2 |
| 20260906054538 | 76 | 171 | 19.1 | 26.9 | 0.00 | 0.00 | 0.00 | 67 | 1016.2 |
| 20260906054432 | 76 | 171 | 19.1 | 26.9 | 0.00 | 0.00 | 0.00 | 67 | 1016.1 |
| 20260906054326 | 76 | 177 | 19.1 | 26.9 | 0.00 | 0.00 | 0.00 | 67 | 1016.1 |
| 20260906054247 | 76 | 182 | 20.0 | 26.9 | 0.00 | 0.00 | 0.00 | 67 | 1016.1 |
| 20260906054140 | 76 | 173 | 20.0 | 26.9 | 0.00 | 0.00 | 0.00 | 66 | 1016.1 |
| 20260906054036 | 76 | 175 | 20.9 | 26.9 | 0.00 | 0.00 | 0.00 | 65 | 1016.1 |
| 20260906053929 | 75 | 172 | 20.9 | 27.8 | 0.00 | 0.00 | 0.00 | 64 | 1016.1 |
| 20260906053825 | 75 | 172 | 19.1 | 27.8 | 0.00 | 0.00 | 0.00 | 63 | 1016.1 |
| 20260906053719 | 75 | 184 | 19.1 | 27.8 | 0.00 | 0.00 | 0.00 | 62 | 1016.1 |
| 20260906053636 | 75 | 173 | 19.1 | 27.8 | 0.00 | 0.00 | 0.00 | 62 | 1016.0 |
| 20260906053518 | 75 | 169 | 19.1 | 27.8 | 0.00 | 0.00 | 0.00 | 62 | 1016.0 |
| 20260906053431 | 74 | 175 | 19.1 | 27.8 | 0.00 | 0.00 | 0.00 | 62 | 1016.0 |
| 20260906053323 | 74 | 195 | 18.2 | 27.8 | 0.00 | 0.00 | 0.00 | 62 | 1016.0 |
| 20260906053237 | 74 | 177 | 19.1 | 27.8 | 0.00 | 0.00 | 0.00 | 62 | 1016.0 |
| 20260906053131 | 74 | 184 | 19.1 | 27.8 | 0.00 | 0.00 | 0.00 | 63 | 1016.0 |
| 20260906053029 | 73 | 180 | 20.9 | 26.9 | 0.00 | 0.00 | 0.00 | 64 | 1016.0 |
| 20260906052920 | 73 | 175 | 20.0 | 27.8 | 0.00 | 0.00 | 0.00 | 65 | 1016.0 |
| 20260906052817 | 73 | 184 | 19.1 | 27.8 | 0.00 | 0.00 | 0.00 | 65 | 1016.0 |
| 20260906052731 | 73 | 186 | 19.1 | 27.8 | 0.00 | 0.00 | 0.00 | 66 | 1016.1 |
| 20260906052645 | 73 | 184 | 18.2 | 27.8 | 0.00 | 0.00 | 0.00 | 66 | 1016.1 |
| 20260906052542 | 73 | 178 | 18.2 | 27.8 | 0.00 | 0.00 | 0.00 | 66 | 1016.0 |
| 20260906052434 | 73 | 167 | 19.1 | 27.8 | 0.00 | 0.00 | 0.00 | 66 | 1016.0 |
| 20260906052328 | 73 | 141 | 19.1 | 27.8 | 0.00 | 0.00 | 0.00 | 65 | 1016.0 |
| 20260906052222 | 73 | 188 | 19.1 | 27.8 | 0.00 | 0.00 | 0.00 | 64 | 1016.0 |
| 20260906052135 | 73 | 168 | 20.0 | 27.8 | 0.00 | 0.00 | 0.00 | 63 | 1016.0 |
| 20260906052030 | 74 | 188 | 20.0 | 27.8 | 0.00 | 0.00 | 0.00 | 63 | 1016.1 |
| 20260906051925 | 74 | 187 | 20.0 | 28.7 | 0.00 | 0.00 | 0.00 | 62 | 1015.9 |
| 20260906051824 | 74 | 196 | 20.0 | 27.8 | 0.00 | 0.00 | 0.00 | 62 | 1015.9 |
| 20260906051717 | 74 | 186 | 19.1 | 27.8 | 0.00 | 0.00 | 0.00 | 62 | 1015.9 |
| 20260906051634 | 74 | 170 | 20.0 | 27.8 | 0.00 | 0.00 | 0.00 | 62 | 1015.9 |
| 20260906051549 | 74 | 173 | 19.1 | 27.8 | 0.00 | 0.00 | 0.00 | 62 | 1015.9 |
| 20260906051421 | 74 | 200 | 17.4 | 25.2 | 0.00 | 0.00 | 0.00 | 61 | 1016.0 |
| 20260906051335 | 74 | 178 | 16.5 | 25.2 | 0.00 | 0.00 | 0.00 | 61 | 1016.0 |
| 20260906051229 | 74 | 171 | 17.4 | 25.2 | 0.00 | 0.00 | 0.00 | 61 | 1015.8 |
| 20260906051122 | 74 | 158 | 20.0 | 25.2 | 0.00 | 0.00 | 0.00 | 61 | 1015.8 |
| 20260906051037 | 74 | 178 | 19.1 | 25.2 | 0.00 | 0.00 | 0.00 | 61 | 1015.8 |
| 20260906050929 | 74 | 175 | 17.4 | 25.2 | 0.00 | 0.00 | 0.00 | 61 | 1015.9 |
| 20260906050823 | 74 | 171 | 16.5 | 24.3 | 0.00 | 0.00 | 0.00 | 61 | 1015.7 |
| 20260906050721 | 74 | 158 | 14.8 | 24.3 | 0.00 | 0.00 | 0.00 | 62 | 1015.6 |
| 20260906050635 | 74 | 167 | 16.5 | 24.3 | 0.00 | 0.00 | 0.00 | 62 | 1015.6 |
| 20260906050533 | 74 | 161 | 16.5 | 24.3 | 0.00 | 0.00 | 0.00 | 62 | 1015.7 |
| 20260906050432 | 74 | 167 | 16.5 | 24.3 | 0.00 | 0.00 | 0.00 | 62 | 1015.7 |
| 20260906050326 | 74 | 170 | 17.4 | 24.3 | 0.00 | 0.00 | 0.00 | 62 | 1015.8 |
| 20260906050218 | 74 | 179 | 16.5 | 24.3 | 0.00 | 0.00 | 0.00 | 61 | 1015.8 |
| 20260906050132 | 74 | 202 | 13.9 | 19.1 | 0.00 | 0.00 | 0.00 | 61 | 1015.5 |
| 20260906050026 | 74 | 150 | 13.0 | 19.1 | 0.00 | 0.00 | 0.00 | 62 | 1015.4 |
| 20260906045919 | 74 | 182 | 13.0 | 19.1 | 0.00 | 0.00 | 0.00 | 62 | 1015.3 |
| 20260906045816 | 74 | 169 | 13.9 | 22.6 | 0.00 | 0.00 | 0.00 | 62 | 1015.3 |
| 20260906045729 | 74 | 170 | 13.9 | 22.6 | 0.00 | 0.00 | 0.00 | 62 | 1015.3 |
| 20260906045621 | 74 | 181 | 13.9 | 22.6 | 0.00 | 0.00 | 0.00 | 62 | 1015.3 |
| 20260906045536 | 74 | 171 | 13.9 | 22.6 | 0.00 | 0.00 | 0.00 | 62 | 1015.3 |
| 20260906045449 | 74 | 196 | 15.6 | 22.6 | 0.00 | 0.00 | 0.00 | 62 | 1015.3 |
| 20260906045325 | 74 | 171 | 14.8 | 22.6 | 0.00 | 0.00 | 0.00 | 62 | 1015.3 |
| 20260906045239 | 75 | 176 | 13.9 | 22.6 | 0.00 | 0.00 | 0.00 | 62 | 1015.4 |
| 20260906045153 | 75 | 175 | 12.2 | 22.6 | 0.00 | 0.00 | 0.00 | 62 | 1015.4 |
| 20260906045027 | 75 | 199 | 13.0 | 22.6 | 0.00 | 0.00 | 0.00 | 62 | 1015.4 |
| 20260906044920 | 75 | 173 | 14.8 | 22.6 | 0.00 | 0.00 | 0.00 | 62 | 1015.4 |
| 20260906044818 | 74 | 169 | 16.5 | 22.6 | 0.00 | 0.00 | 0.00 | 62 | 1015.4 |
| 20260906044733 | 74 | 165 | 15.6 | 21.7 | 0.00 | 0.00 | 0.00 | 63 | 1015.3 |
| 20260906044650 | 74 | 170 | 15.6 | 21.7 | 0.00 | 0.00 | 0.00 | 63 | 1015.3 |
| 20260906044605 | 74 | 182 | 15.6 | 21.7 | 0.00 | 0.00 | 0.00 | 63 | 1015.3 |
| 20260906044500 | 74 | 163 | 15.6 | 22.6 | 0.00 | 0.00 | 0.00 | 63 | 1015.2 |
| 20260906044332 | 74 | 180 | 15.6 | 22.6 | 0.00 | 0.00 | 0.00 | 63 | 1015.2 |
| 20260906044224 | 74 | 163 | 17.4 | 26.1 | 0.00 | 0.00 | 0.00 | 63 | 1015.3 |
| 20260906044138 | 74 | 173 | 16.5 | 26.1 | 0.00 | 0.00 | 0.00 | 64 | 1015.2 |
| 20260906044032 | 73 | 176 | 16.5 | 28.7 | 0.00 | 0.00 | 0.00 | 65 | 1015.2 |
| 20260906043926 | 73 | 178 | 16.5 | 28.7 | 0.00 | 0.00 | 0.00 | 65 | 1015.2 |
| 20260906043840 | 73 | 150 | 16.5 | 29.5 | 0.00 | 0.00 | 0.00 | 65 | 1015.3 |
| 20260906043717 | 74 | 198 | 17.4 | 29.5 | 0.00 | 0.00 | 0.00 | 65 | 1015.4 |
| 20260906043631 | 73 | 181 | 17.4 | 29.5 | 0.00 | 0.00 | 0.00 | 65 | 1015.3 |
| 20260906043527 | 73 | 161 | 18.2 | 29.5 | 0.00 | 0.00 | 0.00 | 65 | 1015.3 |
| 20260906043420 | 73 | 184 | 19.1 | 29.5 | 0.00 | 0.00 | 0.00 | 66 | 1015.4 |
| 20260906043334 | 73 | 181 | 19.1 | 29.5 | 0.00 | 0.00 | 0.00 | 66 | 1015.4 |
| 20260906043228 | 73 | 171 | 20.0 | 29.5 | 0.00 | 0.00 | 0.00 | 67 | 1015.4 |
| 20260906043122 | 72 | 170 | 20.9 | 29.5 | 0.00 | 0.00 | 0.00 | 68 | 1015.5 |
| 20260906043038 | 72 | 184 | 21.7 | 29.5 | 0.00 | 0.00 | 0.00 | 68 | 1015.6 |
| 20260906042929 | 72 | 180 | 20.9 | 30.4 | 0.00 | 0.00 | 0.00 | 69 | 1015.7 |
| 20260906042825 | 72 | 154 | 20.9 | 34.8 | 0.00 | 0.00 | 0.00 | 70 | 1015.7 |
| 20260906042717 | 71 | 184 | 20.0 | 34.8 | 0.00 | 0.00 | 0.00 | 70 | 1015.8 |
| 20260906042630 | 71 | 196 | 20.0 | 34.8 | 0.00 | 0.00 | 0.00 | 70 | 1015.9 |
| 20260906042528 | 71 | 206 | 20.0 | 34.8 | 0.00 | 0.00 | 0.00 | 70 | 1015.9 |
| 20260906042424 | 71 | 188 | 21.7 | 34.8 | 0.00 | 0.00 | 0.00 | 71 | 1015.9 |
| 20260906042338 | 71 | 179 | 22.6 | 34.8 | 0.00 | 0.00 | 0.00 | 71 | 1015.9 |
| 20260906042233 | 71 | 177 | 23.5 | 34.8 | 0.00 | 0.00 | 0.00 | 72 | 1016.0 |
| 20260906042126 | 71 | 189 | 25.2 | 34.8 | 0.00 | 0.00 | 0.00 | 74 | 1016.0 |
| 20260906042042 | 71 | 176 | 25.2 | 34.8 | 0.00 | 0.00 | 0.00 | 75 | 1016.2 |
| 20260906041924 | 71 | 188 | 26.1 | 34.8 | 0.00 | 0.00 | 0.00 | 75 | 1016.1 |
| 20260906041838 | 71 | 171 | 24.3 | 33.9 | 0.00 | 0.00 | 0.00 | 75 | 1016.1 |
| 20260906041751 | 70 | 187 | 25.2 | 33.9 | 0.00 | 0.00 | 0.00 | 75 | 1016.0 |
| 20260906041627 | 71 | 181 | 25.2 | 33.9 | 0.00 | 0.00 | 0.00 | 75 | 1016.0 |
| 20260906041521 | 71 | 174 | 25.2 | 33.9 | 0.00 | 0.00 | 0.00 | 75 | 1016.0 |
| 20260906041434 | 71 | 185 | 25.2 | 33.0 | 0.00 | 0.00 | 0.00 | 75 | 1016.0 |
| 20260906041355 | 71 | 176 | 24.3 | 33.9 | 0.00 | 0.00 | 0.00 | 75 | 1016.0 |
| 20260906041314 | 71 | 184 | 22.6 | 33.9 | 0.00 | 0.00 | 0.00 | 75 | 1015.9 |
| 20260906041150 | 71 | 174 | 21.7 | 33.9 | 0.00 | 0.00 | 0.00 | 75 | 1015.9 |
| 20260906041105 | 71 | 157 | 22.6 | 33.9 | 0.00 | 0.00 | 0.00 | 75 | 1016.0 |
| 20260906040957 | 71 | 174 | 21.7 | 33.9 | 0.00 | 0.00 | 0.00 | 75 | 1015.9 |
| 20260906040854 | 71 | 179 | 21.7 | 33.9 | 0.00 | 0.00 | 0.00 | 75 | 1016.0 |
| 20260906040751 | 71 | 179 | 23.5 | 33.9 | 0.00 | 0.00 | 0.00 | 76 | 1016.0 |
| 20260906040624 | 71 | 175 | 25.2 | 33.9 | 0.00 | 0.00 | 0.00 | 76 | 1016.0 |
| 20260906040520 | 71 | 196 | 27.8 | 33.9 | 0.00 | 0.00 | 0.00 | 76 | 1016.0 |
| 20260906040416 | 71 | 205 | 28.7 | 36.5 | 0.00 | 0.00 | 0.00 | 76 | 1016.0 |
| 20260906040330 | 72 | 175 | 26.9 | 36.5 | 0.00 | 0.00 | 0.00 | 76 | 1016.0 |
| 20260906040243 | 72 | 177 | 26.1 | 35.6 | 0.00 | 0.00 | 0.00 | 76 | 1016.0 |
| 20260906040136 | 72 | 191 | 26.1 | 35.6 | 0.00 | 0.00 | 0.00 | 75 | 1016.0 |
| 20260906040051 | 72 | 179 | 25.2 | 31.3 | 0.00 | 0.00 | 0.00 | 75 | 1016.1 |
| 20260906035923 | 72 | 180 | 23.5 | 31.3 | 0.00 | 0.00 | 0.00 | 74 | 1016.2 |
| 20260906035838 | 73 | 193 | 20.9 | 31.3 | 0.00 | 0.00 | 0.00 | 74 | 1016.1 |
| 20260906035734 | 73 | 157 | 18.2 | 31.3 | 0.00 | 0.00 | 0.00 | 73 | 1016.0 |
| 20260906035648 | 73 | 167 | 20.0 | 31.3 | 0.00 | 0.00 | 0.00 | 72 | 1016.0 |
| 20260906035525 | 73 | 188 | 22.6 | 31.3 | 0.00 | 0.00 | 0.00 | 71 | 1016.0 |
| 20260906035439 | 73 | 173 | 22.6 | 31.3 | 0.00 | 0.00 | 0.00 | 71 | 1016.2 |
| 20260906035353 | 73 | 177 | 20.9 | 31.3 | 0.00 | 0.00 | 0.00 | 70 | 1015.9 |
| 20260906035229 | 73 | 168 | 20.0 | 25.2 | 0.00 | 0.00 | 0.00 | 70 | 1015.8 |
| 20260906035123 | 74 | 159 | 18.2 | 26.1 | 0.00 | 0.00 | 0.00 | 70 | 1015.8 |
| 20260906035021 | 74 | 181 | 17.4 | 26.1 | 0.00 | 0.00 | 0.00 | 70 | 1015.8 |
| 20260906034924 | 73 | 173 | 19.1 | 26.1 | 0.00 | 0.00 | 0.00 | 70 | 1015.8 |
| 20260906034817 | 73 | 171 | 20.0 | 26.1 | 0.00 | 0.00 | 0.00 | 71 | 1015.7 |
| 20260906034734 | 73 | 172 | 19.1 | 26.1 | 0.00 | 0.00 | 0.00 | 72 | 1015.6 |
| 20260906034628 | 73 | 163 | 20.0 | 26.1 | 0.00 | 0.00 | 0.00 | 72 | 1015.7 |
| 20260906034523 | 73 | 178 | 19.1 | 26.1 | 0.00 | 0.00 | 0.00 | 73 | 1015.8 |
| 20260906034418 | 73 | 176 | 20.0 | 26.1 | 0.00 | 0.00 | 0.00 | 73 | 1015.8 |
| 20260906034332 | 73 | 174 | 20.0 | 26.1 | 0.00 | 0.00 | 0.00 | 74 | 1015.8 |
| 20260906034225 | 73 | 176 | 21.7 | 26.1 | 0.00 | 0.00 | 0.00 | 73 | 1015.9 |
| 20260906034117 | 73 | 183 | 20.0 | 26.1 | 0.00 | 0.00 | 0.00 | 73 | 1016.0 |
| 20260906034035 | 73 | 178 | 19.1 | 25.2 | 0.00 | 0.00 | 0.00 | 73 | 1016.0 |
| 20260906033927 | 73 | 183 | 17.4 | 25.2 | 0.00 | 0.00 | 0.00 | 73 | 1016.1 |
| 20260906033824 | 73 | 172 | 17.4 | 25.2 | 0.00 | 0.00 | 0.00 | 72 | 1016.3 |
| 20260906033718 | 74 | 192 | 17.4 | 25.2 | 0.00 | 0.00 | 0.00 | 72 | 1016.4 |
| 20260906033631 | 74 | 187 | 16.5 | 25.2 | 0.00 | 0.00 | 0.00 | 72 | 1016.4 |
| 20260906033527 | 74 | 185 | 17.4 | 25.2 | 0.00 | 0.00 | 0.00 | 72 | 1016.5 |
| 20260906033440 | 74 | 194 | 17.4 | 26.1 | 0.00 | 0.00 | 0.00 | 71 | 1016.6 |
| 20260906033333 | 74 | 195 | 18.2 | 26.1 | 0.00 | 0.00 | 0.00 | 71 | 1016.6 |
| 20260906033247 | 74 | 205 | 19.1 | 26.1 | 0.00 | 0.00 | 0.00 | 71 | 1016.7 |
| 20260906033128 | 74 | 185 | 20.0 | 26.1 | 0.00 | 0.00 | 0.00 | 71 | 1016.7 |
| 20260906033023 | 74 | 212 | 20.0 | 26.1 | 0.00 | 0.00 | 0.00 | 71 | 1016.7 |
| 20260906032921 | 74 | 203 | 20.0 | 26.1 | 0.00 | 0.00 | 0.00 | 70 | 1016.7 |
| 20260906032816 | 74 | 202 | 20.0 | 26.1 | 0.00 | 0.00 | 0.00 | 70 | 1016.8 |
| 20260906032733 | 74 | 217 | 20.0 | 26.1 | 0.00 | 0.00 | 0.00 | 70 | 1016.7 |
| 20260906032625 | 74 | 212 | 20.9 | 26.1 | 0.00 | 0.00 | 0.00 | 69 | 1016.8 |
| 20260906032522 | 74 | 207 | 20.0 | 26.9 | 0.00 | 0.00 | 0.00 | 69 | 1016.9 |
| 20260906032415 | 74 | 194 | 18.2 | 25.2 | 0.00 | 0.00 | 0.00 | 69 | 1016.9 |
| 20260906032316 | 74 | 210 | 16.5 | 20.9 | 0.00 | 0.00 | 0.00 | 69 | 1016.8 |
| 20260906032233 | 75 | 198 | 15.6 | 20.9 | 0.00 | 0.00 | 0.00 | 69 | 1016.8 |
| 20260906032127 | 75 | 226 | 14.8 | 20.0 | 0.00 | 0.00 | 0.00 | 69 | 1016.8 |
| 20260906032022 | 75 | 197 | 13.9 | 19.1 | 0.00 | 0.00 | 0.00 | 69 | 1016.7 |
| 20260906031935 | 75 | 211 | 13.0 | 19.1 | 0.00 | 0.00 | 0.00 | 68 | 1016.7 |
| 20260906031832 | 75 | 216 | 13.0 | 19.1 | 0.00 | 0.00 | 0.00 | 68 | 1016.7 |
| 20260906031725 | 75 | 197 | 13.9 | 19.1 | 0.00 | 0.00 | 0.00 | 68 | 1016.7 |
| 20260906031618 | 75 | 197 | 14.8 | 19.1 | 0.00 | 0.00 | 0.00 | 68 | 1016.7 |
| 20260906031517 | 75 | 192 | 14.8 | 19.1 | 0.00 | 0.00 | 0.00 | 67 | 1016.7 |
| 20260906031430 | 75 | 196 | 14.8 | 20.9 | 0.00 | 0.00 | 0.00 | 67 | 1016.7 |
| 20260906031328 | 75 | 184 | 13.9 | 20.9 | 0.00 | 0.00 | 0.00 | 67 | 1016.7 |
| 20260906031224 | 75 | 170 | 13.0 | 20.9 | 0.00 | 0.00 | 0.00 | 66 | 1016.7 |
| 20260906031123 | 75 | 173 | 13.0 | 20.9 | 0.00 | 0.00 | 0.00 | 66 | 1016.7 |
| 20260906031017 | 76 | 178 | 13.9 | 22.6 | 0.00 | 0.00 | 0.00 | 65 | 1016.7 |
| 20260906030930 | 76 | 167 | 14.8 | 22.6 | 0.00 | 0.00 | 0.00 | 65 | 1016.7 |
| 20260906030822 | 76 | 180 | 14.8 | 22.6 | 0.00 | 0.00 | 0.00 | 64 | 1016.8 |
| 20260906030720 | 77 | 186 | 14.8 | 22.6 | 0.00 | 0.00 | 0.00 | 63 | 1016.8 |
| 20260906030634 | 77 | 170 | 15.6 | 22.6 | 0.00 | 0.00 | 0.00 | 62 | 1016.8 |
| 20260906030529 | 77 | 191 | 15.6 | 22.6 | 0.00 | 0.00 | 0.00 | 62 | 1016.8 |
| 20260906030442 | 78 | 189 | 16.5 | 22.6 | 0.00 | 0.00 | 0.00 | 61 | 1016.8 |
| 20260906030335 | 78 | 174 | 16.5 | 22.6 | 0.00 | 0.00 | 0.00 | 60 | 1016.9 |
| 20260906030249 | 78 | 183 | 16.5 | 22.6 | 0.00 | 0.00 | 0.00 | 59 | 1017.0 |
| 20260906030144 | 79 | 184 | 16.5 | 22.6 | 0.00 | 0.00 | 0.00 | 58 | 1017.0 |
| 20260906030021 | 79 | 188 | 16.5 | 21.7 | 0.00 | 0.00 | 0.00 | 57 | 1017.1 |
| 20260906025934 | 79 | 191 | 15.6 | 21.7 | 0.00 | 0.00 | 0.00 | 57 | 1017.0 |
| 20260906025826 | 79 | 192 | 16.5 | 21.7 | 0.00 | 0.00 | 0.00 | 57 | 1017.1 |
| 20260906025718 | 79 | 183 | 17.4 | 21.7 | 0.00 | 0.00 | 0.00 | 56 | 1017.1 |
| 20260906025636 | 79 | 185 | 16.5 | 21.7 | 0.00 | 0.00 | 0.00 | 56 | 1017.1 |
| 20260906025552 | 80 | 194 | 15.6 | 21.7 | 0.00 | 0.00 | 0.00 | 56 | 1017.1 |
| 20260906025447 | 80 | 193 | 15.6 | 21.7 | 0.00 | 0.00 | 0.00 | 55 | 1017.1 |
| 20260906025322 | 80 | 201 | 16.5 | 21.7 | 0.00 | 0.00 | 0.00 | 54 | 1017.2 |
| 20260906025219 | 80 | 193 | 13.9 | 21.7 | 0.00 | 0.00 | 0.00 | 53 | 1017.2 |
| 20260906025133 | 80 | 191 | 13.0 | 16.5 | 0.00 | 0.00 | 0.00 | 52 | 1017.1 |
| 20260906025028 | 80 | 192 | 13.0 | 16.5 | 0.00 | 0.00 | 0.00 | 51 | 1017.0 |
| 20260906024944 | 80 | 185 | 13.0 | 16.5 | 0.00 | 0.00 | 0.00 | 51 | 1017.0 |
| 20260906024820 | 80 | 216 | 12.2 | 14.8 | 0.00 | 0.00 | 0.00 | 52 | 1016.9 |
| 20260906024718 | 80 | 201 | 12.2 | 14.8 | 0.00 | 0.00 | 0.00 | 52 | 1016.9 |
| 20260906024632 | 80 | 218 | 11.3 | 14.8 | 0.00 | 0.00 | 0.00 | 52 | 1016.8 |
| 20260906024529 | 80 | 212 | 10.4 | 14.8 | 0.00 | 0.00 | 0.00 | 52 | 1016.9 |
| 20260906024445 | 80 | 205 | 9.6 | 14.8 | 0.00 | 0.00 | 0.00 | 53 | 1016.8 |
| 20260906024347 | 80 | 207 | 9.6 | 13.0 | 0.00 | 0.00 | 0.00 | 53 | 1016.8 |
| 20260906024240 | 80 | 198 | 9.6 | 13.0 | 0.00 | 0.00 | 0.00 | 53 | 1016.7 |
| 20260906024154 | 80 | 207 | 8.7 | 13.0 | 0.00 | 0.00 | 0.00 | 53 | 1016.7 |
| 20260906024027 | 80 | 211 | 9.6 | 13.0 | 0.00 | 0.00 | 0.00 | 53 | 1016.7 |
| 20260906023924 | 80 | 209 | 9.6 | 13.0 | 0.00 | 0.00 | 0.00 | 54 | 1016.6 |
| 20260906023825 | 80 | 213 | 9.6 | 13.0 | 0.00 | 0.00 | 0.00 | 54 | 1016.6 |
| 20260906023738 | 80 | 197 | 9.6 | 13.0 | 0.00 | 0.00 | 0.00 | 54 | 1016.6 |
| 20260906023655 | 79 | 230 | 8.7 | 11.3 | 0.00 | 0.00 | 0.00 | 55 | 1016.5 |
| 20260906023549 | 79 | 217 | 8.7 | 11.3 | 0.00 | 0.00 | 0.00 | 55 | 1016.5 |
| 20260906023442 | 79 | 217 | 7.8 | 11.3 | 0.00 | 0.00 | 0.00 | 56 | 1016.4 |
| 20260906023335 | 79 | 230 | 8.7 | 11.3 | 0.00 | 0.00 | 0.00 | 56 | 1016.4 |
| 20260906023229 | 79 | 227 | 8.7 | 11.3 | 0.00 | 0.00 | 0.00 | 56 | 1016.4 |
| 20260906023122 | 79 | 236 | 8.7 | 11.3 | 0.00 | 0.00 | 0.00 | 56 | 1016.5 |
| 20260906023037 | 79 | 237 | 9.6 | 11.3 | 0.00 | 0.00 | 0.00 | 56 | 1016.4 |
| 20260906022929 | 79 | 227 | 9.6 | 11.3 | 0.00 | 0.00 | 0.00 | 56 | 1016.6 |
| 20260906022829 | 79 | 233 | 9.6 | 11.3 | 0.00 | 0.00 | 0.00 | 55 | 1016.5 |
| 20260906022727 | 79 | 234 | 9.6 | 13.0 | 0.00 | 0.00 | 0.00 | 55 | 1016.6 |
| 20260906022620 | 79 | 223 | 10.4 | 13.0 | 0.00 | 0.00 | 0.00 | 55 | 1016.5 |
| 20260906022521 | 80 | 217 | 9.6 | 13.0 | 0.00 | 0.00 | 0.00 | 55 | 1016.5 |
| 20260906022416 | 80 | 233 | 8.7 | 13.0 | 0.00 | 0.00 | 0.00 | 55 | 1016.5 |
| 20260906022329 | 80 | 218 | 8.7 | 13.0 | 0.00 | 0.00 | 0.00 | 54 | 1016.5 |
| 20260906022226 | 80 | 225 | 8.7 | 13.9 | 0.00 | 0.00 | 0.00 | 54 | 1016.4 |
| 20260906022122 | 80 | 221 | 8.7 | 13.9 | 0.00 | 0.00 | 0.00 | 54 | 1016.4 |
| 20260906022022 | 80 | 214 | 9.6 | 13.9 | 0.00 | 0.00 | 0.00 | 54 | 1016.4 |
| 20260906021935 | 80 | 198 | 9.6 | 13.9 | 0.00 | 0.00 | 0.00 | 53 | 1016.4 |
| 20260906021829 | 80 | 207 | 9.6 | 15.6 | 0.00 | 0.00 | 0.00 | 53 | 1016.3 |
| 20260906021723 | 81 | 202 | 10.4 | 15.6 | 0.00 | 0.00 | 0.00 | 53 | 1016.3 |
| 20260906021639 | 81 | 213 | 10.4 | 16.5 | 0.00 | 0.00 | 0.00 | 52 | 1016.3 |
| 20260906021554 | 81 | 207 | 9.6 | 16.5 | 0.00 | 0.00 | 0.00 | 52 | 1016.3 |
| 20260906021424 | 81 | 223 | 10.4 | 16.5 | 0.00 | 0.00 | 0.00 | 51 | 1016.3 |
| 20260906021318 | 81 | 208 | 10.4 | 16.5 | 0.00 | 0.00 | 0.00 | 51 | 1016.3 |
| 20260906021232 | 81 | 218 | 10.4 | 16.5 | 0.00 | 0.00 | 0.00 | 51 | 1016.1 |
| 20260906021128 | 81 | 225 | 10.4 | 16.5 | 0.00 | 0.00 | 0.00 | 50 | 1016.1 |
| 20260906021027 | 81 | 225 | 12.2 | 16.5 | 0.00 | 0.00 | 0.00 | 50 | 1016.1 |
| 20260906020924 | 81 | 222 | 13.9 | 16.5 | 0.00 | 0.00 | 0.00 | 50 | 1016.1 |
| 20260906020824 | 81 | 222 | 13.9 | 16.5 | 0.00 | 0.00 | 0.00 | 50 | 1016.1 |
| 20260906020716 | 81 | 225 | 12.2 | 16.5 | 0.00 | 0.00 | 0.00 | 50 | 1016.0 |
| 20260906020631 | 81 | 241 | 10.4 | 15.6 | 0.00 | 0.00 | 0.00 | 50 | 1016.0 |
| 20260906020527 | 81 | 236 | 8.7 | 13.0 | 0.00 | 0.00 | 0.00 | 50 | 1016.0 |
| 20260906020421 | 81 | 227 | 7.8 | 13.0 | 0.00 | 0.00 | 0.00 | 51 | 1016.0 |
| 20260906020318 | 81 | 236 | 8.7 | 13.0 | 0.00 | 0.00 | 0.00 | 51 | 1016.0 |
| 20260906020219 | 81 | 224 | 9.6 | 13.0 | 0.00 | 0.00 | 0.00 | 52 | 1016.0 |
| 20260906020133 | 80 | 227 | 9.6 | 13.0 | 0.00 | 0.00 | 0.00 | 52 | 1015.9 |
| 20260906020028 | 80 | 229 | 9.6 | 13.0 | 0.00 | 0.00 | 0.00 | 53 | 1016.0 |
| 20260906015921 | 80 | 233 | 10.4 | 13.0 | 0.00 | 0.00 | 0.00 | 54 | 1015.9 |
| 20260906015818 | 80 | 236 | 10.4 | 13.0 | 0.00 | 0.00 | 0.00 | 54 | 1015.8 |
| 20260906015732 | 80 | 231 | 9.6 | 12.2 | 0.00 | 0.00 | 0.00 | 54 | 1015.9 |
| 20260906015629 | 80 | 236 | 8.7 | 11.3 | 0.00 | 0.00 | 0.00 | 54 | 1015.8 |
| 20260906015527 | 80 | 259 | 7.8 | 10.4 | 0.00 | 0.00 | 0.00 | 55 | 1015.8 |
| 20260906015421 | 80 | 234 | 7.0 | 9.6 | 0.00 | 0.00 | 0.00 | 54 | 1015.8 |
| 20260906015315 | 80 | 240 | 7.0 | 9.6 | 0.00 | 0.00 | 0.00 | 54 | 1015.8 |
| 20260906015232 | 80 | 228 | 7.8 | 9.6 | 0.00 | 0.00 | 0.00 | 54 | 1015.7 |
| 20260906015146 | 80 | 232 | 7.8 | 9.6 | 0.00 | 0.00 | 0.00 | 54 | 1015.6 |
| 20260906015020 | 80 | 221 | 7.8 | 9.6 | 0.00 | 0.00 | 0.00 | 54 | 1015.7 |
| 20260906014913 | 80 | 223 | 7.0 | 8.7 | 0.00 | 0.00 | 0.00 | 54 | 1015.6 |
| 20260906014831 | 80 | 215 | 7.0 | 8.7 | 0.00 | 0.00 | 0.00 | 54 | 1015.6 |
| 20260906014729 | 80 | 232 | 7.0 | 10.4 | 0.00 | 0.00 | 0.00 | 54 | 1015.5 |
| 20260906014647 | 80 | 250 | 7.0 | 12.2 | 0.00 | 0.00 | 0.00 | 54 | 1015.5 |
| 20260906014543 | 80 | 224 | 7.0 | 12.2 | 0.00 | 0.00 | 0.00 | 54 | 1015.5 |
| 20260906014457 | 80 | 227 | 7.0 | 13.9 | 0.00 | 0.00 | 0.00 | 54 | 1015.4 |
| 20260906014329 | 80 | 209 | 7.0 | 13.9 | 0.00 | 0.00 | 0.00 | 54 | 1015.5 |
| 20260906014226 | 80 | 227 | 7.0 | 13.9 | 0.00 | 0.00 | 0.00 | 54 | 1015.5 |
| 20260906014119 | 80 | 232 | 7.0 | 13.9 | 0.00 | 0.00 | 0.00 | 53 | 1015.5 |
| 20260906014017 | 80 | 230 | 7.8 | 13.9 | 0.00 | 0.00 | 0.00 | 53 | 1015.5 |
| 20260906013929 | 80 | 244 | 8.7 | 13.9 | 0.00 | 0.00 | 0.00 | 53 | 1015.5 |
| 20260906013826 | 80 | 219 | 10.4 | 13.9 | 0.00 | 0.00 | 0.00 | 53 | 1015.5 |
| 20260906013723 | 80 | 238 | 10.4 | 14.8 | 0.00 | 0.00 | 0.00 | 53 | 1015.4 |
| 20260906013617 | 80 | 227 | 10.4 | 14.8 | 0.00 | 0.00 | 0.00 | 53 | 1015.4 |
| 20260906013533 | 80 | 236 | 10.4 | 15.6 | 0.00 | 0.00 | 0.00 | 54 | 1015.4 |
| 20260906013446 | 80 | 251 | 10.4 | 15.6 | 0.00 | 0.00 | 0.00 | 54 | 1015.4 |
| 20260906013318 | 80 | 241 | 10.4 | 17.4 | 0.00 | 0.00 | 0.00 | 54 | 1015.4 |
| 20260906013231 | 80 | 232 | 9.6 | 17.4 | 0.00 | 0.00 | 0.00 | 54 | 1015.4 |
| 20260906013125 | 80 | 241 | 9.6 | 18.2 | 0.00 | 0.00 | 0.00 | 54 | 1015.4 |
| 20260906013019 | 80 | 240 | 10.4 | 18.2 | 0.00 | 0.00 | 0.00 | 54 | 1015.4 |
| 20260906012932 | 80 | 239 | 11.3 | 18.2 | 0.00 | 0.00 | 0.00 | 54 | 1015.4 |
| 20260906012850 | 80 | 241 | 12.2 | 18.2 | 0.00 | 0.00 | 0.00 | 54 | 1015.4 |
| 20260906012723 | 80 | 232 | 12.2 | 18.2 | 0.00 | 0.00 | 0.00 | 54 | 1015.3 |
| 20260906012620 | 80 | 232 | 12.2 | 18.2 | 0.00 | 0.00 | 0.00 | 55 | 1015.2 |
| 20260906012517 | 80 | 242 | 13.0 | 18.2 | 0.00 | 0.00 | 0.00 | 55 | 1015.2 |
| 20260906012432 | 80 | 244 | 13.9 | 18.2 | 0.00 | 0.00 | 0.00 | 55 | 1015.1 |
| 20260906012324 | 80 | 255 | 13.9 | 18.2 | 0.00 | 0.00 | 0.00 | 56 | 1015.2 |
| 20260906012217 | 80 | 245 | 13.0 | 18.2 | 0.00 | 0.00 | 0.00 | 56 | 1015.2 |
| 20260906012130 | 80 | 250 | 13.0 | 16.5 | 0.00 | 0.00 | 0.00 | 55 | 1015.3 |
| 20260906012025 | 80 | 254 | 13.0 | 16.5 | 0.00 | 0.00 | 0.00 | 55 | 1015.3 |
| 20260906011938 | 80 | 265 | 11.3 | 14.8 | 0.00 | 0.00 | 0.00 | 54 | 1015.3 |
| 20260906011836 | 81 | 261 | 10.4 | 13.0 | 0.00 | 0.00 | 0.00 | 53 | 1015.2 |
| 20260906011750 | 81 | 242 | 8.7 | 11.3 | 0.00 | 0.00 | 0.00 | 53 | 1015.0 |
| 20260906011626 | 81 | 211 | 7.8 | 9.6 | 0.00 | 0.00 | 0.00 | 52 | 1014.9 |
| 20260906011524 | 81 | 195 | 7.0 | 9.6 | 0.00 | 0.00 | 0.00 | 52 | 1014.7 |
| 20260906011436 | 81 | 196 | 7.8 | 9.6 | 0.00 | 0.00 | 0.00 | 52 | 1014.7 |
| 20260906011328 | 81 | 189 | 7.8 | 9.6 | 0.00 | 0.00 | 0.00 | 52 | 1014.7 |
| 20260906011225 | 81 | 176 | 7.0 | 9.6 | 0.00 | 0.00 | 0.00 | 52 | 1014.6 |
| 20260906011122 | 81 | 180 | 6.1 | 8.7 | 0.00 | 0.00 | 0.00 | 52 | 1014.6 |
| 20260906011038 | 81 | 170 | 6.1 | 8.7 | 0.00 | 0.00 | 0.00 | 52 | 1014.6 |
| 20260906010934 | 81 | 159 | 6.1 | 8.7 | 0.00 | 0.00 | 0.00 | 52 | 1014.6 |
| 20260906010828 | 81 | 174 | 6.1 | 8.7 | 0.00 | 0.00 | 0.00 | 52 | 1014.6 |
| 20260906010725 | 82 | 189 | 6.1 | 8.7 | 0.00 | 0.00 | 0.00 | 52 | 1014.5 |
| 20260906010621 | 82 | 170 | 6.1 | 8.7 | 0.00 | 0.00 | 0.00 | 52 | 1014.6 |
| 20260906010536 | 82 | 172 | 5.2 | 8.7 | 0.00 | 0.00 | 0.00 | 52 | 1014.5 |
| 20260906010433 | 82 | 165 | 5.2 | 8.7 | 0.00 | 0.00 | 0.00 | 53 | 1014.5 |
| 20260906010325 | 82 | 145 | 5.2 | 8.7 | 0.00 | 0.00 | 0.00 | 53 | 1014.5 |
| 20260906010220 | 82 | 134 | 5.2 | 8.7 | 0.00 | 0.00 | 0.00 | 53 | 1014.5 |
| 20260906010124 | 82 | 140 | 5.2 | 8.7 | 0.00 | 0.00 | 0.00 | 53 | 1014.4 |
| 20260906010022 | 82 | 161 | 5.2 | 9.6 | 0.00 | 0.00 | 0.00 | 53 | 1014.5 |
| 20260906005938 | 82 | 144 | 6.1 | 9.6 | 0.00 | 0.00 | 0.00 | 53 | 1014.4 |
| 20260906005831 | 82 | 145 | 7.0 | 9.6 | 0.00 | 0.00 | 0.00 | 53 | 1014.4 |
| 20260906005728 | 82 | 147 | 6.1 | 9.6 | 0.00 | 0.00 | 0.00 | 53 | 1014.4 |
| 20260906005625 | 82 | 150 | 7.0 | 9.6 | 0.00 | 0.00 | 0.00 | 53 | 1014.4 |
| 20260906005520 | 82 | 136 | 7.0 | 9.6 | 0.00 | 0.00 | 0.00 | 53 | 1014.4 |
| 20260906005435 | 82 | 134 | 7.0 | 9.6 | 0.00 | 0.00 | 0.00 | 53 | 1014.4 |
| 20260906005333 | 82 | 140 | 6.1 | 9.6 | 0.00 | 0.00 | 0.00 | 53 | 1014.5 |
| 20260906005247 | 82 | 136 | 7.0 | 9.6 | 0.00 | 0.00 | 0.00 | 53 | 1014.4 |
| 20260906005121 | 82 | 149 | 7.0 | 9.6 | 0.00 | 0.00 | 0.00 | 53 | 1014.4 |
| 20260906005019 | 82 | 157 | 7.0 | 9.6 | 0.00 | 0.00 | 0.00 | 53 | 1014.4 |
| 20260906004932 | 82 | 142 | 7.8 | 9.6 | 0.00 | 0.00 | 0.00 | 53 | 1014.4 |
| 20260906004829 | 82 | 140 | 7.8 | 9.6 | 0.00 | 0.00 | 0.00 | 53 | 1014.4 |
| 20260906004725 | 82 | 156 | 7.8 | 9.6 | 0.00 | 0.00 | 0.00 | 53 | 1014.5 |
| 20260906004643 | 82 | 166 | 7.0 | 9.6 | 0.00 | 0.00 | 0.00 | 54 | 1014.5 |
| 20260906004539 | 82 | 206 | 6.1 | 8.7 | 0.00 | 0.00 | 0.00 | 54 | 1014.6 |
| 20260906004454 | 82 | 149 | 6.1 | 8.7 | 0.00 | 0.00 | 0.00 | 54 | 1014.7 |
| 20260906004354 | 82 | 163 | 6.1 | 8.7 | 0.00 | 0.00 | 0.00 | 54 | 1014.6 |
| 20260906004227 | 81 | 156 | 6.1 | 8.7 | 0.00 | 0.00 | 0.00 | 54 | 1014.7 |
| 20260906004120 | 81 | 173 | 6.1 | 8.7 | 0.00 | 0.00 | 0.00 | 55 | 1014.7 |
| 20260906004039 | 81 | 176 | 6.1 | 11.3 | 0.00 | 0.00 | 0.00 | 55 | 1014.7 |
| 20260906003933 | 81 | 165 | 6.1 | 11.3 | 0.00 | 0.00 | 0.00 | 55 | 1014.7 |
| 20260906003827 | 81 | 171 | 5.2 | 12.2 | 0.00 | 0.00 | 0.00 | 55 | 1014.7 |
| 20260906003724 | 81 | 167 | 5.2 | 12.2 | 0.00 | 0.00 | 0.00 | 55 | 1014.8 |
| 20260906003618 | 81 | 169 | 6.1 | 12.2 | 0.00 | 0.00 | 0.00 | 55 | 1014.8 |
| 20260906003536 | 81 | 171 | 6.1 | 12.2 | 0.00 | 0.00 | 0.00 | 55 | 1014.8 |
| 20260906003435 | 81 | 166 | 6.1 | 12.2 | 0.00 | 0.00 | 0.00 | 55 | 1014.9 |
| 20260906003327 | 81 | 193 | 7.0 | 12.2 | 0.00 | 0.00 | 0.00 | 55 | 1014.9 |
| 20260906003221 | 81 | 213 | 7.8 | 12.2 | 0.00 | 0.00 | 0.00 | 56 | 1015.0 |
| 20260906003135 | 82 | 226 | 7.8 | 12.2 | 0.00 | 0.00 | 0.00 | 56 | 1015.0 |
| 20260906003031 | 82 | 245 | 9.6 | 12.2 | 0.00 | 0.00 | 0.00 | 56 | 1015.0 |
| 20260906002949 | 82 | 240 | 8.7 | 12.2 | 0.00 | 0.00 | 0.00 | 56 | 1015.0 |
| 20260906002845 | 82 | 240 | 9.6 | 12.2 | 0.00 | 0.00 | 0.00 | 56 | 1015.1 |
| 20260906002759 | 82 | 242 | 9.6 | 12.2 | 0.00 | 0.00 | 0.00 | 55 | 1015.1 |
| 20260906002655 | 82 | 254 | 8.7 | 11.3 | 0.00 | 0.00 | 0.00 | 55 | 1015.0 |
| 20260906002529 | 82 | 259 | 8.7 | 11.3 | 0.00 | 0.00 | 0.00 | 55 | 1015.0 |
| 20260906002426 | 82 | 250 | 7.8 | 9.6 | 0.00 | 0.00 | 0.00 | 55 | 1014.9 |
| 20260906002322 | 82 | 250 | 7.0 | 8.7 | 0.00 | 0.00 | 0.00 | 55 | 1014.8 |
| 20260906002216 | 82 | 221 | 6.1 | 8.7 | 0.00 | 0.00 | 0.00 | 55 | 1014.7 |
| 20260906002131 | 82 | 221 | 5.2 | 12.2 | 0.00 | 0.00 | 0.00 | 55 | 1014.6 |
| 20260906002029 | 82 | 197 | 5.2 | 12.2 | 0.00 | 0.00 | 0.00 | 55 | 1014.6 |
| 20260906001922 | 82 | 186 | 6.1 | 12.2 | 0.00 | 0.00 | 0.00 | 54 | 1014.4 |
| 20260906001815 | 82 | 186 | 6.1 | 12.2 | 0.00 | 0.00 | 0.00 | 54 | 1014.5 |
| 20260906001713 | 83 | 165 | 7.0 | 12.2 | 0.00 | 0.00 | 0.00 | 54 | 1014.5 |
| 20260906001634 | 83 | 184 | 7.0 | 12.2 | 0.00 | 0.00 | 0.00 | 54 | 1014.5 |
| 20260906001529 | 83 | 180 | 7.0 | 12.2 | 0.00 | 0.00 | 0.00 | 54 | 1014.5 |
| 20260906001420 | 83 | 149 | 7.0 | 12.2 | 0.00 | 0.00 | 0.00 | 54 | 1014.5 |
| 20260906001317 | 83 | 156 | 7.8 | 13.0 | 0.00 | 0.00 | 0.00 | 54 | 1014.5 |
| 20260906001231 | 83 | 163 | 7.8 | 13.0 | 0.00 | 0.00 | 0.00 | 53 | 1014.5 |
| 20260906001128 | 83 | 157 | 7.0 | 13.9 | 0.00 | 0.00 | 0.00 | 53 | 1014.5 |
| 20260906001044 | 83 | 155 | 7.0 | 13.9 | 0.00 | 0.00 | 0.00 | 53 | 1014.5 |
| 20260906000940 | 83 | 158 | 6.1 | 13.9 | 0.00 | 0.00 | 0.00 | 53 | 1014.5 |
| 20260906000819 | 83 | 162 | 7.0 | 13.9 | 0.00 | 0.00 | 0.00 | 52 | 1014.5 |
| 20260906000739 | 83 | 168 | 7.8 | 13.9 | 0.00 | 0.00 | 0.00 | 52 | 1014.5 |
| 20260906000653 | 84 | 164 | 8.7 | 13.9 | 0.00 | 0.00 | 0.00 | 52 | 1014.5 |
| 20260906000527 | 84 | 179 | 8.7 | 13.9 | 0.00 | 0.00 | 0.00 | 51 | 1014.4 |
| 20260906000419 | 84 | 184 | 9.6 | 13.9 | 0.00 | 0.00 | 0.00 | 51 | 1014.4 |
| 20260906000333 | 84 | 161 | 10.4 | 13.9 | 0.00 | 0.00 | 0.00 | 51 | 1014.4 |
| 20260906000226 | 84 | 177 | 9.6 | 13.9 | 0.00 | 0.00 | 0.00 | 51 | 1014.4 |
| 20260906000123 | 84 | 182 | 8.7 | 12.2 | 0.00 | 0.00 | 0.00 | 51 | 1014.4 |
| 20260906000023 | 84 | 154 | 7.0 | 12.2 | 0.00 | 0.00 | 0.00 | 51 | 1014.3 |
| 20260905235935 | 84 | 157 | 7.0 | 12.2 | 0.00 | 0.00 | 0.00 | 51 | 1014.2 |
| 20260905235829 | 84 | 163 | 8.7 | 12.2 | 0.00 | 0.00 | 0.00 | 51 | 1014.2 |
| 20260905235725 | 84 | 169 | 10.4 | 12.2 | 0.00 | 0.00 | 0.00 | 51 | 1014.3 |
| 20260905235619 | 84 | 186 | 9.6 | 12.2 | 0.00 | 0.00 | 0.00 | 51 | 1014.3 |
| 20260905235534 | 84 | 184 | 7.8 | 11.3 | 0.00 | 0.00 | 0.00 | 51 | 1014.2 |
| 20260905235429 | 84 | 196 | 7.8 | 11.3 | 0.00 | 0.00 | 0.00 | 51 | 1014.1 |
| 20260905235323 | 84 | 159 | 7.8 | 11.3 | 0.00 | 0.00 | 0.00 | 51 | 1014.0 |
| 20260905235220 | 84 | 168 | 7.8 | 11.3 | 0.00 | 0.00 | 0.00 | 51 | 1013.9 |
| 20260905235134 | 84 | 163 | 7.8 | 11.3 | 0.00 | 0.00 | 0.00 | 51 | 1013.9 |
| 20260905235029 | 84 | 154 | 7.8 | 11.3 | 0.00 | 0.00 | 0.00 | 52 | 1013.8 |
| 20260905234921 | 84 | 160 | 8.7 | 11.3 | 0.00 | 0.00 | 0.00 | 51 | 1013.8 |
| 20260905234835 | 84 | 144 | 7.8 | 11.3 | 0.00 | 0.00 | 0.00 | 52 | 1013.8 |
| 20260905234731 | 84 | 143 | 7.0 | 12.2 | 0.00 | 0.00 | 0.00 | 52 | 1013.7 |
| 20260905234624 | 84 | 153 | 7.8 | 13.9 | 0.00 | 0.00 | 0.00 | 52 | 1013.7 |
| 20260905234518 | 84 | 148 | 7.8 | 13.9 | 0.00 | 0.00 | 0.00 | 52 | 1013.6 |
| 20260905234430 | 84 | 147 | 7.8 | 13.9 | 0.00 | 0.00 | 0.00 | 52 | 1013.6 |
| 20260905234344 | 84 | 145 | 7.8 | 13.9 | 0.00 | 0.00 | 0.00 | 52 | 1013.6 |
| 20260905234237 | 84 | 169 | 7.8 | 13.9 | 0.00 | 0.00 | 0.00 | 52 | 1013.7 |
| 20260905234155 | 84 | 142 | 8.7 | 13.9 | 0.00 | 0.00 | 0.00 | 53 | 1013.7 |
| 20260905234028 | 84 | 166 | 8.7 | 13.9 | 0.00 | 0.00 | 0.00 | 52 | 1013.7 |
| 20260905233919 | 84 | 155 | 9.6 | 13.9 | 0.00 | 0.00 | 0.00 | 52 | 1013.8 |
| 20260905233833 | 84 | 153 | 9.6 | 13.9 | 0.00 | 0.00 | 0.00 | 52 | 1013.8 |
| 20260905233727 | 84 | 165 | 10.4 | 13.9 | 0.00 | 0.00 | 0.00 | 52 | 1013.8 |
| 20260905233624 | 84 | 163 | 8.7 | 13.0 | 0.00 | 0.00 | 0.00 | 52 | 1013.8 |
| 20260905233525 | 84 | 153 | 7.8 | 13.0 | 0.00 | 0.00 | 0.00 | 52 | 1013.8 |
| 20260905233418 | 84 | 149 | 7.8 | 13.0 | 0.00 | 0.00 | 0.00 | 52 | 1013.8 |
| 20260905233316 | 84 | 160 | 7.8 | 13.0 | 0.00 | 0.00 | 0.00 | 52 | 1013.8 |
| 20260905233217 | 84 | 167 | 8.7 | 13.0 | 0.00 | 0.00 | 0.00 | 52 | 1013.8 |
| 20260905233130 | 84 | 171 | 8.7 | 13.0 | 0.00 | 0.00 | 0.00 | 52 | 1013.8 |
| 20260905233027 | 84 | 168 | 9.6 | 13.0 | 0.00 | 0.00 | 0.00 | 52 | 1013.8 |
| 20260905232942 | 84 | 166 | 9.6 | 13.0 | 0.00 | 0.00 | 0.00 | 52 | 1013.8 |
| 20260905232858 | 84 | 161 | 8.7 | 13.0 | 0.00 | 0.00 | 0.00 | 52 | 1013.8 |
| 20260905232729 | 84 | 147 | 9.6 | 12.2 | 0.00 | 0.00 | 0.00 | 52 | 1013.8 |
| 20260905232622 | 84 | 159 | 9.6 | 12.2 | 0.00 | 0.00 | 0.00 | 52 | 1013.7 |
| 20260905232537 | 84 | 141 | 9.6 | 11.3 | 0.00 | 0.00 | 0.00 | 52 | 1013.7 |
| 20260905232433 | 84 | 155 | 8.7 | 11.3 | 0.00 | 0.00 | 0.00 | 52 | 1013.7 |
| 20260905232326 | 84 | 159 | 7.8 | 13.9 | 0.00 | 0.00 | 0.00 | 52 | 1013.7 |
| 20260905232226 | 84 | 162 | 7.8 | 13.9 | 0.00 | 0.00 | 0.00 | 52 | 1013.8 |
| 20260905232123 | 84 | 148 | 7.0 | 13.9 | 0.00 | 0.00 | 0.00 | 52 | 1013.8 |
| 20260905232019 | 84 | 156 | 7.0 | 13.9 | 0.00 | 0.00 | 0.00 | 52 | 1013.8 |
| 20260905231933 | 84 | 163 | 6.1 | 13.9 | 0.00 | 0.00 | 0.00 | 52 | 1013.8 |
| 20260905231850 | 84 | 170 | 7.0 | 13.9 | 0.00 | 0.00 | 0.00 | 52 | 1013.9 |
| 20260905231743 | 84 | 160 | 8.7 | 15.6 | 0.00 | 0.00 | 0.00 | 52 | 1013.9 |
| 20260905231617 | 84 | 183 | 8.7 | 16.5 | 0.00 | 0.00 | 0.00 | 51 | 1013.9 |
| 20260905231532 | 84 | 172 | 9.6 | 16.5 | 0.00 | 0.00 | 0.00 | 51 | 1014.0 |
| 20260905231447 | 85 | 185 | 9.6 | 16.5 | 0.00 | 0.00 | 0.00 | 51 | 1014.1 |
| 20260905231326 | 85 | 180 | 9.6 | 16.5 | 0.00 | 0.00 | 0.00 | 50 | 1014.0 |
| 20260905231219 | 85 | 184 | 9.6 | 16.5 | 0.00 | 0.00 | 0.00 | 50 | 1014.1 |
| 20260905231133 | 85 | 188 | 9.6 | 16.5 | 0.00 | 0.00 | 0.00 | 49 | 1014.1 |
| 20260905231031 | 85 | 172 | 10.4 | 16.5 | 0.00 | 0.00 | 0.00 | 49 | 1014.0 |
| 20260905230926 | 85 | 178 | 11.3 | 16.5 | 0.00 | 0.00 | 0.00 | 48 | 1014.1 |
| 20260905230819 | 85 | 185 | 13.0 | 16.5 | 0.00 | 0.00 | 0.00 | 48 | 1014.1 |
| 20260905230736 | 85 | 178 | 13.0 | 16.5 | 0.00 | 0.00 | 0.00 | 47 | 1014.1 |
| 20260905230649 | 85 | 178 | 12.2 | 16.5 | 0.00 | 0.00 | 0.00 | 47 | 1014.1 |
| 20260905230546 | 85 | 184 | 11.3 | 14.8 | 0.00 | 0.00 | 0.00 | 46 | 1014.1 |
| 20260905230438 | 85 | 177 | 9.6 | 13.9 | 0.00 | 0.00 | 0.00 | 46 | 1014.1 |
| 20260905230356 | 85 | 157 | 7.8 | 11.3 | 0.00 | 0.00 | 0.00 | 47 | 1014.1 |
| 20260905230232 | 85 | 161 | 7.8 | 12.2 | 0.00 | 0.00 | 0.00 | 47 | 1014.1 |
| 20260905230126 | 85 | 167 | 7.0 | 13.0 | 0.00 | 0.00 | 0.00 | 47 | 1014.1 |
| 20260905230022 | 85 | 167 | 7.0 | 13.0 | 0.00 | 0.00 | 0.00 | 47 | 1014.1 |
| 20260905225921 | 85 | 173 | 7.0 | 13.0 | 0.00 | 0.00 | 0.00 | 47 | 1014.1 |
| 20260905225835 | 86 | 173 | 7.8 | 13.0 | 0.00 | 0.00 | 0.00 | 47 | 1014.1 |
| 20260905225729 | 86 | 159 | 7.8 | 13.0 | 0.00 | 0.00 | 0.00 | 47 | 1014.1 |
| 20260905225630 | 86 | 184 | 7.8 | 13.0 | 0.00 | 0.00 | 0.00 | 48 | 1013.9 |
| 20260905225550 | 86 | 150 | 8.7 | 13.0 | 0.00 | 0.00 | 0.00 | 48 | 1014.0 |
| 20260905225425 | 86 | 150 | 8.7 | 13.0 | 0.00 | 0.00 | 0.00 | 48 | 1013.9 |
| 20260905225319 | 85 | 146 | 9.6 | 13.0 | 0.00 | 0.00 | 0.00 | 48 | 1013.9 |
| 20260905225218 | 85 | 146 | 9.6 | 13.0 | 0.00 | 0.00 | 0.00 | 49 | 1013.9 |
| 20260905225134 | 85 | 165 | 9.6 | 12.2 | 0.00 | 0.00 | 0.00 | 49 | 1014.0 |
| 20260905225028 | 85 | 138 | 7.8 | 10.4 | 0.00 | 0.00 | 0.00 | 49 | 1014.0 |
| 20260905224943 | 85 | 147 | 7.0 | 10.4 | 0.00 | 0.00 | 0.00 | 49 | 1014.0 |
| 20260905224856 | 85 | 136 | 7.0 | 11.3 | 0.00 | 0.00 | 0.00 | 49 | 1013.9 |
| 20260905224728 | 85 | 138 | 7.0 | 11.3 | 0.00 | 0.00 | 0.00 | 50 | 1013.8 |
| 20260905224626 | 85 | 135 | 7.0 | 11.3 | 0.00 | 0.00 | 0.00 | 50 | 1013.9 |
| 20260905224522 | 85 | 145 | 7.0 | 11.3 | 0.00 | 0.00 | 0.00 | 50 | 1013.9 |
| 20260905224414 | 85 | 153 | 7.0 | 11.3 | 0.00 | 0.00 | 0.00 | 50 | 1013.9 |
| 20260905224330 | 85 | 153 | 7.0 | 11.3 | 0.00 | 0.00 | 0.00 | 50 | 1013.8 |
| 20260905224228 | 85 | 177 | 7.8 | 13.0 | 0.00 | 0.00 | 0.00 | 50 | 1013.8 |
| 20260905224141 | 85 | 165 | 7.0 | 14.8 | 0.00 | 0.00 | 0.00 | 51 | 1013.9 |
| 20260905224035 | 85 | 158 | 7.8 | 14.8 | 0.00 | 0.00 | 0.00 | 51 | 1013.9 |
| 20260905223952 | 85 | 157 | 7.8 | 14.8 | 0.00 | 0.00 | 0.00 | 52 | 1013.8 |
| 20260905223827 | 85 | 166 | 7.8 | 14.8 | 0.00 | 0.00 | 0.00 | 52 | 1013.8 |
| 20260905223725 | 85 | 173 | 7.8 | 14.8 | 0.00 | 0.00 | 0.00 | 52 | 1013.8 |
| 20260905223621 | 85 | 159 | 8.7 | 14.8 | 0.00 | 0.00 | 0.00 | 51 | 1013.7 |
| 20260905223539 | 85 | 144 | 9.6 | 14.8 | 0.00 | 0.00 | 0.00 | 51 | 1013.7 |
| 20260905223455 | 85 | 150 | 10.4 | 14.8 | 0.00 | 0.00 | 0.00 | 51 | 1013.6 |
| 20260905223329 | 85 | 146 | 11.3 | 14.8 | 0.00 | 0.00 | 0.00 | 51 | 1013.6 |
| 20260905223222 | 85 | 166 | 12.2 | 14.8 | 0.00 | 0.00 | 0.00 | 52 | 1013.5 |
| 20260905223117 | 85 | 154 | 11.3 | 14.8 | 0.00 | 0.00 | 0.00 | 52 | 1013.5 |
| 20260905223031 | 85 | 142 | 10.4 | 14.8 | 0.00 | 0.00 | 0.00 | 52 | 1013.5 |
| 20260905222928 | 85 | 132 | 10.4 | 14.8 | 0.00 | 0.00 | 0.00 | 53 | 1013.5 |
| 20260905222846 | 85 | 119 | 8.7 | 14.8 | 0.00 | 0.00 | 0.00 | 53 | 1013.5 |
| 20260905222740 | 85 | 148 | 7.8 | 14.8 | 0.00 | 0.00 | 0.00 | 52 | 1013.6 |
| 20260905222632 | 85 | 136 | 7.8 | 15.6 | 0.00 | 0.00 | 0.00 | 52 | 1013.5 |
| 20260905222526 | 85 | 139 | 8.7 | 15.6 | 0.00 | 0.00 | 0.00 | 52 | 1013.5 |
| 20260905222439 | 85 | 132 | 9.6 | 15.6 | 0.00 | 0.00 | 0.00 | 51 | 1013.6 |
| 20260905222332 | 85 | 142 | 9.6 | 15.6 | 0.00 | 0.00 | 0.00 | 51 | 1013.6 |
| 20260905222225 | 85 | 136 | 10.4 | 15.6 | 0.00 | 0.00 | 0.00 | 51 | 1013.6 |
| 20260905222123 | 85 | 135 | 11.3 | 15.6 | 0.00 | 0.00 | 0.00 | 51 | 1013.6 |
| 20260905222039 | 85 | 141 | 12.2 | 15.6 | 0.00 | 0.00 | 0.00 | 51 | 1013.7 |
| 20260905222002 | 86 | 136 | 11.3 | 15.6 | 0.00 | 0.00 | 0.00 | 51 | 1013.7 |
| 20260905221856 | 86 | 133 | 11.3 | 15.6 | 0.00 | 0.00 | 0.00 | 51 | 1013.8 |
| 20260905221728 | 86 | 135 | 11.3 | 15.6 | 0.00 | 0.00 | 0.00 | 50 | 1013.9 |
| 20260905221624 | 86 | 140 | 11.3 | 14.8 | 0.00 | 0.00 | 0.00 | 49 | 1013.9 |
| 20260905221522 | 86 | 185 | 11.3 | 14.8 | 0.00 | 0.00 | 0.00 | 49 | 1014.0 |
| 20260905221415 | 86 | 166 | 11.3 | 14.8 | 0.00 | 0.00 | 0.00 | 49 | 1014.1 |
| 20260905221333 | 87 | 167 | 10.4 | 14.8 | 0.00 | 0.00 | 0.00 | 48 | 1014.1 |
| 20260905221227 | 87 | 146 | 9.6 | 14.8 | 0.00 | 0.00 | 0.00 | 49 | 1014.1 |
| 20260905221119 | 87 | 161 | 9.6 | 14.8 | 0.00 | 0.00 | 0.00 | 49 | 1014.1 |
| 20260905221038 | 87 | 167 | 9.6 | 21.7 | 0.00 | 0.00 | 0.00 | 50 | 1014.1 |
| 20260905220936 | 88 | 184 | 11.3 | 21.7 | 0.00 | 0.00 | 0.00 | 49 | 1014.2 |
| 20260905220832 | 88 | 178 | 11.3 | 21.7 | 0.00 | 0.00 | 0.00 | 49 | 1014.1 |
| 20260905220725 | 88 | 190 | 9.6 | 21.7 | 0.00 | 0.00 | 0.00 | 49 | 1014.1 |
| 20260905220639 | 88 | 170 | 7.8 | 21.7 | 0.00 | 0.00 | 0.00 | 48 | 1014.0 |
| 20260905220536 | 88 | 164 | 8.7 | 21.7 | 0.00 | 0.00 | 0.00 | 48 | 1014.0 |
| 20260905220429 | 88 | 149 | 8.7 | 21.7 | 0.00 | 0.00 | 0.00 | 48 | 1014.0 |
| 20260905220322 | 88 | 171 | 10.4 | 21.7 | 0.00 | 0.00 | 0.00 | 48 | 1014.1 |
| 20260905220235 | 87 | 161 | 12.2 | 21.7 | 0.00 | 0.00 | 0.00 | 48 | 1014.1 |
| 20260905220134 | 87 | 158 | 13.0 | 21.7 | 0.00 | 0.00 | 0.00 | 48 | 1014.1 |
| 20260905220029 | 87 | 204 | 9.6 | 15.6 | 0.00 | 0.00 | 0.00 | 49 | 1014.1 |
| 20260905215924 | 88 | 200 | 8.7 | 13.9 | 0.00 | 0.00 | 0.00 | 49 | 1014.0 |
| 20260905215817 | 88 | 213 | 10.4 | 13.9 | 0.00 | 0.00 | 0.00 | 49 | 1014.1 |
| 20260905215730 | 88 | 208 | 10.4 | 13.9 | 0.00 | 0.00 | 0.00 | 48 | 1014.1 |
| 20260905215644 | 88 | 143 | 7.8 | 12.2 | 0.00 | 0.00 | 0.00 | 48 | 1014.1 |
| 20260905215520 | 88 | 169 | 6.1 | 8.7 | 0.00 | 0.00 | 0.00 | 48 | 1014.2 |
| 20260905215434 | 88 | 186 | 5.2 | 8.7 | 0.00 | 0.00 | 0.00 | 48 | 1014.1 |
| 20260905215332 | 88 | 158 | 5.2 | 8.7 | 0.00 | 0.00 | 0.00 | 48 | 1014.2 |
| 20260905215229 | 88 | 174 | 5.2 | 8.7 | 0.00 | 0.00 | 0.00 | 48 | 1014.2 |
| 20260905215123 | 88 | 167 | 6.1 | 9.6 | 0.00 | 0.00 | 0.00 | 47 | 1014.2 |
| 20260905215017 | 88 | 164 | 6.1 | 9.6 | 0.00 | 0.00 | 0.00 | 47 | 1014.2 |
| 20260905214933 | 88 | 161 | 6.1 | 9.6 | 0.00 | 0.00 | 0.00 | 47 | 1014.2 |
| 20260905214827 | 88 | 175 | 6.1 | 9.6 | 0.00 | 0.00 | 0.00 | 47 | 1014.3 |
| 20260905214725 | 88 | 161 | 6.1 | 9.6 | 0.00 | 0.00 | 0.00 | 47 | 1014.2 |
| 20260905214621 | 88 | 155 | 6.1 | 9.6 | 0.00 | 0.00 | 0.00 | 47 | 1014.2 |
| 20260905214526 | 88 | 147 | 7.0 | 9.6 | 0.00 | 0.00 | 0.00 | 47 | 1014.2 |
| 20260905214419 | 88 | 145 | 7.0 | 9.6 | 0.00 | 0.00 | 0.00 | 47 | 1014.3 |
| 20260905214333 | 88 | 138 | 7.0 | 9.6 | 0.00 | 0.00 | 0.00 | 47 | 1014.3 |
| 20260905214225 | 88 | 150 | 6.1 | 9.6 | 0.00 | 0.00 | 0.00 | 47 | 1014.3 |
| 20260905214118 | 88 | 155 | 6.1 | 9.6 | 0.00 | 0.00 | 0.00 | 47 | 1014.3 |
| 20260905214017 | 88 | 124 | 6.1 | 9.6 | 0.00 | 0.00 | 0.00 | 47 | 1014.3 |
| 20260905213933 | 88 | 144 | 6.1 | 9.6 | 0.00 | 0.00 | 0.00 | 46 | 1014.4 |
| 20260905213826 | 88 | 150 | 7.0 | 9.6 | 0.00 | 0.00 | 0.00 | 47 | 1014.4 |
| 20260905213727 | 89 | 146 | 6.1 | 9.6 | 0.00 | 0.00 | 0.00 | 46 | 1014.4 |
| 20260905213620 | 89 | 159 | 6.1 | 9.6 | 0.00 | 0.00 | 0.00 | 46 | 1014.4 |
| 20260905213517 | 89 | 132 | 6.1 | 9.6 | 0.00 | 0.00 | 0.00 | 46 | 1014.4 |
| 20260905213433 | 89 | 156 | 6.1 | 10.4 | 0.00 | 0.00 | 0.00 | 46 | 1014.4 |
| 20260905213328 | 89 | 150 | 6.1 | 10.4 | 0.00 | 0.00 | 0.00 | 46 | 1014.4 |
| 20260905213225 | 89 | 146 | 6.1 | 10.4 | 0.00 | 0.00 | 0.00 | 46 | 1014.4 |
| 20260905213139 | 89 | 127 | 7.0 | 10.4 | 0.00 | 0.00 | 0.00 | 46 | 1014.4 |
| 20260905213053 | 89 | 138 | 7.0 | 10.4 | 0.00 | 0.00 | 0.00 | 46 | 1014.4 |
| 20260905212929 | 89 | 143 | 7.0 | 10.4 | 0.00 | 0.00 | 0.00 | 46 | 1014.5 |
| 20260905212826 | 89 | 123 | 7.0 | 10.4 | 0.00 | 0.00 | 0.00 | 46 | 1014.5 |
| 20260905212723 | 89 | 152 | 7.0 | 10.4 | 0.00 | 0.00 | 0.00 | 46 | 1014.5 |
| 20260905212637 | 89 | 155 | 7.0 | 10.4 | 0.00 | 0.00 | 0.00 | 46 | 1014.5 |
| 20260905212555 | 89 | 126 | 7.8 | 10.4 | 0.00 | 0.00 | 0.00 | 46 | 1014.5 |
| 20260905212426 | 89 | 145 | 7.8 | 11.3 | 0.00 | 0.00 | 0.00 | 46 | 1014.6 |
| 20260905212323 | 89 | 134 | 7.0 | 10.4 | 0.00 | 0.00 | 0.00 | 46 | 1014.6 |
| 20260905212223 | 89 | 141 | 7.0 | 10.4 | 0.00 | 0.00 | 0.00 | 46 | 1014.6 |
| 20260905212120 | 89 | 140 | 7.0 | 11.3 | 0.00 | 0.00 | 0.00 | 46 | 1014.5 |
| 20260905212035 | 89 | 128 | 7.0 | 11.3 | 0.00 | 0.00 | 0.00 | 46 | 1014.5 |
| 20260905211928 | 89 | 140 | 7.0 | 11.3 | 0.00 | 0.00 | 0.00 | 46 | 1014.5 |
| 20260905211824 | 89 | 153 | 7.0 | 11.3 | 0.00 | 0.00 | 0.00 | 46 | 1014.5 |
| 20260905211716 | 89 | 132 | 7.0 | 11.3 | 0.00 | 0.00 | 0.00 | 46 | 1014.4 |
| 20260905211633 | 89 | 120 | 7.0 | 11.3 | 0.00 | 0.00 | 0.00 | 46 | 1014.4 |
| 20260905211529 | 89 | 135 | 7.8 | 12.2 | 0.00 | 0.00 | 0.00 | 46 | 1014.4 |
| 20260905211422 | 89 | 99 | 8.7 | 12.2 | 0.00 | 0.00 | 0.00 | 46 | 1014.4 |
| 20260905211336 | 89 | 128 | 7.8 | 12.2 | 0.00 | 0.00 | 0.00 | 46 | 1014.4 |
| 20260905211233 | 89 | 128 | 7.8 | 13.0 | 0.00 | 0.00 | 0.00 | 46 | 1014.4 |
| 20260905211125 | 89 | 112 | 7.0 | 13.0 | 0.00 | 0.00 | 0.00 | 46 | 1014.4 |
| 20260905211021 | 89 | 131 | 7.8 | 15.6 | 0.00 | 0.00 | 0.00 | 46 | 1014.4 |
| 20260905210934 | 89 | 128 | 7.8 | 15.6 | 0.00 | 0.00 | 0.00 | 46 | 1014.4 |
| 20260905210828 | 89 | 131 | 7.8 | 15.6 | 0.00 | 0.00 | 0.00 | 46 | 1014.4 |
| 20260905210746 | 89 | 114 | 8.7 | 15.6 | 0.00 | 0.00 | 0.00 | 46 | 1014.4 |
| 20260905210703 | 89 | 125 | 9.6 | 15.6 | 0.00 | 0.00 | 0.00 | 46 | 1014.4 |
| 20260905210557 | 89 | 125 | 9.6 | 15.6 | 0.00 | 0.00 | 0.00 | 46 | 1014.3 |
| 20260905210429 | 89 | 128 | 9.6 | 15.6 | 0.00 | 0.00 | 0.00 | 46 | 1014.3 |
| 20260905210330 | 89 | 96 | 9.6 | 15.6 | 0.00 | 0.00 | 0.00 | 46 | 1014.3 |
| 20260905210227 | 89 | 137 | 11.3 | 15.6 | 0.00 | 0.00 | 0.00 | 46 | 1014.3 |
| 20260905210121 | 89 | 136 | 10.4 | 15.6 | 0.00 | 0.00 | 0.00 | 46 | 1014.2 |
| 20260905210020 | 89 | 111 | 8.7 | 14.8 | 0.00 | 0.00 | 0.00 | 46 | 1014.2 |
| 20260905205933 | 89 | 111 | 9.6 | 14.8 | 0.00 | 0.00 | 0.00 | 46 | 1014.2 |
| 20260905205827 | 89 | 112 | 10.4 | 14.8 | 0.00 | 0.00 | 0.00 | 46 | 1014.2 |
| 20260905205741 | 89 | 131 | 10.4 | 14.8 | 0.00 | 0.00 | 0.00 | 46 | 1014.2 |
| 20260905205617 | 89 | 131 | 10.4 | 14.8 | 0.00 | 0.00 | 0.00 | 46 | 1014.2 |
| 20260905205536 | 89 | 112 | 11.3 | 14.8 | 0.00 | 0.00 | 0.00 | 46 | 1014.3 |
| 20260905205451 | 89 | 138 | 10.4 | 14.8 | 0.00 | 0.00 | 0.00 | 46 | 1014.3 |
| 20260905205327 | 89 | 113 | 10.4 | 14.8 | 0.00 | 0.00 | 0.00 | 46 | 1014.4 |
| 20260905205221 | 89 | 134 | 10.4 | 14.8 | 0.00 | 0.00 | 0.00 | 46 | 1014.4 |
| 20260905205118 | 89 | 137 | 11.3 | 13.9 | 0.00 | 0.00 | 0.00 | 46 | 1014.4 |
| 20260905205033 | 89 | 117 | 10.4 | 13.9 | 0.00 | 0.00 | 0.00 | 46 | 1014.5 |
| 20260905204926 | 89 | 112 | 10.4 | 13.0 | 0.00 | 0.00 | 0.00 | 46 | 1014.5 |
| 20260905204819 | 89 | 130 | 11.3 | 13.0 | 0.00 | 0.00 | 0.00 | 46 | 1014.5 |